<?xml version="1.0" encoding="UTF-8" standalone="no" ?>
<gpx xmlns="http://www.topografix.com/GPX/1/1" xmlns:xsi="http://www.w3.org/2001/XMLSchema-instance" xsi:schemaLocation="http://www.topografix.com/GPX/1/1 http://www.topografix.com/GPX/1/1/gpx.xsd" version="1.1" creator="VisuGPX - https://www.visugpx.com">
  <metadata>
    <name>Myon - Alaise - Chiprey - Echay</name>
    <desc><![CDATA[Randonnée pédestre effectuée le 28 mars 2019. L'indice IBP d'effort est de 65, (suivant l'échelle de la FFRP) un score compris entre 51 et 75 correspond au niveau 3 qualifié de "PEU DIFFICILE". La randonnée pédestre nécessite un certain engagement physique qui reste toutefois mesuré. Ce niveau correspond à des randonnées pédestres modérées.]]></desc>
  </metadata>
  <trk>
    <name><![CDATA[20190328230031-JGlgA]]></name>
    <trkseg>
      <trkpt lat="47.02576" lon="5.94379">
        <ele>341</ele>
        <time>2019-03-28T08:21:52Z</time>
      </trkpt>
      <trkpt lat="47.02576" lon="5.9438">
        <ele>341</ele>
        <time>2019-03-28T08:21:53Z</time>
      </trkpt>
      <trkpt lat="47.02581" lon="5.94403">
        <ele>343</ele>
        <time>2019-03-28T08:22:08Z</time>
      </trkpt>
      <trkpt lat="47.02583" lon="5.9441">
        <ele>342</ele>
        <time>2019-03-28T08:22:13Z</time>
      </trkpt>
      <trkpt lat="47.02585" lon="5.94424">
        <ele>339</ele>
        <time>2019-03-28T08:22:23Z</time>
      </trkpt>
      <trkpt lat="47.02592" lon="5.94443">
        <ele>337</ele>
        <time>2019-03-28T08:22:38Z</time>
      </trkpt>
      <trkpt lat="47.02591" lon="5.94453">
        <ele>337</ele>
        <time>2019-03-28T08:22:42Z</time>
      </trkpt>
      <trkpt lat="47.02591" lon="5.94459">
        <ele>337</ele>
        <time>2019-03-28T08:22:45Z</time>
      </trkpt>
      <trkpt lat="47.02592" lon="5.94467">
        <ele>336</ele>
        <time>2019-03-28T08:22:49Z</time>
      </trkpt>
      <trkpt lat="47.02594" lon="5.94474">
        <ele>336</ele>
        <time>2019-03-28T08:22:54Z</time>
      </trkpt>
      <trkpt lat="47.02598" lon="5.94487">
        <ele>335</ele>
        <time>2019-03-28T08:23:02Z</time>
      </trkpt>
      <trkpt lat="47.026" lon="5.94495">
        <ele>336</ele>
        <time>2019-03-28T08:23:07Z</time>
      </trkpt>
      <trkpt lat="47.026" lon="5.94502">
        <ele>335</ele>
        <time>2019-03-28T08:23:11Z</time>
      </trkpt>
      <trkpt lat="47.02602" lon="5.94509">
        <ele>336</ele>
        <time>2019-03-28T08:23:15Z</time>
      </trkpt>
      <trkpt lat="47.02606" lon="5.94521">
        <ele>336</ele>
        <time>2019-03-28T08:23:23Z</time>
      </trkpt>
      <trkpt lat="47.02611" lon="5.94548">
        <ele>336</ele>
        <time>2019-03-28T08:23:37Z</time>
      </trkpt>
      <trkpt lat="47.02621" lon="5.94614">
        <ele>333</ele>
        <time>2019-03-28T08:24:13Z</time>
      </trkpt>
      <trkpt lat="47.02624" lon="5.94625">
        <ele>333</ele>
        <time>2019-03-28T08:24:19Z</time>
      </trkpt>
      <trkpt lat="47.02632" lon="5.94651">
        <ele>332</ele>
        <time>2019-03-28T08:24:37Z</time>
      </trkpt>
      <trkpt lat="47.02634" lon="5.94658">
        <ele>332</ele>
        <time>2019-03-28T08:24:41Z</time>
      </trkpt>
      <trkpt lat="47.02636" lon="5.94672">
        <ele>332</ele>
        <time>2019-03-28T08:24:49Z</time>
      </trkpt>
      <trkpt lat="47.02637" lon="5.94679">
        <ele>333</ele>
        <time>2019-03-28T08:24:53Z</time>
      </trkpt>
      <trkpt lat="47.02639" lon="5.94687">
        <ele>332</ele>
        <time>2019-03-28T08:24:58Z</time>
      </trkpt>
      <trkpt lat="47.02641" lon="5.94694">
        <ele>332</ele>
        <time>2019-03-28T08:25:02Z</time>
      </trkpt>
      <trkpt lat="47.02643" lon="5.947">
        <ele>332</ele>
        <time>2019-03-28T08:25:06Z</time>
      </trkpt>
      <trkpt lat="47.02646" lon="5.94719">
        <ele>332</ele>
        <time>2019-03-28T08:25:18Z</time>
      </trkpt>
      <trkpt lat="47.02648" lon="5.94726">
        <ele>332</ele>
        <time>2019-03-28T08:25:22Z</time>
      </trkpt>
      <trkpt lat="47.02649" lon="5.94734">
        <ele>331</ele>
        <time>2019-03-28T08:25:26Z</time>
      </trkpt>
      <trkpt lat="47.0265" lon="5.94741">
        <ele>332</ele>
        <time>2019-03-28T08:25:30Z</time>
      </trkpt>
      <trkpt lat="47.02651" lon="5.94748">
        <ele>331</ele>
        <time>2019-03-28T08:25:34Z</time>
      </trkpt>
      <trkpt lat="47.02652" lon="5.94756">
        <ele>331</ele>
        <time>2019-03-28T08:25:38Z</time>
      </trkpt>
      <trkpt lat="47.02655" lon="5.94763">
        <ele>331</ele>
        <time>2019-03-28T08:25:43Z</time>
      </trkpt>
      <trkpt lat="47.02657" lon="5.94778">
        <ele>329</ele>
        <time>2019-03-28T08:25:51Z</time>
      </trkpt>
      <trkpt lat="47.02658" lon="5.94787">
        <ele>329</ele>
        <time>2019-03-28T08:25:55Z</time>
      </trkpt>
      <trkpt lat="47.0266" lon="5.94793">
        <ele>329</ele>
        <time>2019-03-28T08:25:59Z</time>
      </trkpt>
      <trkpt lat="47.02663" lon="5.948">
        <ele>329</ele>
        <time>2019-03-28T08:26:04Z</time>
      </trkpt>
      <trkpt lat="47.0267" lon="5.94829">
        <ele>328</ele>
        <time>2019-03-28T08:26:21Z</time>
      </trkpt>
      <trkpt lat="47.02669" lon="5.94837">
        <ele>328</ele>
        <time>2019-03-28T08:26:24Z</time>
      </trkpt>
      <trkpt lat="47.02673" lon="5.94849">
        <ele>327</ele>
        <time>2019-03-28T08:26:34Z</time>
      </trkpt>
      <trkpt lat="47.02676" lon="5.94862">
        <ele>327</ele>
        <time>2019-03-28T08:26:42Z</time>
      </trkpt>
      <trkpt lat="47.02676" lon="5.94885">
        <ele>326</ele>
        <time>2019-03-28T08:26:58Z</time>
      </trkpt>
      <trkpt lat="47.02668" lon="5.94891">
        <ele>325</ele>
        <time>2019-03-28T08:27:06Z</time>
      </trkpt>
      <trkpt lat="47.02658" lon="5.94889">
        <ele>325</ele>
        <time>2019-03-28T08:27:14Z</time>
      </trkpt>
      <trkpt lat="47.02648" lon="5.94891">
        <ele>326</ele>
        <time>2019-03-28T08:27:21Z</time>
      </trkpt>
      <trkpt lat="47.02641" lon="5.94902">
        <ele>326</ele>
        <time>2019-03-28T08:27:29Z</time>
      </trkpt>
      <trkpt lat="47.02624" lon="5.94914">
        <ele>327</ele>
        <time>2019-03-28T08:27:45Z</time>
      </trkpt>
      <trkpt lat="47.02617" lon="5.94922">
        <ele>328</ele>
        <time>2019-03-28T08:27:54Z</time>
      </trkpt>
      <trkpt lat="47.02603" lon="5.94944">
        <ele>328</ele>
        <time>2019-03-28T08:28:12Z</time>
      </trkpt>
      <trkpt lat="47.02624" lon="5.94972">
        <ele>331</ele>
        <time>2019-03-28T08:28:48Z</time>
      </trkpt>
      <trkpt lat="47.02635" lon="5.9498">
        <ele>332</ele>
        <time>2019-03-28T08:29:00Z</time>
      </trkpt>
      <trkpt lat="47.02642" lon="5.94988">
        <ele>333</ele>
        <time>2019-03-28T08:29:08Z</time>
      </trkpt>
      <trkpt lat="47.0265" lon="5.94999">
        <ele>337</ele>
        <time>2019-03-28T08:29:24Z</time>
      </trkpt>
      <trkpt lat="47.02657" lon="5.95009">
        <ele>339</ele>
        <time>2019-03-28T08:29:59Z</time>
      </trkpt>
      <trkpt lat="47.02663" lon="5.95021">
        <ele>342</ele>
        <time>2019-03-28T08:32:51Z</time>
      </trkpt>
      <trkpt lat="47.02671" lon="5.95037">
        <ele>342</ele>
        <time>2019-03-28T08:33:07Z</time>
      </trkpt>
      <trkpt lat="47.02678" lon="5.95047">
        <ele>342</ele>
        <time>2019-03-28T08:33:21Z</time>
      </trkpt>
      <trkpt lat="47.02681" lon="5.9506">
        <ele>343</ele>
        <time>2019-03-28T08:33:29Z</time>
      </trkpt>
      <trkpt lat="47.02685" lon="5.95072">
        <ele>343</ele>
        <time>2019-03-28T08:33:39Z</time>
      </trkpt>
      <trkpt lat="47.02688" lon="5.951">
        <ele>343</ele>
        <time>2019-03-28T08:33:56Z</time>
      </trkpt>
      <trkpt lat="47.02689" lon="5.95114">
        <ele>344</ele>
        <time>2019-03-28T08:34:04Z</time>
      </trkpt>
      <trkpt lat="47.0269" lon="5.95134">
        <ele>345</ele>
        <time>2019-03-28T08:34:18Z</time>
      </trkpt>
      <trkpt lat="47.02685" lon="5.95147">
        <ele>345</ele>
        <time>2019-03-28T08:34:24Z</time>
      </trkpt>
      <trkpt lat="47.02672" lon="5.95172">
        <ele>348</ele>
        <time>2019-03-28T08:34:44Z</time>
      </trkpt>
      <trkpt lat="47.02667" lon="5.95184">
        <ele>347</ele>
        <time>2019-03-28T08:34:51Z</time>
      </trkpt>
      <trkpt lat="47.02654" lon="5.95218">
        <ele>346</ele>
        <time>2019-03-28T08:35:14Z</time>
      </trkpt>
      <trkpt lat="47.02648" lon="5.95246">
        <ele>349</ele>
        <time>2019-03-28T08:35:35Z</time>
      </trkpt>
      <trkpt lat="47.02648" lon="5.9526">
        <ele>348</ele>
        <time>2019-03-28T08:35:42Z</time>
      </trkpt>
      <trkpt lat="47.02648" lon="5.95273">
        <ele>350</ele>
        <time>2019-03-28T08:35:49Z</time>
      </trkpt>
      <trkpt lat="47.02648" lon="5.95287">
        <ele>350</ele>
        <time>2019-03-28T08:35:59Z</time>
      </trkpt>
      <trkpt lat="47.0265" lon="5.95301">
        <ele>348</ele>
        <time>2019-03-28T08:36:07Z</time>
      </trkpt>
      <trkpt lat="47.02653" lon="5.95313">
        <ele>348</ele>
        <time>2019-03-28T08:36:16Z</time>
      </trkpt>
      <trkpt lat="47.02652" lon="5.95328">
        <ele>348</ele>
        <time>2019-03-28T08:36:24Z</time>
      </trkpt>
      <trkpt lat="47.02654" lon="5.95343">
        <ele>349</ele>
        <time>2019-03-28T08:36:36Z</time>
      </trkpt>
      <trkpt lat="47.02657" lon="5.9536">
        <ele>348</ele>
        <time>2019-03-28T08:36:47Z</time>
      </trkpt>
      <trkpt lat="47.02663" lon="5.9537">
        <ele>349</ele>
        <time>2019-03-28T08:37:03Z</time>
      </trkpt>
      <trkpt lat="47.02675" lon="5.95374">
        <ele>350</ele>
        <time>2019-03-28T08:37:17Z</time>
      </trkpt>
      <trkpt lat="47.02691" lon="5.95398">
        <ele>352</ele>
        <time>2019-03-28T08:37:46Z</time>
      </trkpt>
      <trkpt lat="47.027" lon="5.95402">
        <ele>354</ele>
        <time>2019-03-28T08:38:04Z</time>
      </trkpt>
      <trkpt lat="47.02714" lon="5.95405">
        <ele>357</ele>
        <time>2019-03-28T08:38:19Z</time>
      </trkpt>
      <trkpt lat="47.02722" lon="5.95413">
        <ele>358</ele>
        <time>2019-03-28T08:38:28Z</time>
      </trkpt>
      <trkpt lat="47.02728" lon="5.95423">
        <ele>359</ele>
        <time>2019-03-28T08:38:42Z</time>
      </trkpt>
      <trkpt lat="47.02738" lon="5.95466">
        <ele>363</ele>
        <time>2019-03-28T08:39:22Z</time>
      </trkpt>
      <trkpt lat="47.02745" lon="5.95487">
        <ele>365</ele>
        <time>2019-03-28T08:39:40Z</time>
      </trkpt>
      <trkpt lat="47.0275" lon="5.95499">
        <ele>366</ele>
        <time>2019-03-28T08:39:52Z</time>
      </trkpt>
      <trkpt lat="47.02755" lon="5.95515">
        <ele>368</ele>
        <time>2019-03-28T08:40:08Z</time>
      </trkpt>
      <trkpt lat="47.02763" lon="5.95526">
        <ele>369</ele>
        <time>2019-03-28T08:40:22Z</time>
      </trkpt>
      <trkpt lat="47.0277" lon="5.95538">
        <ele>371</ele>
        <time>2019-03-28T08:40:33Z</time>
      </trkpt>
      <trkpt lat="47.02777" lon="5.95574">
        <ele>377</ele>
        <time>2019-03-28T08:41:08Z</time>
      </trkpt>
      <trkpt lat="47.02778" lon="5.95588">
        <ele>380</ele>
        <time>2019-03-28T08:41:21Z</time>
      </trkpt>
      <trkpt lat="47.02782" lon="5.95605">
        <ele>381</ele>
        <time>2019-03-28T08:41:39Z</time>
      </trkpt>
      <trkpt lat="47.02781" lon="5.9562">
        <ele>383</ele>
        <time>2019-03-28T08:41:57Z</time>
      </trkpt>
      <trkpt lat="47.02792" lon="5.95627">
        <ele>384</ele>
        <time>2019-03-28T08:42:12Z</time>
      </trkpt>
      <trkpt lat="47.0281" lon="5.95649">
        <ele>389</ele>
        <time>2019-03-28T08:42:46Z</time>
      </trkpt>
      <trkpt lat="47.02823" lon="5.95673">
        <ele>393</ele>
        <time>2019-03-28T08:43:22Z</time>
      </trkpt>
      <trkpt lat="47.02827" lon="5.95686">
        <ele>395</ele>
        <time>2019-03-28T08:43:34Z</time>
      </trkpt>
      <trkpt lat="47.02829" lon="5.95702">
        <ele>396</ele>
        <time>2019-03-28T08:43:48Z</time>
      </trkpt>
      <trkpt lat="47.02843" lon="5.95731">
        <ele>401</ele>
        <time>2019-03-28T08:44:30Z</time>
      </trkpt>
      <trkpt lat="47.02851" lon="5.95737">
        <ele>401</ele>
        <time>2019-03-28T08:44:42Z</time>
      </trkpt>
      <trkpt lat="47.02857" lon="5.95755">
        <ele>404</ele>
        <time>2019-03-28T08:44:59Z</time>
      </trkpt>
      <trkpt lat="47.02865" lon="5.95786">
        <ele>410</ele>
        <time>2019-03-28T08:45:35Z</time>
      </trkpt>
      <trkpt lat="47.02867" lon="5.95802">
        <ele>414</ele>
        <time>2019-03-28T08:45:59Z</time>
      </trkpt>
      <trkpt lat="47.02871" lon="5.95819">
        <ele>420</ele>
        <time>2019-03-28T08:46:23Z</time>
      </trkpt>
      <trkpt lat="47.02876" lon="5.95829">
        <ele>421</ele>
        <time>2019-03-28T08:46:35Z</time>
      </trkpt>
      <trkpt lat="47.02884" lon="5.95837">
        <ele>421</ele>
        <time>2019-03-28T08:46:44Z</time>
      </trkpt>
      <trkpt lat="47.02895" lon="5.95864">
        <ele>427</ele>
        <time>2019-03-28T08:47:12Z</time>
      </trkpt>
      <trkpt lat="47.029" lon="5.95876">
        <ele>428</ele>
        <time>2019-03-28T08:47:25Z</time>
      </trkpt>
      <trkpt lat="47.02907" lon="5.95887">
        <ele>428</ele>
        <time>2019-03-28T08:47:38Z</time>
      </trkpt>
      <trkpt lat="47.02922" lon="5.95907">
        <ele>431</ele>
        <time>2019-03-28T08:47:59Z</time>
      </trkpt>
      <trkpt lat="47.02928" lon="5.95924">
        <ele>434</ele>
        <time>2019-03-28T08:48:15Z</time>
      </trkpt>
      <trkpt lat="47.02936" lon="5.95934">
        <ele>435</ele>
        <time>2019-03-28T08:48:24Z</time>
      </trkpt>
      <trkpt lat="47.02954" lon="5.95977">
        <ele>440</ele>
        <time>2019-03-28T08:49:04Z</time>
      </trkpt>
      <trkpt lat="47.02956" lon="5.95991">
        <ele>441</ele>
        <time>2019-03-28T08:49:14Z</time>
      </trkpt>
      <trkpt lat="47.02957" lon="5.96008">
        <ele>441</ele>
        <time>2019-03-28T08:49:28Z</time>
      </trkpt>
      <trkpt lat="47.02962" lon="5.96027">
        <ele>441</ele>
        <time>2019-03-28T08:49:45Z</time>
      </trkpt>
      <trkpt lat="47.02961" lon="5.9604">
        <ele>442</ele>
        <time>2019-03-28T08:49:57Z</time>
      </trkpt>
      <trkpt lat="47.0295" lon="5.96068">
        <ele>446</ele>
        <time>2019-03-28T08:50:34Z</time>
      </trkpt>
      <trkpt lat="47.02948" lon="5.96082">
        <ele>446</ele>
        <time>2019-03-28T08:50:52Z</time>
      </trkpt>
      <trkpt lat="47.02951" lon="5.96078">
        <ele>445</ele>
        <time>2019-03-28T08:55:03Z</time>
      </trkpt>
      <trkpt lat="47.02946" lon="5.96072">
        <ele>446</ele>
        <time>2019-03-28T08:55:15Z</time>
      </trkpt>
      <trkpt lat="47.0294" lon="5.9607">
        <ele>447</ele>
        <time>2019-03-28T08:55:21Z</time>
      </trkpt>
      <trkpt lat="47.02934" lon="5.96071">
        <ele>445</ele>
        <time>2019-03-28T08:55:26Z</time>
      </trkpt>
      <trkpt lat="47.0293" lon="5.96071">
        <ele>445</ele>
        <time>2019-03-28T08:55:30Z</time>
      </trkpt>
      <trkpt lat="47.0292" lon="5.96076">
        <ele>447</ele>
        <time>2019-03-28T08:55:40Z</time>
      </trkpt>
      <trkpt lat="47.02915" lon="5.9608">
        <ele>449</ele>
        <time>2019-03-28T08:55:47Z</time>
      </trkpt>
      <trkpt lat="47.02903" lon="5.96082">
        <ele>449</ele>
        <time>2019-03-28T08:55:59Z</time>
      </trkpt>
      <trkpt lat="47.02893" lon="5.96087">
        <ele>451</ele>
        <time>2019-03-28T08:56:14Z</time>
      </trkpt>
      <trkpt lat="47.02865" lon="5.96095">
        <ele>453</ele>
        <time>2019-03-28T08:56:41Z</time>
      </trkpt>
      <trkpt lat="47.0284" lon="5.96122">
        <ele>459</ele>
        <time>2019-03-28T08:57:27Z</time>
      </trkpt>
      <trkpt lat="47.02831" lon="5.96146">
        <ele>465</ele>
        <time>2019-03-28T08:58:09Z</time>
      </trkpt>
      <trkpt lat="47.02824" lon="5.96161">
        <ele>468</ele>
        <time>2019-03-28T08:58:28Z</time>
      </trkpt>
      <trkpt lat="47.02818" lon="5.96174">
        <ele>468</ele>
        <time>2019-03-28T08:58:43Z</time>
      </trkpt>
      <trkpt lat="47.02803" lon="5.96193">
        <ele>470</ele>
        <time>2019-03-28T08:59:00Z</time>
      </trkpt>
      <trkpt lat="47.02796" lon="5.96202">
        <ele>470</ele>
        <time>2019-03-28T08:59:07Z</time>
      </trkpt>
      <trkpt lat="47.02772" lon="5.96226">
        <ele>473</ele>
        <time>2019-03-28T08:59:40Z</time>
      </trkpt>
      <trkpt lat="47.02765" lon="5.96235">
        <ele>473</ele>
        <time>2019-03-28T08:59:48Z</time>
      </trkpt>
      <trkpt lat="47.02759" lon="5.96246">
        <ele>476</ele>
        <time>2019-03-28T09:00:03Z</time>
      </trkpt>
      <trkpt lat="47.02752" lon="5.96287">
        <ele>480</ele>
        <time>2019-03-28T09:00:35Z</time>
      </trkpt>
      <trkpt lat="47.02748" lon="5.963">
        <ele>480</ele>
        <time>2019-03-28T09:00:44Z</time>
      </trkpt>
      <trkpt lat="47.02739" lon="5.9631">
        <ele>479</ele>
        <time>2019-03-28T09:00:56Z</time>
      </trkpt>
      <trkpt lat="47.02723" lon="5.96309">
        <ele>480</ele>
        <time>2019-03-28T09:01:12Z</time>
      </trkpt>
      <trkpt lat="47.02714" lon="5.96307">
        <ele>480</ele>
        <time>2019-03-28T09:01:20Z</time>
      </trkpt>
      <trkpt lat="47.02704" lon="5.96312">
        <ele>480</ele>
        <time>2019-03-28T09:01:34Z</time>
      </trkpt>
      <trkpt lat="47.02688" lon="5.96304">
        <ele>480</ele>
        <time>2019-03-28T09:01:54Z</time>
      </trkpt>
      <trkpt lat="47.02679" lon="5.96286">
        <ele>481</ele>
        <time>2019-03-28T09:02:05Z</time>
      </trkpt>
      <trkpt lat="47.02682" lon="5.96269">
        <ele>481</ele>
        <time>2019-03-28T09:02:19Z</time>
      </trkpt>
      <trkpt lat="47.02681" lon="5.96255">
        <ele>481</ele>
        <time>2019-03-28T09:02:25Z</time>
      </trkpt>
      <trkpt lat="47.02676" lon="5.96243">
        <ele>481</ele>
        <time>2019-03-28T09:02:33Z</time>
      </trkpt>
      <trkpt lat="47.02656" lon="5.96229">
        <ele>481</ele>
        <time>2019-03-28T09:02:55Z</time>
      </trkpt>
      <trkpt lat="47.02656" lon="5.96209">
        <ele>481</ele>
        <time>2019-03-28T09:03:09Z</time>
      </trkpt>
      <trkpt lat="47.02643" lon="5.96206">
        <ele>482</ele>
        <time>2019-03-28T09:03:20Z</time>
      </trkpt>
      <trkpt lat="47.02634" lon="5.96204">
        <ele>481</ele>
        <time>2019-03-28T09:03:27Z</time>
      </trkpt>
      <trkpt lat="47.02624" lon="5.96211">
        <ele>482</ele>
        <time>2019-03-28T09:03:38Z</time>
      </trkpt>
      <trkpt lat="47.02603" lon="5.96193">
        <ele>481</ele>
        <time>2019-03-28T09:04:05Z</time>
      </trkpt>
      <trkpt lat="47.02595" lon="5.96183">
        <ele>481</ele>
        <time>2019-03-28T09:04:11Z</time>
      </trkpt>
      <trkpt lat="47.02587" lon="5.96176">
        <ele>481</ele>
        <time>2019-03-28T09:04:17Z</time>
      </trkpt>
      <trkpt lat="47.02562" lon="5.96171">
        <ele>485</ele>
        <time>2019-03-28T09:04:43Z</time>
      </trkpt>
      <trkpt lat="47.02554" lon="5.9616">
        <ele>485</ele>
        <time>2019-03-28T09:04:58Z</time>
      </trkpt>
      <trkpt lat="47.02541" lon="5.96153">
        <ele>483</ele>
        <time>2019-03-28T09:05:14Z</time>
      </trkpt>
      <trkpt lat="47.0253" lon="5.96146">
        <ele>482</ele>
        <time>2019-03-28T09:05:25Z</time>
      </trkpt>
      <trkpt lat="47.0252" lon="5.96141">
        <ele>482</ele>
        <time>2019-03-28T09:05:30Z</time>
      </trkpt>
      <trkpt lat="47.02512" lon="5.9614">
        <ele>481</ele>
        <time>2019-03-28T09:05:36Z</time>
      </trkpt>
      <trkpt lat="47.02503" lon="5.96141">
        <ele>481</ele>
        <time>2019-03-28T09:05:44Z</time>
      </trkpt>
      <trkpt lat="47.0249" lon="5.96136">
        <ele>481</ele>
        <time>2019-03-28T09:06:04Z</time>
      </trkpt>
      <trkpt lat="47.02481" lon="5.96133">
        <ele>480</ele>
        <time>2019-03-28T09:06:11Z</time>
      </trkpt>
      <trkpt lat="47.02471" lon="5.96132">
        <ele>481</ele>
        <time>2019-03-28T09:06:23Z</time>
      </trkpt>
      <trkpt lat="47.02462" lon="5.96122">
        <ele>481</ele>
        <time>2019-03-28T09:06:30Z</time>
      </trkpt>
      <trkpt lat="47.02453" lon="5.9612">
        <ele>480</ele>
        <time>2019-03-28T09:06:35Z</time>
      </trkpt>
      <trkpt lat="47.02435" lon="5.96114">
        <ele>483</ele>
        <time>2019-03-28T09:06:54Z</time>
      </trkpt>
      <trkpt lat="47.02428" lon="5.96106">
        <ele>482</ele>
        <time>2019-03-28T09:07:01Z</time>
      </trkpt>
      <trkpt lat="47.02421" lon="5.96092">
        <ele>481</ele>
        <time>2019-03-28T09:07:14Z</time>
      </trkpt>
      <trkpt lat="47.02413" lon="5.96074">
        <ele>479</ele>
        <time>2019-03-28T09:07:28Z</time>
      </trkpt>
      <trkpt lat="47.02405" lon="5.96066">
        <ele>478</ele>
        <time>2019-03-28T09:07:35Z</time>
      </trkpt>
      <trkpt lat="47.02398" lon="5.96056">
        <ele>479</ele>
        <time>2019-03-28T09:07:41Z</time>
      </trkpt>
      <trkpt lat="47.02389" lon="5.96047">
        <ele>479</ele>
        <time>2019-03-28T09:07:50Z</time>
      </trkpt>
      <trkpt lat="47.02383" lon="5.96038">
        <ele>478</ele>
        <time>2019-03-28T09:07:59Z</time>
      </trkpt>
      <trkpt lat="47.02378" lon="5.96025">
        <ele>477</ele>
        <time>2019-03-28T09:08:06Z</time>
      </trkpt>
      <trkpt lat="47.02372" lon="5.95996">
        <ele>473</ele>
        <time>2019-03-28T09:08:27Z</time>
      </trkpt>
      <trkpt lat="47.02357" lon="5.95977">
        <ele>474</ele>
        <time>2019-03-28T09:08:44Z</time>
      </trkpt>
      <trkpt lat="47.02335" lon="5.95952">
        <ele>471</ele>
        <time>2019-03-28T09:09:16Z</time>
      </trkpt>
      <trkpt lat="47.02327" lon="5.95945">
        <ele>471</ele>
        <time>2019-03-28T09:09:24Z</time>
      </trkpt>
      <trkpt lat="47.02319" lon="5.95936">
        <ele>471</ele>
        <time>2019-03-28T09:09:33Z</time>
      </trkpt>
      <trkpt lat="47.0231" lon="5.95928">
        <ele>470</ele>
        <time>2019-03-28T09:09:41Z</time>
      </trkpt>
      <trkpt lat="47.02302" lon="5.95927">
        <ele>469</ele>
        <time>2019-03-28T09:09:48Z</time>
      </trkpt>
      <trkpt lat="47.02294" lon="5.95934">
        <ele>470</ele>
        <time>2019-03-28T09:09:58Z</time>
      </trkpt>
      <trkpt lat="47.02302" lon="5.95948">
        <ele>470</ele>
        <time>2019-03-28T09:10:13Z</time>
      </trkpt>
      <trkpt lat="47.02308" lon="5.95956">
        <ele>470</ele>
        <time>2019-03-28T09:10:20Z</time>
      </trkpt>
      <trkpt lat="47.02303" lon="5.95967">
        <ele>470</ele>
        <time>2019-03-28T09:10:29Z</time>
      </trkpt>
      <trkpt lat="47.02296" lon="5.95981">
        <ele>469</ele>
        <time>2019-03-28T09:10:41Z</time>
      </trkpt>
      <trkpt lat="47.02295" lon="5.95997">
        <ele>471</ele>
        <time>2019-03-28T09:10:55Z</time>
      </trkpt>
      <trkpt lat="47.02289" lon="5.96011">
        <ele>472</ele>
        <time>2019-03-28T09:11:08Z</time>
      </trkpt>
      <trkpt lat="47.02281" lon="5.96019">
        <ele>472</ele>
        <time>2019-03-28T09:11:16Z</time>
      </trkpt>
      <trkpt lat="47.02256" lon="5.96028">
        <ele>473</ele>
        <time>2019-03-28T09:11:43Z</time>
      </trkpt>
      <trkpt lat="47.02252" lon="5.96042">
        <ele>474</ele>
        <time>2019-03-28T09:11:57Z</time>
      </trkpt>
      <trkpt lat="47.02242" lon="5.96052">
        <ele>475</ele>
        <time>2019-03-28T09:12:11Z</time>
      </trkpt>
      <trkpt lat="47.02233" lon="5.96059">
        <ele>476</ele>
        <time>2019-03-28T09:12:20Z</time>
      </trkpt>
      <trkpt lat="47.02224" lon="5.96062">
        <ele>477</ele>
        <time>2019-03-28T09:12:29Z</time>
      </trkpt>
      <trkpt lat="47.02201" lon="5.96085">
        <ele>480</ele>
        <time>2019-03-28T09:12:56Z</time>
      </trkpt>
      <trkpt lat="47.02192" lon="5.9609">
        <ele>481</ele>
        <time>2019-03-28T09:13:03Z</time>
      </trkpt>
      <trkpt lat="47.02185" lon="5.96098">
        <ele>482</ele>
        <time>2019-03-28T09:13:10Z</time>
      </trkpt>
      <trkpt lat="47.02178" lon="5.9611">
        <ele>483</ele>
        <time>2019-03-28T09:13:22Z</time>
      </trkpt>
      <trkpt lat="47.02162" lon="5.96121">
        <ele>487</ele>
        <time>2019-03-28T09:13:43Z</time>
      </trkpt>
      <trkpt lat="47.02151" lon="5.96125">
        <ele>487</ele>
        <time>2019-03-28T09:13:51Z</time>
      </trkpt>
      <trkpt lat="47.02142" lon="5.96124">
        <ele>488</ele>
        <time>2019-03-28T09:13:58Z</time>
      </trkpt>
      <trkpt lat="47.02113" lon="5.9613">
        <ele>490</ele>
        <time>2019-03-28T09:14:31Z</time>
      </trkpt>
      <trkpt lat="47.02104" lon="5.96126">
        <ele>492</ele>
        <time>2019-03-28T09:14:38Z</time>
      </trkpt>
      <trkpt lat="47.02096" lon="5.96122">
        <ele>493</ele>
        <time>2019-03-28T09:14:45Z</time>
      </trkpt>
      <trkpt lat="47.02086" lon="5.96123">
        <ele>493</ele>
        <time>2019-03-28T09:14:53Z</time>
      </trkpt>
      <trkpt lat="47.02078" lon="5.9613">
        <ele>493</ele>
        <time>2019-03-28T09:15:07Z</time>
      </trkpt>
      <trkpt lat="47.02066" lon="5.96135">
        <ele>494</ele>
        <time>2019-03-28T09:15:23Z</time>
      </trkpt>
      <trkpt lat="47.02045" lon="5.96141">
        <ele>493</ele>
        <time>2019-03-28T09:15:39Z</time>
      </trkpt>
      <trkpt lat="47.02031" lon="5.96143">
        <ele>494</ele>
        <time>2019-03-28T09:15:57Z</time>
      </trkpt>
      <trkpt lat="47.01995" lon="5.96127">
        <ele>498</ele>
        <time>2019-03-28T09:16:23Z</time>
      </trkpt>
      <trkpt lat="47.01987" lon="5.9612">
        <ele>498</ele>
        <time>2019-03-28T09:16:37Z</time>
      </trkpt>
      <trkpt lat="47.01959" lon="5.96113">
        <ele>498</ele>
        <time>2019-03-28T09:17:00Z</time>
      </trkpt>
      <trkpt lat="47.01942" lon="5.96115">
        <ele>498</ele>
        <time>2019-03-28T09:17:16Z</time>
      </trkpt>
      <trkpt lat="47.01935" lon="5.96118">
        <ele>499</ele>
        <time>2019-03-28T09:17:25Z</time>
      </trkpt>
      <trkpt lat="47.01925" lon="5.96114">
        <ele>499</ele>
        <time>2019-03-28T09:17:35Z</time>
      </trkpt>
      <trkpt lat="47.01916" lon="5.96108">
        <ele>497</ele>
        <time>2019-03-28T09:17:44Z</time>
      </trkpt>
      <trkpt lat="47.01906" lon="5.96104">
        <ele>497</ele>
        <time>2019-03-28T09:17:51Z</time>
      </trkpt>
      <trkpt lat="47.01898" lon="5.96101">
        <ele>498</ele>
        <time>2019-03-28T09:17:58Z</time>
      </trkpt>
      <trkpt lat="47.01879" lon="5.96098">
        <ele>498</ele>
        <time>2019-03-28T09:18:15Z</time>
      </trkpt>
      <trkpt lat="47.0187" lon="5.96104">
        <ele>498</ele>
        <time>2019-03-28T09:18:23Z</time>
      </trkpt>
      <trkpt lat="47.01854" lon="5.96117">
        <ele>497</ele>
        <time>2019-03-28T09:18:43Z</time>
      </trkpt>
      <trkpt lat="47.01844" lon="5.96118">
        <ele>497</ele>
        <time>2019-03-28T09:18:53Z</time>
      </trkpt>
      <trkpt lat="47.01833" lon="5.96114">
        <ele>498</ele>
        <time>2019-03-28T09:19:04Z</time>
      </trkpt>
      <trkpt lat="47.01823" lon="5.96112">
        <ele>498</ele>
        <time>2019-03-28T09:19:11Z</time>
      </trkpt>
      <trkpt lat="47.01815" lon="5.96104">
        <ele>498</ele>
        <time>2019-03-28T09:19:18Z</time>
      </trkpt>
      <trkpt lat="47.01806" lon="5.96102">
        <ele>500</ele>
        <time>2019-03-28T09:19:27Z</time>
      </trkpt>
      <trkpt lat="47.0178" lon="5.96095">
        <ele>501</ele>
        <time>2019-03-28T09:19:56Z</time>
      </trkpt>
      <trkpt lat="47.01771" lon="5.96085">
        <ele>503</ele>
        <time>2019-03-28T09:20:09Z</time>
      </trkpt>
      <trkpt lat="47.01761" lon="5.96077">
        <ele>503</ele>
        <time>2019-03-28T09:20:26Z</time>
      </trkpt>
      <trkpt lat="47.01753" lon="5.96061">
        <ele>503</ele>
        <time>2019-03-28T09:20:40Z</time>
      </trkpt>
      <trkpt lat="47.01746" lon="5.96054">
        <ele>504</ele>
        <time>2019-03-28T09:20:46Z</time>
      </trkpt>
      <trkpt lat="47.01728" lon="5.96044">
        <ele>504</ele>
        <time>2019-03-28T09:20:59Z</time>
      </trkpt>
      <trkpt lat="47.01717" lon="5.96042">
        <ele>505</ele>
        <time>2019-03-28T09:21:09Z</time>
      </trkpt>
      <trkpt lat="47.01707" lon="5.96041">
        <ele>504</ele>
        <time>2019-03-28T09:21:18Z</time>
      </trkpt>
      <trkpt lat="47.01698" lon="5.96041">
        <ele>505</ele>
        <time>2019-03-28T09:21:23Z</time>
      </trkpt>
      <trkpt lat="47.01675" lon="5.96022">
        <ele>504</ele>
        <time>2019-03-28T09:21:48Z</time>
      </trkpt>
      <trkpt lat="47.01665" lon="5.96016">
        <ele>505</ele>
        <time>2019-03-28T09:21:57Z</time>
      </trkpt>
      <trkpt lat="47.01656" lon="5.96011">
        <ele>505</ele>
        <time>2019-03-28T09:22:03Z</time>
      </trkpt>
      <trkpt lat="47.01647" lon="5.96007">
        <ele>506</ele>
        <time>2019-03-28T09:22:10Z</time>
      </trkpt>
      <trkpt lat="47.01637" lon="5.96002">
        <ele>505</ele>
        <time>2019-03-28T09:22:21Z</time>
      </trkpt>
      <trkpt lat="47.01615" lon="5.95995">
        <ele>506</ele>
        <time>2019-03-28T09:22:46Z</time>
      </trkpt>
      <trkpt lat="47.01605" lon="5.95996">
        <ele>506</ele>
        <time>2019-03-28T09:22:54Z</time>
      </trkpt>
      <trkpt lat="47.01597" lon="5.96003">
        <ele>505</ele>
        <time>2019-03-28T09:23:02Z</time>
      </trkpt>
      <trkpt lat="47.01591" lon="5.96013">
        <ele>504</ele>
        <time>2019-03-28T09:23:10Z</time>
      </trkpt>
      <trkpt lat="47.01578" lon="5.96027">
        <ele>501</ele>
        <time>2019-03-28T09:23:24Z</time>
      </trkpt>
      <trkpt lat="47.0157" lon="5.96033">
        <ele>500</ele>
        <time>2019-03-28T09:23:31Z</time>
      </trkpt>
      <trkpt lat="47.01558" lon="5.96042">
        <ele>500</ele>
        <time>2019-03-28T09:23:47Z</time>
      </trkpt>
      <trkpt lat="47.01541" lon="5.96049">
        <ele>499</ele>
        <time>2019-03-28T09:24:04Z</time>
      </trkpt>
      <trkpt lat="47.01531" lon="5.96052">
        <ele>497</ele>
        <time>2019-03-28T09:24:17Z</time>
      </trkpt>
      <trkpt lat="47.0152" lon="5.96056">
        <ele>498</ele>
        <time>2019-03-28T09:24:32Z</time>
      </trkpt>
      <trkpt lat="47.01484" lon="5.96051">
        <ele>493</ele>
        <time>2019-03-28T09:25:07Z</time>
      </trkpt>
      <trkpt lat="47.01467" lon="5.96064">
        <ele>491</ele>
        <time>2019-03-28T09:25:27Z</time>
      </trkpt>
      <trkpt lat="47.01457" lon="5.96065">
        <ele>489</ele>
        <time>2019-03-28T09:25:34Z</time>
      </trkpt>
      <trkpt lat="47.0145" lon="5.96073">
        <ele>487</ele>
        <time>2019-03-28T09:25:43Z</time>
      </trkpt>
      <trkpt lat="47.01422" lon="5.96074">
        <ele>484</ele>
        <time>2019-03-28T09:26:13Z</time>
      </trkpt>
      <trkpt lat="47.01422" lon="5.96085">
        <ele>473</ele>
        <time>2019-03-28T09:27:53Z</time>
      </trkpt>
      <trkpt lat="47.0143" lon="5.96084">
        <ele>473</ele>
        <time>2019-03-28T09:30:14Z</time>
      </trkpt>
      <trkpt lat="47.0143" lon="5.96082">
        <ele>470</ele>
        <time>2019-03-28T09:33:50Z</time>
      </trkpt>
      <trkpt lat="47.01424" lon="5.9608">
        <ele>470</ele>
        <time>2019-03-28T09:35:08Z</time>
      </trkpt>
      <trkpt lat="47.01418" lon="5.96086">
        <ele>468</ele>
        <time>2019-03-28T09:35:26Z</time>
      </trkpt>
      <trkpt lat="47.01415" lon="5.96092">
        <ele>468</ele>
        <time>2019-03-28T09:35:37Z</time>
      </trkpt>
      <trkpt lat="47.0141" lon="5.96097">
        <ele>468</ele>
        <time>2019-03-28T09:35:55Z</time>
      </trkpt>
      <trkpt lat="47.01418" lon="5.96104">
        <ele>471</ele>
        <time>2019-03-28T09:36:28Z</time>
      </trkpt>
      <trkpt lat="47.0142" lon="5.96113">
        <ele>470</ele>
        <time>2019-03-28T09:36:37Z</time>
      </trkpt>
      <trkpt lat="47.01423" lon="5.9612">
        <ele>471</ele>
        <time>2019-03-28T09:36:43Z</time>
      </trkpt>
      <trkpt lat="47.01424" lon="5.96127">
        <ele>471</ele>
        <time>2019-03-28T09:36:49Z</time>
      </trkpt>
      <trkpt lat="47.0143" lon="5.96145">
        <ele>470</ele>
        <time>2019-03-28T09:37:04Z</time>
      </trkpt>
      <trkpt lat="47.01431" lon="5.96152">
        <ele>472</ele>
        <time>2019-03-28T09:37:09Z</time>
      </trkpt>
      <trkpt lat="47.01433" lon="5.96158">
        <ele>472</ele>
        <time>2019-03-28T09:37:13Z</time>
      </trkpt>
      <trkpt lat="47.01435" lon="5.96165">
        <ele>472</ele>
        <time>2019-03-28T09:37:18Z</time>
      </trkpt>
      <trkpt lat="47.01439" lon="5.96177">
        <ele>472</ele>
        <time>2019-03-28T09:37:28Z</time>
      </trkpt>
      <trkpt lat="47.0144" lon="5.96184">
        <ele>472</ele>
        <time>2019-03-28T09:37:32Z</time>
      </trkpt>
      <trkpt lat="47.01444" lon="5.9619">
        <ele>472</ele>
        <time>2019-03-28T09:37:37Z</time>
      </trkpt>
      <trkpt lat="47.01446" lon="5.96204">
        <ele>472</ele>
        <time>2019-03-28T09:37:46Z</time>
      </trkpt>
      <trkpt lat="47.01451" lon="5.96218">
        <ele>472</ele>
        <time>2019-03-28T09:37:56Z</time>
      </trkpt>
      <trkpt lat="47.01453" lon="5.96224">
        <ele>472</ele>
        <time>2019-03-28T09:38:00Z</time>
      </trkpt>
      <trkpt lat="47.01455" lon="5.96231">
        <ele>472</ele>
        <time>2019-03-28T09:38:04Z</time>
      </trkpt>
      <trkpt lat="47.01457" lon="5.96238">
        <ele>472</ele>
        <time>2019-03-28T09:38:09Z</time>
      </trkpt>
      <trkpt lat="47.01459" lon="5.96246">
        <ele>472</ele>
        <time>2019-03-28T09:38:13Z</time>
      </trkpt>
      <trkpt lat="47.0146" lon="5.96253">
        <ele>472</ele>
        <time>2019-03-28T09:38:17Z</time>
      </trkpt>
      <trkpt lat="47.01462" lon="5.96259">
        <ele>472</ele>
        <time>2019-03-28T09:38:21Z</time>
      </trkpt>
      <trkpt lat="47.01465" lon="5.96272">
        <ele>472</ele>
        <time>2019-03-28T09:38:29Z</time>
      </trkpt>
      <trkpt lat="47.01466" lon="5.96286">
        <ele>472</ele>
        <time>2019-03-28T09:38:36Z</time>
      </trkpt>
      <trkpt lat="47.01467" lon="5.96294">
        <ele>472</ele>
        <time>2019-03-28T09:38:41Z</time>
      </trkpt>
      <trkpt lat="47.01465" lon="5.96301">
        <ele>472</ele>
        <time>2019-03-28T09:38:46Z</time>
      </trkpt>
      <trkpt lat="47.01463" lon="5.96308">
        <ele>472</ele>
        <time>2019-03-28T09:38:50Z</time>
      </trkpt>
      <trkpt lat="47.0146" lon="5.96314">
        <ele>470</ele>
        <time>2019-03-28T09:38:55Z</time>
      </trkpt>
      <trkpt lat="47.01452" lon="5.96324">
        <ele>468</ele>
        <time>2019-03-28T09:39:03Z</time>
      </trkpt>
      <trkpt lat="47.01446" lon="5.9633">
        <ele>468</ele>
        <time>2019-03-28T09:39:12Z</time>
      </trkpt>
      <trkpt lat="47.01441" lon="5.96331">
        <ele>467</ele>
        <time>2019-03-28T09:39:16Z</time>
      </trkpt>
      <trkpt lat="47.01432" lon="5.96329">
        <ele>467</ele>
        <time>2019-03-28T09:39:22Z</time>
      </trkpt>
      <trkpt lat="47.01413" lon="5.96336">
        <ele>465</ele>
        <time>2019-03-28T09:39:40Z</time>
      </trkpt>
      <trkpt lat="47.01408" lon="5.96335">
        <ele>465</ele>
        <time>2019-03-28T09:39:44Z</time>
      </trkpt>
      <trkpt lat="47.01402" lon="5.96335">
        <ele>465</ele>
        <time>2019-03-28T09:39:49Z</time>
      </trkpt>
      <trkpt lat="47.01397" lon="5.96333">
        <ele>465</ele>
        <time>2019-03-28T09:39:52Z</time>
      </trkpt>
      <trkpt lat="47.01387" lon="5.96332">
        <ele>464</ele>
        <time>2019-03-28T09:40:00Z</time>
      </trkpt>
      <trkpt lat="47.01382" lon="5.96332">
        <ele>464</ele>
        <time>2019-03-28T09:40:04Z</time>
      </trkpt>
      <trkpt lat="47.0137" lon="5.96332">
        <ele>464</ele>
        <time>2019-03-28T09:40:15Z</time>
      </trkpt>
      <trkpt lat="47.0136" lon="5.96331">
        <ele>464</ele>
        <time>2019-03-28T09:40:21Z</time>
      </trkpt>
      <trkpt lat="47.01355" lon="5.96331">
        <ele>464</ele>
        <time>2019-03-28T09:40:24Z</time>
      </trkpt>
      <trkpt lat="47.0135" lon="5.9633">
        <ele>463</ele>
        <time>2019-03-28T09:40:28Z</time>
      </trkpt>
      <trkpt lat="47.01344" lon="5.96327">
        <ele>464</ele>
        <time>2019-03-28T09:40:31Z</time>
      </trkpt>
      <trkpt lat="47.0134" lon="5.96327">
        <ele>464</ele>
        <time>2019-03-28T09:40:35Z</time>
      </trkpt>
      <trkpt lat="47.0133" lon="5.96327">
        <ele>463</ele>
        <time>2019-03-28T09:40:50Z</time>
      </trkpt>
      <trkpt lat="47.01326" lon="5.96328">
        <ele>463</ele>
        <time>2019-03-28T09:40:54Z</time>
      </trkpt>
      <trkpt lat="47.01289" lon="5.96331">
        <ele>461</ele>
        <time>2019-03-28T09:41:22Z</time>
      </trkpt>
      <trkpt lat="47.01279" lon="5.96333">
        <ele>462</ele>
        <time>2019-03-28T09:41:30Z</time>
      </trkpt>
      <trkpt lat="47.0127" lon="5.96331">
        <ele>462</ele>
        <time>2019-03-28T09:41:36Z</time>
      </trkpt>
      <trkpt lat="47.01261" lon="5.96329">
        <ele>463</ele>
        <time>2019-03-28T09:41:43Z</time>
      </trkpt>
      <trkpt lat="47.01252" lon="5.96334">
        <ele>462</ele>
        <time>2019-03-28T09:41:53Z</time>
      </trkpt>
      <trkpt lat="47.01224" lon="5.9634">
        <ele>462</ele>
        <time>2019-03-28T09:42:16Z</time>
      </trkpt>
      <trkpt lat="47.01176" lon="5.9636">
        <ele>458</ele>
        <time>2019-03-28T09:42:51Z</time>
      </trkpt>
      <trkpt lat="47.01159" lon="5.9637">
        <ele>457</ele>
        <time>2019-03-28T09:43:03Z</time>
      </trkpt>
      <trkpt lat="47.01123" lon="5.9639">
        <ele>452</ele>
        <time>2019-03-28T09:43:35Z</time>
      </trkpt>
      <trkpt lat="47.01114" lon="5.96394">
        <ele>452</ele>
        <time>2019-03-28T09:43:41Z</time>
      </trkpt>
      <trkpt lat="47.01096" lon="5.96405">
        <ele>450</ele>
        <time>2019-03-28T09:43:53Z</time>
      </trkpt>
      <trkpt lat="47.01093" lon="5.96419">
        <ele>449</ele>
        <time>2019-03-28T09:44:00Z</time>
      </trkpt>
      <trkpt lat="47.01091" lon="5.96434">
        <ele>449</ele>
        <time>2019-03-28T09:44:07Z</time>
      </trkpt>
      <trkpt lat="47.01093" lon="5.96446">
        <ele>448</ele>
        <time>2019-03-28T09:44:14Z</time>
      </trkpt>
      <trkpt lat="47.01099" lon="5.96459">
        <ele>447</ele>
        <time>2019-03-28T09:44:22Z</time>
      </trkpt>
      <trkpt lat="47.01116" lon="5.96494">
        <ele>448</ele>
        <time>2019-03-28T09:44:43Z</time>
      </trkpt>
      <trkpt lat="47.01129" lon="5.96517">
        <ele>450</ele>
        <time>2019-03-28T09:45:00Z</time>
      </trkpt>
      <trkpt lat="47.01131" lon="5.96523">
        <ele>450</ele>
        <time>2019-03-28T09:45:04Z</time>
      </trkpt>
      <trkpt lat="47.01135" lon="5.96538">
        <ele>451</ele>
        <time>2019-03-28T09:45:12Z</time>
      </trkpt>
      <trkpt lat="47.01137" lon="5.96544">
        <ele>452</ele>
        <time>2019-03-28T09:45:15Z</time>
      </trkpt>
      <trkpt lat="47.01139" lon="5.96551">
        <ele>451</ele>
        <time>2019-03-28T09:45:19Z</time>
      </trkpt>
      <trkpt lat="47.01142" lon="5.96558">
        <ele>452</ele>
        <time>2019-03-28T09:45:23Z</time>
      </trkpt>
      <trkpt lat="47.01166" lon="5.96613">
        <ele>456</ele>
        <time>2019-03-28T09:45:57Z</time>
      </trkpt>
      <trkpt lat="47.01169" lon="5.9662">
        <ele>457</ele>
        <time>2019-03-28T09:46:01Z</time>
      </trkpt>
      <trkpt lat="47.01178" lon="5.96639">
        <ele>458</ele>
        <time>2019-03-28T09:46:13Z</time>
      </trkpt>
      <trkpt lat="47.01182" lon="5.96646">
        <ele>458</ele>
        <time>2019-03-28T09:46:17Z</time>
      </trkpt>
      <trkpt lat="47.0119" lon="5.96663">
        <ele>459</ele>
        <time>2019-03-28T09:46:29Z</time>
      </trkpt>
      <trkpt lat="47.01193" lon="5.9667">
        <ele>459</ele>
        <time>2019-03-28T09:46:34Z</time>
      </trkpt>
      <trkpt lat="47.01197" lon="5.96675">
        <ele>459</ele>
        <time>2019-03-28T09:46:39Z</time>
      </trkpt>
      <trkpt lat="47.01201" lon="5.9668">
        <ele>459</ele>
        <time>2019-03-28T09:46:43Z</time>
      </trkpt>
      <trkpt lat="47.01212" lon="5.96703">
        <ele>459</ele>
        <time>2019-03-28T09:47:00Z</time>
      </trkpt>
      <trkpt lat="47.0122" lon="5.96712">
        <ele>459</ele>
        <time>2019-03-28T09:47:08Z</time>
      </trkpt>
      <trkpt lat="47.01224" lon="5.96718">
        <ele>460</ele>
        <time>2019-03-28T09:47:13Z</time>
      </trkpt>
      <trkpt lat="47.01239" lon="5.96747">
        <ele>460</ele>
        <time>2019-03-28T09:47:32Z</time>
      </trkpt>
      <trkpt lat="47.01241" lon="5.96753">
        <ele>461</ele>
        <time>2019-03-28T09:47:35Z</time>
      </trkpt>
      <trkpt lat="47.01243" lon="5.96759">
        <ele>461</ele>
        <time>2019-03-28T09:47:38Z</time>
      </trkpt>
      <trkpt lat="47.01245" lon="5.96766">
        <ele>461</ele>
        <time>2019-03-28T09:47:42Z</time>
      </trkpt>
      <trkpt lat="47.01257" lon="5.96799">
        <ele>461</ele>
        <time>2019-03-28T09:48:03Z</time>
      </trkpt>
      <trkpt lat="47.01261" lon="5.96805">
        <ele>461</ele>
        <time>2019-03-28T09:48:07Z</time>
      </trkpt>
      <trkpt lat="47.01264" lon="5.96812">
        <ele>461</ele>
        <time>2019-03-28T09:48:11Z</time>
      </trkpt>
      <trkpt lat="47.01268" lon="5.96815">
        <ele>461</ele>
        <time>2019-03-28T09:48:15Z</time>
      </trkpt>
      <trkpt lat="47.01272" lon="5.96828">
        <ele>460</ele>
        <time>2019-03-28T09:48:23Z</time>
      </trkpt>
      <trkpt lat="47.01275" lon="5.96834">
        <ele>460</ele>
        <time>2019-03-28T09:48:27Z</time>
      </trkpt>
      <trkpt lat="47.01281" lon="5.96841">
        <ele>461</ele>
        <time>2019-03-28T09:48:34Z</time>
      </trkpt>
      <trkpt lat="47.01284" lon="5.96848">
        <ele>461</ele>
        <time>2019-03-28T09:48:38Z</time>
      </trkpt>
      <trkpt lat="47.01286" lon="5.96854">
        <ele>460</ele>
        <time>2019-03-28T09:48:41Z</time>
      </trkpt>
      <trkpt lat="47.01289" lon="5.96861">
        <ele>460</ele>
        <time>2019-03-28T09:48:45Z</time>
      </trkpt>
      <trkpt lat="47.01291" lon="5.96867">
        <ele>461</ele>
        <time>2019-03-28T09:48:49Z</time>
      </trkpt>
      <trkpt lat="47.01297" lon="5.9688">
        <ele>461</ele>
        <time>2019-03-28T09:48:57Z</time>
      </trkpt>
      <trkpt lat="47.01299" lon="5.96887">
        <ele>462</ele>
        <time>2019-03-28T09:49:01Z</time>
      </trkpt>
      <trkpt lat="47.013" lon="5.96894">
        <ele>461</ele>
        <time>2019-03-28T09:49:05Z</time>
      </trkpt>
      <trkpt lat="47.01301" lon="5.96902">
        <ele>462</ele>
        <time>2019-03-28T09:49:09Z</time>
      </trkpt>
      <trkpt lat="47.01299" lon="5.96909">
        <ele>462</ele>
        <time>2019-03-28T09:49:12Z</time>
      </trkpt>
      <trkpt lat="47.01297" lon="5.96915">
        <ele>462</ele>
        <time>2019-03-28T09:49:15Z</time>
      </trkpt>
      <trkpt lat="47.01292" lon="5.96929">
        <ele>460</ele>
        <time>2019-03-28T09:49:22Z</time>
      </trkpt>
      <trkpt lat="47.01286" lon="5.96942">
        <ele>458</ele>
        <time>2019-03-28T09:49:31Z</time>
      </trkpt>
      <trkpt lat="47.01282" lon="5.96957">
        <ele>458</ele>
        <time>2019-03-28T09:49:39Z</time>
      </trkpt>
      <trkpt lat="47.01281" lon="5.96965">
        <ele>458</ele>
        <time>2019-03-28T09:49:44Z</time>
      </trkpt>
      <trkpt lat="47.01283" lon="5.96979">
        <ele>457</ele>
        <time>2019-03-28T09:49:51Z</time>
      </trkpt>
      <trkpt lat="47.01287" lon="5.96993">
        <ele>457</ele>
        <time>2019-03-28T09:49:59Z</time>
      </trkpt>
      <trkpt lat="47.0129" lon="5.96999">
        <ele>457</ele>
        <time>2019-03-28T09:50:03Z</time>
      </trkpt>
      <trkpt lat="47.01297" lon="5.9701">
        <ele>458</ele>
        <time>2019-03-28T09:50:10Z</time>
      </trkpt>
      <trkpt lat="47.013" lon="5.97015">
        <ele>458</ele>
        <time>2019-03-28T09:50:13Z</time>
      </trkpt>
      <trkpt lat="47.01309" lon="5.97025">
        <ele>458</ele>
        <time>2019-03-28T09:50:22Z</time>
      </trkpt>
      <trkpt lat="47.0132" lon="5.97029">
        <ele>460</ele>
        <time>2019-03-28T09:50:30Z</time>
      </trkpt>
      <trkpt lat="47.01325" lon="5.97031">
        <ele>460</ele>
        <time>2019-03-28T09:50:34Z</time>
      </trkpt>
      <trkpt lat="47.01329" lon="5.97034">
        <ele>460</ele>
        <time>2019-03-28T09:50:38Z</time>
      </trkpt>
      <trkpt lat="47.01334" lon="5.97036">
        <ele>460</ele>
        <time>2019-03-28T09:50:42Z</time>
      </trkpt>
      <trkpt lat="47.0135" lon="5.97043">
        <ele>461</ele>
        <time>2019-03-28T09:50:54Z</time>
      </trkpt>
      <trkpt lat="47.01355" lon="5.97045">
        <ele>462</ele>
        <time>2019-03-28T09:50:58Z</time>
      </trkpt>
      <trkpt lat="47.01361" lon="5.97047">
        <ele>461</ele>
        <time>2019-03-28T09:51:02Z</time>
      </trkpt>
      <trkpt lat="47.01366" lon="5.9705">
        <ele>461</ele>
        <time>2019-03-28T09:51:06Z</time>
      </trkpt>
      <trkpt lat="47.0137" lon="5.97052">
        <ele>462</ele>
        <time>2019-03-28T09:51:09Z</time>
      </trkpt>
      <trkpt lat="47.01374" lon="5.97057">
        <ele>462</ele>
        <time>2019-03-28T09:51:13Z</time>
      </trkpt>
      <trkpt lat="47.01378" lon="5.97062">
        <ele>462</ele>
        <time>2019-03-28T09:51:17Z</time>
      </trkpt>
      <trkpt lat="47.01383" lon="5.97065">
        <ele>462</ele>
        <time>2019-03-28T09:51:21Z</time>
      </trkpt>
      <trkpt lat="47.01392" lon="5.97073">
        <ele>464</ele>
        <time>2019-03-28T09:51:29Z</time>
      </trkpt>
      <trkpt lat="47.01406" lon="5.9708">
        <ele>466</ele>
        <time>2019-03-28T09:51:41Z</time>
      </trkpt>
      <trkpt lat="47.01413" lon="5.97089">
        <ele>467</ele>
        <time>2019-03-28T09:51:48Z</time>
      </trkpt>
      <trkpt lat="47.01417" lon="5.97093">
        <ele>466</ele>
        <time>2019-03-28T09:51:52Z</time>
      </trkpt>
      <trkpt lat="47.01424" lon="5.97102">
        <ele>465</ele>
        <time>2019-03-28T09:51:59Z</time>
      </trkpt>
      <trkpt lat="47.01429" lon="5.97105">
        <ele>465</ele>
        <time>2019-03-28T09:52:03Z</time>
      </trkpt>
      <trkpt lat="47.01433" lon="5.9711">
        <ele>465</ele>
        <time>2019-03-28T09:52:08Z</time>
      </trkpt>
      <trkpt lat="47.01436" lon="5.97117">
        <ele>466</ele>
        <time>2019-03-28T09:52:13Z</time>
      </trkpt>
      <trkpt lat="47.01438" lon="5.97124">
        <ele>466</ele>
        <time>2019-03-28T09:52:17Z</time>
      </trkpt>
      <trkpt lat="47.01442" lon="5.9713">
        <ele>466</ele>
        <time>2019-03-28T09:52:21Z</time>
      </trkpt>
      <trkpt lat="47.01448" lon="5.97141">
        <ele>466</ele>
        <time>2019-03-28T09:52:29Z</time>
      </trkpt>
      <trkpt lat="47.01453" lon="5.97154">
        <ele>467</ele>
        <time>2019-03-28T09:52:38Z</time>
      </trkpt>
      <trkpt lat="47.01453" lon="5.97162">
        <ele>467</ele>
        <time>2019-03-28T09:52:43Z</time>
      </trkpt>
      <trkpt lat="47.01452" lon="5.97169">
        <ele>467</ele>
        <time>2019-03-28T09:52:48Z</time>
      </trkpt>
      <trkpt lat="47.0145" lon="5.97175">
        <ele>467</ele>
        <time>2019-03-28T09:52:53Z</time>
      </trkpt>
      <trkpt lat="47.0145" lon="5.97175">
        <ele>466</ele>
        <time>2019-03-28T09:55:02Z</time>
      </trkpt>
      <trkpt lat="47.01448" lon="5.9719">
        <ele>465</ele>
        <time>2019-03-28T09:55:20Z</time>
      </trkpt>
      <trkpt lat="47.01443" lon="5.97192">
        <ele>463</ele>
        <time>2019-03-28T09:55:25Z</time>
      </trkpt>
      <trkpt lat="47.01439" lon="5.97196">
        <ele>463</ele>
        <time>2019-03-28T09:55:40Z</time>
      </trkpt>
      <trkpt lat="47.01436" lon="5.97203">
        <ele>462</ele>
        <time>2019-03-28T09:55:57Z</time>
      </trkpt>
      <trkpt lat="47.01431" lon="5.97211">
        <ele>462</ele>
        <time>2019-03-28T09:56:04Z</time>
      </trkpt>
      <trkpt lat="47.01426" lon="5.97213">
        <ele>462</ele>
        <time>2019-03-28T09:56:08Z</time>
      </trkpt>
      <trkpt lat="47.01418" lon="5.97219">
        <ele>462</ele>
        <time>2019-03-28T09:56:16Z</time>
      </trkpt>
      <trkpt lat="47.01414" lon="5.97224">
        <ele>462</ele>
        <time>2019-03-28T09:56:20Z</time>
      </trkpt>
      <trkpt lat="47.0141" lon="5.97228">
        <ele>463</ele>
        <time>2019-03-28T09:56:24Z</time>
      </trkpt>
      <trkpt lat="47.01402" lon="5.97238">
        <ele>461</ele>
        <time>2019-03-28T09:56:33Z</time>
      </trkpt>
      <trkpt lat="47.01399" lon="5.97243">
        <ele>461</ele>
        <time>2019-03-28T09:56:37Z</time>
      </trkpt>
      <trkpt lat="47.01395" lon="5.97248">
        <ele>461</ele>
        <time>2019-03-28T09:56:41Z</time>
      </trkpt>
      <trkpt lat="47.0139" lon="5.97249">
        <ele>462</ele>
        <time>2019-03-28T09:56:52Z</time>
      </trkpt>
      <trkpt lat="47.01386" lon="5.97256">
        <ele>462</ele>
        <time>2019-03-28T09:57:05Z</time>
      </trkpt>
      <trkpt lat="47.01386" lon="5.97263">
        <ele>460</ele>
        <time>2019-03-28T09:57:10Z</time>
      </trkpt>
      <trkpt lat="47.01384" lon="5.97269">
        <ele>460</ele>
        <time>2019-03-28T09:57:14Z</time>
      </trkpt>
      <trkpt lat="47.01384" lon="5.97277">
        <ele>460</ele>
        <time>2019-03-28T09:57:18Z</time>
      </trkpt>
      <trkpt lat="47.01384" lon="5.97284">
        <ele>460</ele>
        <time>2019-03-28T09:57:22Z</time>
      </trkpt>
      <trkpt lat="47.01386" lon="5.97291">
        <ele>459</ele>
        <time>2019-03-28T09:57:26Z</time>
      </trkpt>
      <trkpt lat="47.01388" lon="5.97298">
        <ele>458</ele>
        <time>2019-03-28T09:57:30Z</time>
      </trkpt>
      <trkpt lat="47.01388" lon="5.97314">
        <ele>457</ele>
        <time>2019-03-28T09:57:39Z</time>
      </trkpt>
      <trkpt lat="47.01391" lon="5.97336">
        <ele>458</ele>
        <time>2019-03-28T09:57:50Z</time>
      </trkpt>
      <trkpt lat="47.01392" lon="5.97343">
        <ele>459</ele>
        <time>2019-03-28T09:57:54Z</time>
      </trkpt>
      <trkpt lat="47.01392" lon="5.9735">
        <ele>459</ele>
        <time>2019-03-28T09:57:58Z</time>
      </trkpt>
      <trkpt lat="47.01391" lon="5.97357">
        <ele>459</ele>
        <time>2019-03-28T09:58:02Z</time>
      </trkpt>
      <trkpt lat="47.01389" lon="5.97365">
        <ele>459</ele>
        <time>2019-03-28T09:58:07Z</time>
      </trkpt>
      <trkpt lat="47.01386" lon="5.9737">
        <ele>460</ele>
        <time>2019-03-28T09:58:11Z</time>
      </trkpt>
      <trkpt lat="47.01374" lon="5.97374">
        <ele>460</ele>
        <time>2019-03-28T09:58:22Z</time>
      </trkpt>
      <trkpt lat="47.0137" lon="5.97381">
        <ele>460</ele>
        <time>2019-03-28T09:58:30Z</time>
      </trkpt>
      <trkpt lat="47.01369" lon="5.97394">
        <ele>461</ele>
        <time>2019-03-28T09:58:52Z</time>
      </trkpt>
      <trkpt lat="47.01368" lon="5.97401">
        <ele>461</ele>
        <time>2019-03-28T09:58:56Z</time>
      </trkpt>
      <trkpt lat="47.01365" lon="5.97407">
        <ele>461</ele>
        <time>2019-03-28T09:59:00Z</time>
      </trkpt>
      <trkpt lat="47.01362" lon="5.97413">
        <ele>461</ele>
        <time>2019-03-28T09:59:04Z</time>
      </trkpt>
      <trkpt lat="47.01358" lon="5.97415">
        <ele>461</ele>
        <time>2019-03-28T09:59:07Z</time>
      </trkpt>
      <trkpt lat="47.01354" lon="5.97416">
        <ele>460</ele>
        <time>2019-03-28T09:59:10Z</time>
      </trkpt>
      <trkpt lat="47.01349" lon="5.97418">
        <ele>460</ele>
        <time>2019-03-28T09:59:13Z</time>
      </trkpt>
      <trkpt lat="47.01346" lon="5.97422">
        <ele>460</ele>
        <time>2019-03-28T09:59:16Z</time>
      </trkpt>
      <trkpt lat="47.0134" lon="5.97433">
        <ele>458</ele>
        <time>2019-03-28T09:59:24Z</time>
      </trkpt>
      <trkpt lat="47.01337" lon="5.9744">
        <ele>458</ele>
        <time>2019-03-28T09:59:28Z</time>
      </trkpt>
      <trkpt lat="47.01337" lon="5.97455">
        <ele>458</ele>
        <time>2019-03-28T09:59:36Z</time>
      </trkpt>
      <trkpt lat="47.01338" lon="5.97463">
        <ele>457</ele>
        <time>2019-03-28T09:59:40Z</time>
      </trkpt>
      <trkpt lat="47.01339" lon="5.97472">
        <ele>458</ele>
        <time>2019-03-28T09:59:44Z</time>
      </trkpt>
      <trkpt lat="47.01339" lon="5.97486">
        <ele>457</ele>
        <time>2019-03-28T09:59:52Z</time>
      </trkpt>
      <trkpt lat="47.01337" lon="5.97501">
        <ele>457</ele>
        <time>2019-03-28T10:00:00Z</time>
      </trkpt>
      <trkpt lat="47.01336" lon="5.97509">
        <ele>457</ele>
        <time>2019-03-28T10:00:05Z</time>
      </trkpt>
      <trkpt lat="47.01337" lon="5.9753">
        <ele>460</ele>
        <time>2019-03-28T10:00:17Z</time>
      </trkpt>
      <trkpt lat="47.01338" lon="5.97537">
        <ele>460</ele>
        <time>2019-03-28T10:00:20Z</time>
      </trkpt>
      <trkpt lat="47.01339" lon="5.97545">
        <ele>460</ele>
        <time>2019-03-28T10:00:24Z</time>
      </trkpt>
      <trkpt lat="47.01341" lon="5.97552">
        <ele>460</ele>
        <time>2019-03-28T10:00:27Z</time>
      </trkpt>
      <trkpt lat="47.01352" lon="5.97576">
        <ele>461</ele>
        <time>2019-03-28T10:00:42Z</time>
      </trkpt>
      <trkpt lat="47.01356" lon="5.97589">
        <ele>461</ele>
        <time>2019-03-28T10:00:50Z</time>
      </trkpt>
      <trkpt lat="47.0137" lon="5.9761">
        <ele>461</ele>
        <time>2019-03-28T10:01:06Z</time>
      </trkpt>
      <trkpt lat="47.01381" lon="5.97627">
        <ele>461</ele>
        <time>2019-03-28T10:01:17Z</time>
      </trkpt>
      <trkpt lat="47.01385" lon="5.97634">
        <ele>459</ele>
        <time>2019-03-28T10:01:21Z</time>
      </trkpt>
      <trkpt lat="47.01397" lon="5.97648">
        <ele>459</ele>
        <time>2019-03-28T10:01:33Z</time>
      </trkpt>
      <trkpt lat="47.01405" lon="5.97656">
        <ele>456</ele>
        <time>2019-03-28T10:01:43Z</time>
      </trkpt>
      <trkpt lat="47.0141" lon="5.97661">
        <ele>456</ele>
        <time>2019-03-28T10:01:48Z</time>
      </trkpt>
      <trkpt lat="47.01422" lon="5.97671">
        <ele>455</ele>
        <time>2019-03-28T10:02:00Z</time>
      </trkpt>
      <trkpt lat="47.01431" lon="5.97679">
        <ele>455</ele>
        <time>2019-03-28T10:02:08Z</time>
      </trkpt>
      <trkpt lat="47.01441" lon="5.97685">
        <ele>455</ele>
        <time>2019-03-28T10:02:16Z</time>
      </trkpt>
      <trkpt lat="47.01449" lon="5.97692">
        <ele>455</ele>
        <time>2019-03-28T10:02:24Z</time>
      </trkpt>
      <trkpt lat="47.01461" lon="5.97699">
        <ele>454</ele>
        <time>2019-03-28T10:03:04Z</time>
      </trkpt>
      <trkpt lat="47.01467" lon="5.97702">
        <ele>452</ele>
        <time>2019-03-28T10:03:30Z</time>
      </trkpt>
      <trkpt lat="47.01472" lon="5.97704">
        <ele>452</ele>
        <time>2019-03-28T10:03:34Z</time>
      </trkpt>
      <trkpt lat="47.01478" lon="5.97705">
        <ele>449</ele>
        <time>2019-03-28T10:03:39Z</time>
      </trkpt>
      <trkpt lat="47.01485" lon="5.97703">
        <ele>451</ele>
        <time>2019-03-28T10:03:46Z</time>
      </trkpt>
      <trkpt lat="47.01489" lon="5.97707">
        <ele>451</ele>
        <time>2019-03-28T10:03:49Z</time>
      </trkpt>
      <trkpt lat="47.01494" lon="5.9771">
        <ele>451</ele>
        <time>2019-03-28T10:03:52Z</time>
      </trkpt>
      <trkpt lat="47.01498" lon="5.97715">
        <ele>452</ele>
        <time>2019-03-28T10:03:56Z</time>
      </trkpt>
      <trkpt lat="47.01504" lon="5.97726">
        <ele>451</ele>
        <time>2019-03-28T10:04:04Z</time>
      </trkpt>
      <trkpt lat="47.01508" lon="5.97741">
        <ele>452</ele>
        <time>2019-03-28T10:04:12Z</time>
      </trkpt>
      <trkpt lat="47.01508" lon="5.97748">
        <ele>451</ele>
        <time>2019-03-28T10:04:16Z</time>
      </trkpt>
      <trkpt lat="47.01505" lon="5.97763">
        <ele>450</ele>
        <time>2019-03-28T10:04:24Z</time>
      </trkpt>
      <trkpt lat="47.01503" lon="5.97769">
        <ele>450</ele>
        <time>2019-03-28T10:04:27Z</time>
      </trkpt>
      <trkpt lat="47.01494" lon="5.97797">
        <ele>448</ele>
        <time>2019-03-28T10:04:45Z</time>
      </trkpt>
      <trkpt lat="47.01494" lon="5.9781">
        <ele>448</ele>
        <time>2019-03-28T10:04:52Z</time>
      </trkpt>
      <trkpt lat="47.01491" lon="5.97825">
        <ele>448</ele>
        <time>2019-03-28T10:05:01Z</time>
      </trkpt>
      <trkpt lat="47.01488" lon="5.97838">
        <ele>447</ele>
        <time>2019-03-28T10:05:09Z</time>
      </trkpt>
      <trkpt lat="47.01487" lon="5.97845">
        <ele>447</ele>
        <time>2019-03-28T10:05:13Z</time>
      </trkpt>
      <trkpt lat="47.01483" lon="5.97867">
        <ele>447</ele>
        <time>2019-03-28T10:05:25Z</time>
      </trkpt>
      <trkpt lat="47.01482" lon="5.97873">
        <ele>447</ele>
        <time>2019-03-28T10:05:29Z</time>
      </trkpt>
      <trkpt lat="47.01479" lon="5.97887">
        <ele>447</ele>
        <time>2019-03-28T10:05:37Z</time>
      </trkpt>
      <trkpt lat="47.01477" lon="5.97894">
        <ele>446</ele>
        <time>2019-03-28T10:05:41Z</time>
      </trkpt>
      <trkpt lat="47.01475" lon="5.979">
        <ele>445</ele>
        <time>2019-03-28T10:05:45Z</time>
      </trkpt>
      <trkpt lat="47.01474" lon="5.97907">
        <ele>445</ele>
        <time>2019-03-28T10:05:49Z</time>
      </trkpt>
      <trkpt lat="47.01472" lon="5.97915">
        <ele>445</ele>
        <time>2019-03-28T10:05:54Z</time>
      </trkpt>
      <trkpt lat="47.0147" lon="5.97921">
        <ele>445</ele>
        <time>2019-03-28T10:05:58Z</time>
      </trkpt>
      <trkpt lat="47.01468" lon="5.97928">
        <ele>444</ele>
        <time>2019-03-28T10:06:03Z</time>
      </trkpt>
      <trkpt lat="47.01465" lon="5.97942">
        <ele>445</ele>
        <time>2019-03-28T10:06:11Z</time>
      </trkpt>
      <trkpt lat="47.0146" lon="5.97956">
        <ele>445</ele>
        <time>2019-03-28T10:06:18Z</time>
      </trkpt>
      <trkpt lat="47.01457" lon="5.97963">
        <ele>446</ele>
        <time>2019-03-28T10:06:22Z</time>
      </trkpt>
      <trkpt lat="47.01455" lon="5.97978">
        <ele>448</ele>
        <time>2019-03-28T10:06:35Z</time>
      </trkpt>
      <trkpt lat="47.01454" lon="5.97986">
        <ele>448</ele>
        <time>2019-03-28T10:06:40Z</time>
      </trkpt>
      <trkpt lat="47.01451" lon="5.98003">
        <ele>449</ele>
        <time>2019-03-28T10:06:52Z</time>
      </trkpt>
      <trkpt lat="47.01452" lon="5.9801">
        <ele>450</ele>
        <time>2019-03-28T10:06:57Z</time>
      </trkpt>
      <trkpt lat="47.01451" lon="5.98018">
        <ele>450</ele>
        <time>2019-03-28T10:07:02Z</time>
      </trkpt>
      <trkpt lat="47.01445" lon="5.98031">
        <ele>451</ele>
        <time>2019-03-28T10:07:11Z</time>
      </trkpt>
      <trkpt lat="47.01437" lon="5.98041">
        <ele>452</ele>
        <time>2019-03-28T10:07:20Z</time>
      </trkpt>
      <trkpt lat="47.01433" lon="5.98045">
        <ele>453</ele>
        <time>2019-03-28T10:07:24Z</time>
      </trkpt>
      <trkpt lat="47.01423" lon="5.98047">
        <ele>454</ele>
        <time>2019-03-28T10:07:32Z</time>
      </trkpt>
      <trkpt lat="47.01417" lon="5.98047">
        <ele>455</ele>
        <time>2019-03-28T10:07:37Z</time>
      </trkpt>
      <trkpt lat="47.01402" lon="5.98045">
        <ele>458</ele>
        <time>2019-03-28T10:07:54Z</time>
      </trkpt>
      <trkpt lat="47.01397" lon="5.98044">
        <ele>457</ele>
        <time>2019-03-28T10:08:00Z</time>
      </trkpt>
      <trkpt lat="47.01392" lon="5.98044">
        <ele>458</ele>
        <time>2019-03-28T10:08:04Z</time>
      </trkpt>
      <trkpt lat="47.01382" lon="5.98044">
        <ele>458</ele>
        <time>2019-03-28T10:08:12Z</time>
      </trkpt>
      <trkpt lat="47.01378" lon="5.98046">
        <ele>458</ele>
        <time>2019-03-28T10:08:16Z</time>
      </trkpt>
      <trkpt lat="47.01373" lon="5.98051">
        <ele>458</ele>
        <time>2019-03-28T10:08:20Z</time>
      </trkpt>
      <trkpt lat="47.0137" lon="5.98057">
        <ele>458</ele>
        <time>2019-03-28T10:08:25Z</time>
      </trkpt>
      <trkpt lat="47.01362" lon="5.98084">
        <ele>460</ele>
        <time>2019-03-28T10:08:41Z</time>
      </trkpt>
      <trkpt lat="47.0136" lon="5.98091">
        <ele>460</ele>
        <time>2019-03-28T10:08:45Z</time>
      </trkpt>
      <trkpt lat="47.01358" lon="5.98097">
        <ele>460</ele>
        <time>2019-03-28T10:08:49Z</time>
      </trkpt>
      <trkpt lat="47.01353" lon="5.98109">
        <ele>460</ele>
        <time>2019-03-28T10:08:57Z</time>
      </trkpt>
      <trkpt lat="47.01346" lon="5.98121">
        <ele>460</ele>
        <time>2019-03-28T10:09:05Z</time>
      </trkpt>
      <trkpt lat="47.01339" lon="5.98131">
        <ele>460</ele>
        <time>2019-03-28T10:09:14Z</time>
      </trkpt>
      <trkpt lat="47.01332" lon="5.98142">
        <ele>461</ele>
        <time>2019-03-28T10:09:22Z</time>
      </trkpt>
      <trkpt lat="47.01328" lon="5.98147">
        <ele>461</ele>
        <time>2019-03-28T10:09:27Z</time>
      </trkpt>
      <trkpt lat="47.01325" lon="5.98153">
        <ele>460</ele>
        <time>2019-03-28T10:09:32Z</time>
      </trkpt>
      <trkpt lat="47.01321" lon="5.98157">
        <ele>461</ele>
        <time>2019-03-28T10:09:35Z</time>
      </trkpt>
      <trkpt lat="47.01311" lon="5.98172">
        <ele>461</ele>
        <time>2019-03-28T10:09:46Z</time>
      </trkpt>
      <trkpt lat="47.01308" lon="5.98177">
        <ele>461</ele>
        <time>2019-03-28T10:09:50Z</time>
      </trkpt>
      <trkpt lat="47.01304" lon="5.98182">
        <ele>461</ele>
        <time>2019-03-28T10:09:54Z</time>
      </trkpt>
      <trkpt lat="47.01299" lon="5.98186">
        <ele>461</ele>
        <time>2019-03-28T10:10:00Z</time>
      </trkpt>
      <trkpt lat="47.01295" lon="5.98191">
        <ele>462</ele>
        <time>2019-03-28T10:10:04Z</time>
      </trkpt>
      <trkpt lat="47.01291" lon="5.98195">
        <ele>462</ele>
        <time>2019-03-28T10:10:09Z</time>
      </trkpt>
      <trkpt lat="47.01286" lon="5.98199">
        <ele>463</ele>
        <time>2019-03-28T10:10:14Z</time>
      </trkpt>
      <trkpt lat="47.01282" lon="5.98202">
        <ele>463</ele>
        <time>2019-03-28T10:10:19Z</time>
      </trkpt>
      <trkpt lat="47.01271" lon="5.98205">
        <ele>463</ele>
        <time>2019-03-28T10:10:27Z</time>
      </trkpt>
      <trkpt lat="47.01254" lon="5.98208">
        <ele>465</ele>
        <time>2019-03-28T10:10:43Z</time>
      </trkpt>
      <trkpt lat="47.0125" lon="5.98203">
        <ele>466</ele>
        <time>2019-03-28T10:10:46Z</time>
      </trkpt>
      <trkpt lat="47.0124" lon="5.982">
        <ele>467</ele>
        <time>2019-03-28T10:11:03Z</time>
      </trkpt>
      <trkpt lat="47.01221" lon="5.98194">
        <ele>468</ele>
        <time>2019-03-28T10:11:20Z</time>
      </trkpt>
      <trkpt lat="47.01202" lon="5.9818">
        <ele>468</ele>
        <time>2019-03-28T10:11:33Z</time>
      </trkpt>
      <trkpt lat="47.01185" lon="5.98166">
        <ele>469</ele>
        <time>2019-03-28T10:11:45Z</time>
      </trkpt>
      <trkpt lat="47.01176" lon="5.98163">
        <ele>470</ele>
        <time>2019-03-28T10:11:50Z</time>
      </trkpt>
      <trkpt lat="47.01166" lon="5.98165">
        <ele>470</ele>
        <time>2019-03-28T10:11:58Z</time>
      </trkpt>
      <trkpt lat="47.0116" lon="5.98175">
        <ele>470</ele>
        <time>2019-03-28T10:12:06Z</time>
      </trkpt>
      <trkpt lat="47.01159" lon="5.98202">
        <ele>469</ele>
        <time>2019-03-28T10:12:19Z</time>
      </trkpt>
      <trkpt lat="47.0116" lon="5.98213">
        <ele>469</ele>
        <time>2019-03-28T10:12:25Z</time>
      </trkpt>
      <trkpt lat="47.01159" lon="5.98219">
        <ele>471</ele>
        <time>2019-03-28T10:12:30Z</time>
      </trkpt>
      <trkpt lat="47.01156" lon="5.98227">
        <ele>472</ele>
        <time>2019-03-28T10:12:37Z</time>
      </trkpt>
      <trkpt lat="47.01156" lon="5.98234">
        <ele>472</ele>
        <time>2019-03-28T10:12:42Z</time>
      </trkpt>
      <trkpt lat="47.0115" lon="5.98249">
        <ele>472</ele>
        <time>2019-03-28T10:12:50Z</time>
      </trkpt>
      <trkpt lat="47.01149" lon="5.98255">
        <ele>473</ele>
        <time>2019-03-28T10:12:54Z</time>
      </trkpt>
      <trkpt lat="47.01148" lon="5.98262">
        <ele>473</ele>
        <time>2019-03-28T10:12:58Z</time>
      </trkpt>
      <trkpt lat="47.01145" lon="5.98276">
        <ele>472</ele>
        <time>2019-03-28T10:13:07Z</time>
      </trkpt>
      <trkpt lat="47.01147" lon="5.98285">
        <ele>473</ele>
        <time>2019-03-28T10:13:13Z</time>
      </trkpt>
      <trkpt lat="47.01146" lon="5.98292">
        <ele>473</ele>
        <time>2019-03-28T10:13:17Z</time>
      </trkpt>
      <trkpt lat="47.01148" lon="5.98299">
        <ele>474</ele>
        <time>2019-03-28T10:13:21Z</time>
      </trkpt>
      <trkpt lat="47.0115" lon="5.98305">
        <ele>473</ele>
        <time>2019-03-28T10:13:25Z</time>
      </trkpt>
      <trkpt lat="47.01151" lon="5.98324">
        <ele>474</ele>
        <time>2019-03-28T10:13:38Z</time>
      </trkpt>
      <trkpt lat="47.01152" lon="5.9833">
        <ele>474</ele>
        <time>2019-03-28T10:13:42Z</time>
      </trkpt>
      <trkpt lat="47.01156" lon="5.98344">
        <ele>475</ele>
        <time>2019-03-28T10:13:51Z</time>
      </trkpt>
      <trkpt lat="47.01161" lon="5.98358">
        <ele>477</ele>
        <time>2019-03-28T10:14:10Z</time>
      </trkpt>
      <trkpt lat="47.01175" lon="5.98361">
        <ele>478</ele>
        <time>2019-03-28T10:16:14Z</time>
      </trkpt>
      <trkpt lat="47.01204" lon="5.98377">
        <ele>476</ele>
        <time>2019-03-28T10:16:43Z</time>
      </trkpt>
      <trkpt lat="47.01231" lon="5.98396">
        <ele>479</ele>
        <time>2019-03-28T10:17:07Z</time>
      </trkpt>
      <trkpt lat="47.01239" lon="5.98401">
        <ele>479</ele>
        <time>2019-03-28T10:17:15Z</time>
      </trkpt>
      <trkpt lat="47.01248" lon="5.98411">
        <ele>482</ele>
        <time>2019-03-28T10:17:27Z</time>
      </trkpt>
      <trkpt lat="47.01257" lon="5.98417">
        <ele>481</ele>
        <time>2019-03-28T10:17:36Z</time>
      </trkpt>
      <trkpt lat="47.01271" lon="5.98418">
        <ele>482</ele>
        <time>2019-03-28T10:17:50Z</time>
      </trkpt>
      <trkpt lat="47.01276" lon="5.98418">
        <ele>482</ele>
        <time>2019-03-28T10:17:55Z</time>
      </trkpt>
      <trkpt lat="47.01281" lon="5.98416">
        <ele>482</ele>
        <time>2019-03-28T10:18:00Z</time>
      </trkpt>
      <trkpt lat="47.01277" lon="5.98409">
        <ele>480</ele>
        <time>2019-03-28T10:18:13Z</time>
      </trkpt>
      <trkpt lat="47.01276" lon="5.98402">
        <ele>479</ele>
        <time>2019-03-28T10:18:25Z</time>
      </trkpt>
      <trkpt lat="47.01279" lon="5.98399">
        <ele>479</ele>
        <time>2019-03-28T10:19:13Z</time>
      </trkpt>
      <trkpt lat="47.01282" lon="5.98412">
        <ele>475</ele>
        <time>2019-03-28T10:19:24Z</time>
      </trkpt>
      <trkpt lat="47.013" lon="5.98417">
        <ele>478</ele>
        <time>2019-03-28T10:19:43Z</time>
      </trkpt>
      <trkpt lat="47.0131" lon="5.98418">
        <ele>479</ele>
        <time>2019-03-28T10:19:53Z</time>
      </trkpt>
      <trkpt lat="47.01324" lon="5.98412">
        <ele>481</ele>
        <time>2019-03-28T10:20:06Z</time>
      </trkpt>
      <trkpt lat="47.01328" lon="5.98408">
        <ele>479</ele>
        <time>2019-03-28T10:20:14Z</time>
      </trkpt>
      <trkpt lat="47.01333" lon="5.98405">
        <ele>479</ele>
        <time>2019-03-28T10:20:20Z</time>
      </trkpt>
      <trkpt lat="47.01338" lon="5.98407">
        <ele>480</ele>
        <time>2019-03-28T10:20:25Z</time>
      </trkpt>
      <trkpt lat="47.01354" lon="5.9841">
        <ele>481</ele>
        <time>2019-03-28T10:20:45Z</time>
      </trkpt>
      <trkpt lat="47.01351" lon="5.98404">
        <ele>479</ele>
        <time>2019-03-28T10:21:21Z</time>
      </trkpt>
      <trkpt lat="47.01353" lon="5.98396">
        <ele>477</ele>
        <time>2019-03-28T10:21:39Z</time>
      </trkpt>
      <trkpt lat="47.01362" lon="5.98401">
        <ele>478</ele>
        <time>2019-03-28T10:23:20Z</time>
      </trkpt>
      <trkpt lat="47.01358" lon="5.98397">
        <ele>478</ele>
        <time>2019-03-28T10:23:33Z</time>
      </trkpt>
      <trkpt lat="47.01352" lon="5.98399">
        <ele>473</ele>
        <time>2019-03-28T10:24:51Z</time>
      </trkpt>
      <trkpt lat="47.01354" lon="5.98408">
        <ele>471</ele>
        <time>2019-03-28T10:25:09Z</time>
      </trkpt>
      <trkpt lat="47.01359" lon="5.9841">
        <ele>472</ele>
        <time>2019-03-28T10:25:16Z</time>
      </trkpt>
      <trkpt lat="47.01367" lon="5.98412">
        <ele>472</ele>
        <time>2019-03-28T10:25:30Z</time>
      </trkpt>
      <trkpt lat="47.01372" lon="5.98413">
        <ele>474</ele>
        <time>2019-03-28T10:25:36Z</time>
      </trkpt>
      <trkpt lat="47.01378" lon="5.98411">
        <ele>474</ele>
        <time>2019-03-28T10:25:48Z</time>
      </trkpt>
      <trkpt lat="47.01386" lon="5.98417">
        <ele>474</ele>
        <time>2019-03-28T10:26:00Z</time>
      </trkpt>
      <trkpt lat="47.01396" lon="5.98423">
        <ele>476</ele>
        <time>2019-03-28T10:26:09Z</time>
      </trkpt>
      <trkpt lat="47.01401" lon="5.98426">
        <ele>476</ele>
        <time>2019-03-28T10:26:13Z</time>
      </trkpt>
      <trkpt lat="47.01405" lon="5.98429">
        <ele>475</ele>
        <time>2019-03-28T10:26:17Z</time>
      </trkpt>
      <trkpt lat="47.01413" lon="5.98429">
        <ele>476</ele>
        <time>2019-03-28T10:26:27Z</time>
      </trkpt>
      <trkpt lat="47.01417" lon="5.98425">
        <ele>475</ele>
        <time>2019-03-28T10:26:33Z</time>
      </trkpt>
      <trkpt lat="47.0142" lon="5.9842">
        <ele>474</ele>
        <time>2019-03-28T10:26:45Z</time>
      </trkpt>
      <trkpt lat="47.01425" lon="5.98421">
        <ele>473</ele>
        <time>2019-03-28T10:26:57Z</time>
      </trkpt>
      <trkpt lat="47.01429" lon="5.98426">
        <ele>473</ele>
        <time>2019-03-28T10:27:27Z</time>
      </trkpt>
      <trkpt lat="47.01433" lon="5.98431">
        <ele>473</ele>
        <time>2019-03-28T10:27:34Z</time>
      </trkpt>
      <trkpt lat="47.01432" lon="5.98444">
        <ele>472</ele>
        <time>2019-03-28T10:27:46Z</time>
      </trkpt>
      <trkpt lat="47.01441" lon="5.98448">
        <ele>473</ele>
        <time>2019-03-28T10:27:56Z</time>
      </trkpt>
      <trkpt lat="47.01447" lon="5.9845">
        <ele>472</ele>
        <time>2019-03-28T10:28:03Z</time>
      </trkpt>
      <trkpt lat="47.01453" lon="5.98451">
        <ele>472</ele>
        <time>2019-03-28T10:28:08Z</time>
      </trkpt>
      <trkpt lat="47.01458" lon="5.98453">
        <ele>473</ele>
        <time>2019-03-28T10:28:13Z</time>
      </trkpt>
      <trkpt lat="47.01463" lon="5.98454">
        <ele>473</ele>
        <time>2019-03-28T10:28:17Z</time>
      </trkpt>
      <trkpt lat="47.01469" lon="5.98455">
        <ele>471</ele>
        <time>2019-03-28T10:28:26Z</time>
      </trkpt>
      <trkpt lat="47.01479" lon="5.9846">
        <ele>472</ele>
        <time>2019-03-28T10:28:35Z</time>
      </trkpt>
      <trkpt lat="47.01484" lon="5.98463">
        <ele>471</ele>
        <time>2019-03-28T10:28:40Z</time>
      </trkpt>
      <trkpt lat="47.0149" lon="5.98466">
        <ele>472</ele>
        <time>2019-03-28T10:28:46Z</time>
      </trkpt>
      <trkpt lat="47.01493" lon="5.9847">
        <ele>471</ele>
        <time>2019-03-28T10:28:50Z</time>
      </trkpt>
      <trkpt lat="47.015" lon="5.98474">
        <ele>471</ele>
        <time>2019-03-28T10:28:58Z</time>
      </trkpt>
      <trkpt lat="47.01504" lon="5.98477">
        <ele>470</ele>
        <time>2019-03-28T10:29:03Z</time>
      </trkpt>
      <trkpt lat="47.01509" lon="5.98479">
        <ele>471</ele>
        <time>2019-03-28T10:29:08Z</time>
      </trkpt>
      <trkpt lat="47.0152" lon="5.98485">
        <ele>471</ele>
        <time>2019-03-28T10:29:19Z</time>
      </trkpt>
      <trkpt lat="47.01524" lon="5.98486">
        <ele>471</ele>
        <time>2019-03-28T10:29:23Z</time>
      </trkpt>
      <trkpt lat="47.01535" lon="5.98488">
        <ele>472</ele>
        <time>2019-03-28T10:29:33Z</time>
      </trkpt>
      <trkpt lat="47.0154" lon="5.9849">
        <ele>472</ele>
        <time>2019-03-28T10:29:38Z</time>
      </trkpt>
      <trkpt lat="47.01545" lon="5.98492">
        <ele>471</ele>
        <time>2019-03-28T10:29:42Z</time>
      </trkpt>
      <trkpt lat="47.01549" lon="5.98493">
        <ele>472</ele>
        <time>2019-03-28T10:29:47Z</time>
      </trkpt>
      <trkpt lat="47.01551" lon="5.98504">
        <ele>470</ele>
        <time>2019-03-28T10:30:01Z</time>
      </trkpt>
      <trkpt lat="47.01549" lon="5.98515">
        <ele>469</ele>
        <time>2019-03-28T10:30:13Z</time>
      </trkpt>
      <trkpt lat="47.01549" lon="5.98524">
        <ele>469</ele>
        <time>2019-03-28T10:30:25Z</time>
      </trkpt>
      <trkpt lat="47.01551" lon="5.98534">
        <ele>468</ele>
        <time>2019-03-28T10:30:37Z</time>
      </trkpt>
      <trkpt lat="47.01555" lon="5.98539">
        <ele>467</ele>
        <time>2019-03-28T10:31:01Z</time>
      </trkpt>
      <trkpt lat="47.01563" lon="5.9854">
        <ele>467</ele>
        <time>2019-03-28T10:31:13Z</time>
      </trkpt>
      <trkpt lat="47.01569" lon="5.98546">
        <ele>465</ele>
        <time>2019-03-28T10:31:25Z</time>
      </trkpt>
      <trkpt lat="47.01573" lon="5.98553">
        <ele>465</ele>
        <time>2019-03-28T10:31:39Z</time>
      </trkpt>
      <trkpt lat="47.01576" lon="5.98558">
        <ele>460</ele>
        <time>2019-03-28T10:32:45Z</time>
      </trkpt>
      <trkpt lat="47.01577" lon="5.98554">
        <ele>459</ele>
        <time>2019-03-28T10:37:44Z</time>
      </trkpt>
      <trkpt lat="47.01577" lon="5.98554">
        <ele>460</ele>
        <time>2019-03-28T10:38:06Z</time>
      </trkpt>
      <trkpt lat="47.01604" lon="5.98517">
        <ele>469</ele>
        <time>2019-03-28T10:39:53Z</time>
      </trkpt>
      <trkpt lat="47.01642" lon="5.9853">
        <ele>472</ele>
        <time>2019-03-28T10:40:31Z</time>
      </trkpt>
      <trkpt lat="47.01653" lon="5.9853">
        <ele>472</ele>
        <time>2019-03-28T10:40:39Z</time>
      </trkpt>
      <trkpt lat="47.01662" lon="5.98529">
        <ele>471</ele>
        <time>2019-03-28T10:40:46Z</time>
      </trkpt>
      <trkpt lat="47.01671" lon="5.98528">
        <ele>471</ele>
        <time>2019-03-28T10:40:54Z</time>
      </trkpt>
      <trkpt lat="47.0169" lon="5.98533">
        <ele>470</ele>
        <time>2019-03-28T10:41:12Z</time>
      </trkpt>
      <trkpt lat="47.01707" lon="5.98542">
        <ele>469</ele>
        <time>2019-03-28T10:41:28Z</time>
      </trkpt>
      <trkpt lat="47.01718" lon="5.9854">
        <ele>467</ele>
        <time>2019-03-28T10:41:36Z</time>
      </trkpt>
      <trkpt lat="47.01727" lon="5.98543">
        <ele>467</ele>
        <time>2019-03-28T10:41:44Z</time>
      </trkpt>
      <trkpt lat="47.01738" lon="5.98543">
        <ele>466</ele>
        <time>2019-03-28T10:41:55Z</time>
      </trkpt>
      <trkpt lat="47.01747" lon="5.98541">
        <ele>466</ele>
        <time>2019-03-28T10:42:01Z</time>
      </trkpt>
      <trkpt lat="47.01757" lon="5.9854">
        <ele>465</ele>
        <time>2019-03-28T10:42:09Z</time>
      </trkpt>
      <trkpt lat="47.01766" lon="5.98543">
        <ele>464</ele>
        <time>2019-03-28T10:42:19Z</time>
      </trkpt>
      <trkpt lat="47.01778" lon="5.98546">
        <ele>464</ele>
        <time>2019-03-28T10:42:29Z</time>
      </trkpt>
      <trkpt lat="47.01794" lon="5.98552">
        <ele>462</ele>
        <time>2019-03-28T10:42:51Z</time>
      </trkpt>
      <trkpt lat="47.01813" lon="5.98562">
        <ele>463</ele>
        <time>2019-03-28T10:43:09Z</time>
      </trkpt>
      <trkpt lat="47.01825" lon="5.98566">
        <ele>461</ele>
        <time>2019-03-28T10:43:23Z</time>
      </trkpt>
      <trkpt lat="47.01853" lon="5.98577">
        <ele>460</ele>
        <time>2019-03-28T10:43:48Z</time>
      </trkpt>
      <trkpt lat="47.01856" lon="5.98582">
        <ele>459</ele>
        <time>2019-03-28T10:43:56Z</time>
      </trkpt>
      <trkpt lat="47.01851" lon="5.98591">
        <ele>456</ele>
        <time>2019-03-28T10:44:08Z</time>
      </trkpt>
      <trkpt lat="47.01845" lon="5.98615">
        <ele>454</ele>
        <time>2019-03-28T10:44:31Z</time>
      </trkpt>
      <trkpt lat="47.01843" lon="5.98631">
        <ele>453</ele>
        <time>2019-03-28T10:44:44Z</time>
      </trkpt>
      <trkpt lat="47.01841" lon="5.98644">
        <ele>452</ele>
        <time>2019-03-28T10:44:56Z</time>
      </trkpt>
      <trkpt lat="47.01841" lon="5.98651">
        <ele>452</ele>
        <time>2019-03-28T10:45:02Z</time>
      </trkpt>
      <trkpt lat="47.01842" lon="5.98658">
        <ele>452</ele>
        <time>2019-03-28T10:45:07Z</time>
      </trkpt>
      <trkpt lat="47.01842" lon="5.98666">
        <ele>452</ele>
        <time>2019-03-28T10:45:15Z</time>
      </trkpt>
      <trkpt lat="47.0184" lon="5.98675">
        <ele>450</ele>
        <time>2019-03-28T10:45:27Z</time>
      </trkpt>
      <trkpt lat="47.0184" lon="5.98682">
        <ele>452</ele>
        <time>2019-03-28T10:45:39Z</time>
      </trkpt>
      <trkpt lat="47.01838" lon="5.98688">
        <ele>450</ele>
        <time>2019-03-28T10:45:51Z</time>
      </trkpt>
      <trkpt lat="47.01839" lon="5.98697">
        <ele>449</ele>
        <time>2019-03-28T10:46:03Z</time>
      </trkpt>
      <trkpt lat="47.01835" lon="5.98702">
        <ele>443</ele>
        <time>2019-03-28T10:46:57Z</time>
      </trkpt>
      <trkpt lat="47.0183" lon="5.98698">
        <ele>445</ele>
        <time>2019-03-28T10:49:26Z</time>
      </trkpt>
      <trkpt lat="47.01828" lon="5.98703">
        <ele>443</ele>
        <time>2019-03-28T10:51:56Z</time>
      </trkpt>
      <trkpt lat="47.01834" lon="5.98697">
        <ele>440</ele>
        <time>2019-03-28T11:25:29Z</time>
      </trkpt>
      <trkpt lat="47.01799" lon="5.98716">
        <ele>432</ele>
        <time>2019-03-28T11:32:00Z</time>
      </trkpt>
      <trkpt lat="47.01794" lon="5.98716">
        <ele>432</ele>
        <time>2019-03-28T11:32:05Z</time>
      </trkpt>
      <trkpt lat="47.0179" lon="5.98714">
        <ele>432</ele>
        <time>2019-03-28T11:32:10Z</time>
      </trkpt>
      <trkpt lat="47.01784" lon="5.98716">
        <ele>433</ele>
        <time>2019-03-28T11:32:18Z</time>
      </trkpt>
      <trkpt lat="47.01775" lon="5.9872">
        <ele>433</ele>
        <time>2019-03-28T11:32:29Z</time>
      </trkpt>
      <trkpt lat="47.01769" lon="5.98725">
        <ele>431</ele>
        <time>2019-03-28T11:32:37Z</time>
      </trkpt>
      <trkpt lat="47.0178" lon="5.98734">
        <ele>429</ele>
        <time>2019-03-28T11:32:59Z</time>
      </trkpt>
      <trkpt lat="47.01794" lon="5.98746">
        <ele>427</ele>
        <time>2019-03-28T11:33:20Z</time>
      </trkpt>
      <trkpt lat="47.01799" lon="5.98747">
        <ele>427</ele>
        <time>2019-03-28T11:33:25Z</time>
      </trkpt>
      <trkpt lat="47.01804" lon="5.98748">
        <ele>426</ele>
        <time>2019-03-28T11:33:33Z</time>
      </trkpt>
      <trkpt lat="47.01809" lon="5.9875">
        <ele>426</ele>
        <time>2019-03-28T11:33:39Z</time>
      </trkpt>
      <trkpt lat="47.01813" lon="5.98754">
        <ele>426</ele>
        <time>2019-03-28T11:33:43Z</time>
      </trkpt>
      <trkpt lat="47.01823" lon="5.98761">
        <ele>425</ele>
        <time>2019-03-28T11:33:55Z</time>
      </trkpt>
      <trkpt lat="47.01828" lon="5.98762">
        <ele>425</ele>
        <time>2019-03-28T11:34:00Z</time>
      </trkpt>
      <trkpt lat="47.01834" lon="5.98766">
        <ele>425</ele>
        <time>2019-03-28T11:34:06Z</time>
      </trkpt>
      <trkpt lat="47.01845" lon="5.9877">
        <ele>423</ele>
        <time>2019-03-28T11:34:17Z</time>
      </trkpt>
      <trkpt lat="47.01851" lon="5.98773">
        <ele>423</ele>
        <time>2019-03-28T11:34:25Z</time>
      </trkpt>
      <trkpt lat="47.01866" lon="5.98776">
        <ele>422</ele>
        <time>2019-03-28T11:34:40Z</time>
      </trkpt>
      <trkpt lat="47.01878" lon="5.98785">
        <ele>419</ele>
        <time>2019-03-28T11:34:59Z</time>
      </trkpt>
      <trkpt lat="47.01902" lon="5.988">
        <ele>418</ele>
        <time>2019-03-28T11:35:21Z</time>
      </trkpt>
      <trkpt lat="47.01908" lon="5.98801">
        <ele>418</ele>
        <time>2019-03-28T11:35:26Z</time>
      </trkpt>
      <trkpt lat="47.01913" lon="5.98804">
        <ele>417</ele>
        <time>2019-03-28T11:35:31Z</time>
      </trkpt>
      <trkpt lat="47.01924" lon="5.988">
        <ele>415</ele>
        <time>2019-03-28T11:35:42Z</time>
      </trkpt>
      <trkpt lat="47.01929" lon="5.98801">
        <ele>415</ele>
        <time>2019-03-28T11:35:47Z</time>
      </trkpt>
      <trkpt lat="47.0194" lon="5.98806">
        <ele>412</ele>
        <time>2019-03-28T11:35:57Z</time>
      </trkpt>
      <trkpt lat="47.01945" lon="5.98807">
        <ele>412</ele>
        <time>2019-03-28T11:36:02Z</time>
      </trkpt>
      <trkpt lat="47.01949" lon="5.9881">
        <ele>412</ele>
        <time>2019-03-28T11:36:07Z</time>
      </trkpt>
      <trkpt lat="47.01954" lon="5.98812">
        <ele>412</ele>
        <time>2019-03-28T11:36:12Z</time>
      </trkpt>
      <trkpt lat="47.01986" lon="5.98834">
        <ele>408</ele>
        <time>2019-03-28T11:36:48Z</time>
      </trkpt>
      <trkpt lat="47.01991" lon="5.98835">
        <ele>408</ele>
        <time>2019-03-28T11:36:53Z</time>
      </trkpt>
      <trkpt lat="47.01995" lon="5.98838">
        <ele>407</ele>
        <time>2019-03-28T11:36:58Z</time>
      </trkpt>
      <trkpt lat="47.02001" lon="5.98839">
        <ele>407</ele>
        <time>2019-03-28T11:37:03Z</time>
      </trkpt>
      <trkpt lat="47.02005" lon="5.98839">
        <ele>407</ele>
        <time>2019-03-28T11:37:07Z</time>
      </trkpt>
      <trkpt lat="47.0201" lon="5.98836">
        <ele>407</ele>
        <time>2019-03-28T11:37:12Z</time>
      </trkpt>
      <trkpt lat="47.02015" lon="5.98836">
        <ele>406</ele>
        <time>2019-03-28T11:37:17Z</time>
      </trkpt>
      <trkpt lat="47.02029" lon="5.98837">
        <ele>405</ele>
        <time>2019-03-28T11:37:34Z</time>
      </trkpt>
      <trkpt lat="47.02053" lon="5.9883">
        <ele>404</ele>
        <time>2019-03-28T11:37:56Z</time>
      </trkpt>
      <trkpt lat="47.02072" lon="5.98839">
        <ele>403</ele>
        <time>2019-03-28T11:38:16Z</time>
      </trkpt>
      <trkpt lat="47.02084" lon="5.98845">
        <ele>402</ele>
        <time>2019-03-28T11:38:31Z</time>
      </trkpt>
      <trkpt lat="47.02118" lon="5.9885">
        <ele>399</ele>
        <time>2019-03-28T11:39:09Z</time>
      </trkpt>
      <trkpt lat="47.02127" lon="5.98847">
        <ele>399</ele>
        <time>2019-03-28T11:39:18Z</time>
      </trkpt>
      <trkpt lat="47.02151" lon="5.98838">
        <ele>397</ele>
        <time>2019-03-28T11:39:40Z</time>
      </trkpt>
      <trkpt lat="47.02166" lon="5.98844">
        <ele>397</ele>
        <time>2019-03-28T11:39:59Z</time>
      </trkpt>
      <trkpt lat="47.0218" lon="5.98838">
        <ele>394</ele>
        <time>2019-03-28T11:40:16Z</time>
      </trkpt>
      <trkpt lat="47.02192" lon="5.98825">
        <ele>391</ele>
        <time>2019-03-28T11:40:47Z</time>
      </trkpt>
      <trkpt lat="47.022" lon="5.98819">
        <ele>391</ele>
        <time>2019-03-28T11:40:56Z</time>
      </trkpt>
      <trkpt lat="47.02208" lon="5.98815">
        <ele>392</ele>
        <time>2019-03-28T11:41:07Z</time>
      </trkpt>
      <trkpt lat="47.02235" lon="5.98805">
        <ele>390</ele>
        <time>2019-03-28T11:41:35Z</time>
      </trkpt>
      <trkpt lat="47.02243" lon="5.98798">
        <ele>389</ele>
        <time>2019-03-28T11:41:40Z</time>
      </trkpt>
      <trkpt lat="47.0225" lon="5.9879">
        <ele>388</ele>
        <time>2019-03-28T11:41:47Z</time>
      </trkpt>
      <trkpt lat="47.02259" lon="5.98787">
        <ele>387</ele>
        <time>2019-03-28T11:41:56Z</time>
      </trkpt>
      <trkpt lat="47.0228" lon="5.98786">
        <ele>386</ele>
        <time>2019-03-28T11:42:18Z</time>
      </trkpt>
      <trkpt lat="47.02291" lon="5.98781">
        <ele>385</ele>
        <time>2019-03-28T11:42:25Z</time>
      </trkpt>
      <trkpt lat="47.0231" lon="5.98767">
        <ele>382</ele>
        <time>2019-03-28T11:42:50Z</time>
      </trkpt>
      <trkpt lat="47.02317" lon="5.98756">
        <ele>381</ele>
        <time>2019-03-28T11:43:04Z</time>
      </trkpt>
      <trkpt lat="47.0233" lon="5.98749">
        <ele>381</ele>
        <time>2019-03-28T11:43:31Z</time>
      </trkpt>
      <trkpt lat="47.02345" lon="5.9874">
        <ele>381</ele>
        <time>2019-03-28T11:43:52Z</time>
      </trkpt>
      <trkpt lat="47.0237" lon="5.9872">
        <ele>380</ele>
        <time>2019-03-28T11:44:17Z</time>
      </trkpt>
      <trkpt lat="47.02389" lon="5.98709">
        <ele>379</ele>
        <time>2019-03-28T11:44:41Z</time>
      </trkpt>
      <trkpt lat="47.02397" lon="5.98701">
        <ele>377</ele>
        <time>2019-03-28T11:44:51Z</time>
      </trkpt>
      <trkpt lat="47.02407" lon="5.98693">
        <ele>378</ele>
        <time>2019-03-28T11:45:03Z</time>
      </trkpt>
      <trkpt lat="47.02413" lon="5.98683">
        <ele>378</ele>
        <time>2019-03-28T11:45:13Z</time>
      </trkpt>
      <trkpt lat="47.0242" lon="5.98672">
        <ele>378</ele>
        <time>2019-03-28T11:45:22Z</time>
      </trkpt>
      <trkpt lat="47.02429" lon="5.98644">
        <ele>381</ele>
        <time>2019-03-28T11:45:43Z</time>
      </trkpt>
      <trkpt lat="47.02426" lon="5.9863">
        <ele>382</ele>
        <time>2019-03-28T11:45:51Z</time>
      </trkpt>
      <trkpt lat="47.02419" lon="5.98621">
        <ele>383</ele>
        <time>2019-03-28T11:46:00Z</time>
      </trkpt>
      <trkpt lat="47.02416" lon="5.98618">
        <ele>383</ele>
        <time>2019-03-28T11:46:03Z</time>
      </trkpt>
      <trkpt lat="47.02409" lon="5.98615">
        <ele>384</ele>
        <time>2019-03-28T11:46:11Z</time>
      </trkpt>
      <trkpt lat="47.02404" lon="5.98612">
        <ele>384</ele>
        <time>2019-03-28T11:46:16Z</time>
      </trkpt>
      <trkpt lat="47.02399" lon="5.9861">
        <ele>383</ele>
        <time>2019-03-28T11:46:21Z</time>
      </trkpt>
      <trkpt lat="47.02382" lon="5.98601">
        <ele>384</ele>
        <time>2019-03-28T11:46:44Z</time>
      </trkpt>
      <trkpt lat="47.02378" lon="5.98596">
        <ele>384</ele>
        <time>2019-03-28T11:46:47Z</time>
      </trkpt>
      <trkpt lat="47.02373" lon="5.98594">
        <ele>384</ele>
        <time>2019-03-28T11:46:51Z</time>
      </trkpt>
      <trkpt lat="47.02363" lon="5.98586">
        <ele>385</ele>
        <time>2019-03-28T11:47:02Z</time>
      </trkpt>
      <trkpt lat="47.02357" lon="5.98581">
        <ele>385</ele>
        <time>2019-03-28T11:47:09Z</time>
      </trkpt>
      <trkpt lat="47.02352" lon="5.98578">
        <ele>384</ele>
        <time>2019-03-28T11:47:14Z</time>
      </trkpt>
      <trkpt lat="47.02347" lon="5.98575">
        <ele>384</ele>
        <time>2019-03-28T11:47:18Z</time>
      </trkpt>
      <trkpt lat="47.02343" lon="5.98572">
        <ele>384</ele>
        <time>2019-03-28T11:47:22Z</time>
      </trkpt>
      <trkpt lat="47.02338" lon="5.98565">
        <ele>384</ele>
        <time>2019-03-28T11:47:30Z</time>
      </trkpt>
      <trkpt lat="47.02343" lon="5.98562">
        <ele>383</ele>
        <time>2019-03-28T11:47:48Z</time>
      </trkpt>
      <trkpt lat="47.02347" lon="5.98563">
        <ele>382</ele>
        <time>2019-03-28T11:47:54Z</time>
      </trkpt>
      <trkpt lat="47.02352" lon="5.98561">
        <ele>382</ele>
        <time>2019-03-28T11:48:06Z</time>
      </trkpt>
      <trkpt lat="47.02358" lon="5.98558">
        <ele>384</ele>
        <time>2019-03-28T11:48:18Z</time>
      </trkpt>
      <trkpt lat="47.02381" lon="5.98564">
        <ele>386</ele>
        <time>2019-03-28T11:48:49Z</time>
      </trkpt>
      <trkpt lat="47.02385" lon="5.98568">
        <ele>385</ele>
        <time>2019-03-28T11:48:54Z</time>
      </trkpt>
      <trkpt lat="47.02389" lon="5.9857">
        <ele>385</ele>
        <time>2019-03-28T11:48:59Z</time>
      </trkpt>
      <trkpt lat="47.02394" lon="5.9857">
        <ele>385</ele>
        <time>2019-03-28T11:49:04Z</time>
      </trkpt>
      <trkpt lat="47.02413" lon="5.9857">
        <ele>383</ele>
        <time>2019-03-28T11:49:31Z</time>
      </trkpt>
      <trkpt lat="47.0242" lon="5.98575">
        <ele>382</ele>
        <time>2019-03-28T11:49:43Z</time>
      </trkpt>
      <trkpt lat="47.02428" lon="5.98575">
        <ele>381</ele>
        <time>2019-03-28T11:49:55Z</time>
      </trkpt>
      <trkpt lat="47.02434" lon="5.98577">
        <ele>379</ele>
        <time>2019-03-28T11:50:07Z</time>
      </trkpt>
      <trkpt lat="47.02447" lon="5.98579">
        <ele>376</ele>
        <time>2019-03-28T11:50:25Z</time>
      </trkpt>
      <trkpt lat="47.02456" lon="5.98583">
        <ele>375</ele>
        <time>2019-03-28T11:50:38Z</time>
      </trkpt>
      <trkpt lat="47.02457" lon="5.98575">
        <ele>368</ele>
        <time>2019-03-28T11:51:08Z</time>
      </trkpt>
      <trkpt lat="47.0245" lon="5.98558">
        <ele>367</ele>
        <time>2019-03-28T11:51:24Z</time>
      </trkpt>
      <trkpt lat="47.02441" lon="5.98553">
        <ele>365</ele>
        <time>2019-03-28T11:51:38Z</time>
      </trkpt>
      <trkpt lat="47.02434" lon="5.98542">
        <ele>364</ele>
        <time>2019-03-28T11:51:44Z</time>
      </trkpt>
      <trkpt lat="47.02433" lon="5.98522">
        <ele>362</ele>
        <time>2019-03-28T11:52:02Z</time>
      </trkpt>
      <trkpt lat="47.02449" lon="5.98536">
        <ele>357</ele>
        <time>2019-03-28T11:52:29Z</time>
      </trkpt>
      <trkpt lat="47.02455" lon="5.98545">
        <ele>357</ele>
        <time>2019-03-28T11:52:37Z</time>
      </trkpt>
      <trkpt lat="47.02464" lon="5.9855">
        <ele>356</ele>
        <time>2019-03-28T11:52:46Z</time>
      </trkpt>
      <trkpt lat="47.02473" lon="5.98549">
        <ele>357</ele>
        <time>2019-03-28T11:52:53Z</time>
      </trkpt>
      <trkpt lat="47.02487" lon="5.98549">
        <ele>356</ele>
        <time>2019-03-28T11:53:09Z</time>
      </trkpt>
      <trkpt lat="47.0249" lon="5.98564">
        <ele>355</ele>
        <time>2019-03-28T11:53:18Z</time>
      </trkpt>
      <trkpt lat="47.02496" lon="5.98575">
        <ele>355</ele>
        <time>2019-03-28T11:53:27Z</time>
      </trkpt>
      <trkpt lat="47.0251" lon="5.98579">
        <ele>352</ele>
        <time>2019-03-28T11:53:46Z</time>
      </trkpt>
      <trkpt lat="47.02518" lon="5.98583">
        <ele>353</ele>
        <time>2019-03-28T11:53:56Z</time>
      </trkpt>
      <trkpt lat="47.02535" lon="5.98587">
        <ele>351</ele>
        <time>2019-03-28T11:54:15Z</time>
      </trkpt>
      <trkpt lat="47.02546" lon="5.98585">
        <ele>350</ele>
        <time>2019-03-28T11:54:26Z</time>
      </trkpt>
      <trkpt lat="47.02553" lon="5.98576">
        <ele>350</ele>
        <time>2019-03-28T11:54:36Z</time>
      </trkpt>
      <trkpt lat="47.02557" lon="5.98553">
        <ele>351</ele>
        <time>2019-03-28T11:54:55Z</time>
      </trkpt>
      <trkpt lat="47.02557" lon="5.98531">
        <ele>351</ele>
        <time>2019-03-28T11:55:08Z</time>
      </trkpt>
      <trkpt lat="47.02566" lon="5.98508">
        <ele>350</ele>
        <time>2019-03-28T11:55:26Z</time>
      </trkpt>
      <trkpt lat="47.02573" lon="5.98498">
        <ele>350</ele>
        <time>2019-03-28T11:55:34Z</time>
      </trkpt>
      <trkpt lat="47.02577" lon="5.98486">
        <ele>350</ele>
        <time>2019-03-28T11:55:44Z</time>
      </trkpt>
      <trkpt lat="47.02585" lon="5.98468">
        <ele>352</ele>
        <time>2019-03-28T11:56:01Z</time>
      </trkpt>
      <trkpt lat="47.02591" lon="5.98455">
        <ele>353</ele>
        <time>2019-03-28T11:56:13Z</time>
      </trkpt>
      <trkpt lat="47.02598" lon="5.98445">
        <ele>355</ele>
        <time>2019-03-28T11:56:24Z</time>
      </trkpt>
      <trkpt lat="47.02605" lon="5.98433">
        <ele>355</ele>
        <time>2019-03-28T11:56:32Z</time>
      </trkpt>
      <trkpt lat="47.0261" lon="5.98424">
        <ele>355</ele>
        <time>2019-03-28T11:56:38Z</time>
      </trkpt>
      <trkpt lat="47.02613" lon="5.98411">
        <ele>356</ele>
        <time>2019-03-28T11:56:47Z</time>
      </trkpt>
      <trkpt lat="47.0261" lon="5.9839">
        <ele>359</ele>
        <time>2019-03-28T11:57:03Z</time>
      </trkpt>
      <trkpt lat="47.02619" lon="5.98372">
        <ele>359</ele>
        <time>2019-03-28T11:57:36Z</time>
      </trkpt>
      <trkpt lat="47.02608" lon="5.98354">
        <ele>361</ele>
        <time>2019-03-28T11:57:54Z</time>
      </trkpt>
      <trkpt lat="47.0261" lon="5.98341">
        <ele>362</ele>
        <time>2019-03-28T11:58:05Z</time>
      </trkpt>
      <trkpt lat="47.02615" lon="5.98328">
        <ele>362</ele>
        <time>2019-03-28T11:58:13Z</time>
      </trkpt>
      <trkpt lat="47.0262" lon="5.98317">
        <ele>366</ele>
        <time>2019-03-28T11:58:24Z</time>
      </trkpt>
      <trkpt lat="47.02628" lon="5.9831">
        <ele>367</ele>
        <time>2019-03-28T11:58:36Z</time>
      </trkpt>
      <trkpt lat="47.0264" lon="5.98309">
        <ele>368</ele>
        <time>2019-03-28T11:58:47Z</time>
      </trkpt>
      <trkpt lat="47.02651" lon="5.98318">
        <ele>368</ele>
        <time>2019-03-28T11:58:59Z</time>
      </trkpt>
      <trkpt lat="47.02676" lon="5.98331">
        <ele>366</ele>
        <time>2019-03-28T11:59:26Z</time>
      </trkpt>
      <trkpt lat="47.02684" lon="5.98333">
        <ele>365</ele>
        <time>2019-03-28T11:59:35Z</time>
      </trkpt>
      <trkpt lat="47.02693" lon="5.9834">
        <ele>365</ele>
        <time>2019-03-28T11:59:43Z</time>
      </trkpt>
      <trkpt lat="47.02716" lon="5.98353">
        <ele>361</ele>
        <time>2019-03-28T12:00:10Z</time>
      </trkpt>
      <trkpt lat="47.02725" lon="5.98356">
        <ele>361</ele>
        <time>2019-03-28T12:00:17Z</time>
      </trkpt>
      <trkpt lat="47.02744" lon="5.98359">
        <ele>361</ele>
        <time>2019-03-28T12:00:32Z</time>
      </trkpt>
      <trkpt lat="47.02754" lon="5.98368">
        <ele>359</ele>
        <time>2019-03-28T12:00:41Z</time>
      </trkpt>
      <trkpt lat="47.02772" lon="5.98375">
        <ele>359</ele>
        <time>2019-03-28T12:00:55Z</time>
      </trkpt>
      <trkpt lat="47.02781" lon="5.98383">
        <ele>358</ele>
        <time>2019-03-28T12:01:05Z</time>
      </trkpt>
      <trkpt lat="47.02805" lon="5.98404">
        <ele>354</ele>
        <time>2019-03-28T12:01:32Z</time>
      </trkpt>
      <trkpt lat="47.02836" lon="5.98425">
        <ele>351</ele>
        <time>2019-03-28T12:02:00Z</time>
      </trkpt>
      <trkpt lat="47.02847" lon="5.98429">
        <ele>351</ele>
        <time>2019-03-28T12:02:09Z</time>
      </trkpt>
      <trkpt lat="47.02857" lon="5.98431">
        <ele>350</ele>
        <time>2019-03-28T12:02:19Z</time>
      </trkpt>
      <trkpt lat="47.02866" lon="5.98434">
        <ele>350</ele>
        <time>2019-03-28T12:02:27Z</time>
      </trkpt>
      <trkpt lat="47.02875" lon="5.98438">
        <ele>350</ele>
        <time>2019-03-28T12:02:35Z</time>
      </trkpt>
      <trkpt lat="47.02893" lon="5.98434">
        <ele>349</ele>
        <time>2019-03-28T12:02:48Z</time>
      </trkpt>
      <trkpt lat="47.02902" lon="5.98439">
        <ele>347</ele>
        <time>2019-03-28T12:02:57Z</time>
      </trkpt>
      <trkpt lat="47.02912" lon="5.98442">
        <ele>348</ele>
        <time>2019-03-28T12:03:03Z</time>
      </trkpt>
      <trkpt lat="47.02924" lon="5.98446">
        <ele>347</ele>
        <time>2019-03-28T12:03:14Z</time>
      </trkpt>
      <trkpt lat="47.02953" lon="5.98442">
        <ele>345</ele>
        <time>2019-03-28T12:03:34Z</time>
      </trkpt>
      <trkpt lat="47.02962" lon="5.9844">
        <ele>344</ele>
        <time>2019-03-28T12:03:41Z</time>
      </trkpt>
      <trkpt lat="47.03" lon="5.98424">
        <ele>342</ele>
        <time>2019-03-28T12:04:15Z</time>
      </trkpt>
      <trkpt lat="47.0301" lon="5.9842">
        <ele>343</ele>
        <time>2019-03-28T12:04:23Z</time>
      </trkpt>
      <trkpt lat="47.03012" lon="5.98417">
        <ele>334</ele>
        <time>2019-03-28T12:05:32Z</time>
      </trkpt>
      <trkpt lat="47.03016" lon="5.98414">
        <ele>335</ele>
        <time>2019-03-28T12:05:36Z</time>
      </trkpt>
      <trkpt lat="47.03021" lon="5.98408">
        <ele>336</ele>
        <time>2019-03-28T12:05:43Z</time>
      </trkpt>
      <trkpt lat="47.03025" lon="5.98404">
        <ele>335</ele>
        <time>2019-03-28T12:05:48Z</time>
      </trkpt>
      <trkpt lat="47.03029" lon="5.98398">
        <ele>336</ele>
        <time>2019-03-28T12:05:52Z</time>
      </trkpt>
      <trkpt lat="47.03038" lon="5.98387">
        <ele>340</ele>
        <time>2019-03-28T12:06:01Z</time>
      </trkpt>
      <trkpt lat="47.03041" lon="5.98382">
        <ele>340</ele>
        <time>2019-03-28T12:06:04Z</time>
      </trkpt>
      <trkpt lat="47.03045" lon="5.98378">
        <ele>340</ele>
        <time>2019-03-28T12:06:08Z</time>
      </trkpt>
      <trkpt lat="47.0305" lon="5.98371">
        <ele>339</ele>
        <time>2019-03-28T12:06:14Z</time>
      </trkpt>
      <trkpt lat="47.03061" lon="5.98353">
        <ele>340</ele>
        <time>2019-03-28T12:06:33Z</time>
      </trkpt>
      <trkpt lat="47.03066" lon="5.98343">
        <ele>340</ele>
        <time>2019-03-28T12:06:41Z</time>
      </trkpt>
      <trkpt lat="47.03067" lon="5.98331">
        <ele>338</ele>
        <time>2019-03-28T12:07:01Z</time>
      </trkpt>
      <trkpt lat="47.0307" lon="5.98327">
        <ele>338</ele>
        <time>2019-03-28T12:07:06Z</time>
      </trkpt>
      <trkpt lat="47.03073" lon="5.98319">
        <ele>338</ele>
        <time>2019-03-28T12:07:14Z</time>
      </trkpt>
      <trkpt lat="47.03075" lon="5.98312">
        <ele>337</ele>
        <time>2019-03-28T12:07:20Z</time>
      </trkpt>
      <trkpt lat="47.03077" lon="5.98305">
        <ele>337</ele>
        <time>2019-03-28T12:07:26Z</time>
      </trkpt>
      <trkpt lat="47.03046" lon="5.98272">
        <ele>332</ele>
        <time>2019-03-28T12:07:57Z</time>
      </trkpt>
      <trkpt lat="47.03041" lon="5.98267">
        <ele>331</ele>
        <time>2019-03-28T12:08:01Z</time>
      </trkpt>
      <trkpt lat="47.03036" lon="5.98265">
        <ele>331</ele>
        <time>2019-03-28T12:08:05Z</time>
      </trkpt>
      <trkpt lat="47.0303" lon="5.98265">
        <ele>330</ele>
        <time>2019-03-28T12:08:09Z</time>
      </trkpt>
      <trkpt lat="47.03024" lon="5.98264">
        <ele>331</ele>
        <time>2019-03-28T12:08:14Z</time>
      </trkpt>
      <trkpt lat="47.03019" lon="5.98262">
        <ele>331</ele>
        <time>2019-03-28T12:08:18Z</time>
      </trkpt>
      <trkpt lat="47.03016" lon="5.98257">
        <ele>331</ele>
        <time>2019-03-28T12:08:22Z</time>
      </trkpt>
      <trkpt lat="47.0301" lon="5.98234">
        <ele>330</ele>
        <time>2019-03-28T12:08:41Z</time>
      </trkpt>
      <trkpt lat="47.03007" lon="5.98229">
        <ele>330</ele>
        <time>2019-03-28T12:08:44Z</time>
      </trkpt>
      <trkpt lat="47.02994" lon="5.9819">
        <ele>328</ele>
        <time>2019-03-28T12:09:07Z</time>
      </trkpt>
      <trkpt lat="47.02991" lon="5.98176">
        <ele>328</ele>
        <time>2019-03-28T12:09:14Z</time>
      </trkpt>
      <trkpt lat="47.02988" lon="5.98149">
        <ele>330</ele>
        <time>2019-03-28T12:09:28Z</time>
      </trkpt>
      <trkpt lat="47.0299" lon="5.98122">
        <ele>331</ele>
        <time>2019-03-28T12:09:42Z</time>
      </trkpt>
      <trkpt lat="47.02998" lon="5.98053">
        <ele>331</ele>
        <time>2019-03-28T12:10:19Z</time>
      </trkpt>
      <trkpt lat="47.03002" lon="5.98027">
        <ele>331</ele>
        <time>2019-03-28T12:10:34Z</time>
      </trkpt>
      <trkpt lat="47.03002" lon="5.98012">
        <ele>330</ele>
        <time>2019-03-28T12:10:43Z</time>
      </trkpt>
      <trkpt lat="47.03002" lon="5.97999">
        <ele>331</ele>
        <time>2019-03-28T12:10:50Z</time>
      </trkpt>
      <trkpt lat="47.03007" lon="5.97971">
        <ele>332</ele>
        <time>2019-03-28T12:11:05Z</time>
      </trkpt>
      <trkpt lat="47.03013" lon="5.9793">
        <ele>333</ele>
        <time>2019-03-28T12:11:28Z</time>
      </trkpt>
      <trkpt lat="47.03016" lon="5.97857">
        <ele>333</ele>
        <time>2019-03-28T12:12:04Z</time>
      </trkpt>
      <trkpt lat="47.03018" lon="5.97828">
        <ele>333</ele>
        <time>2019-03-28T12:12:20Z</time>
      </trkpt>
      <trkpt lat="47.03021" lon="5.97801">
        <ele>333</ele>
        <time>2019-03-28T12:12:34Z</time>
      </trkpt>
      <trkpt lat="47.03021" lon="5.97794">
        <ele>332</ele>
        <time>2019-03-28T12:12:38Z</time>
      </trkpt>
      <trkpt lat="47.03021" lon="5.97772">
        <ele>331</ele>
        <time>2019-03-28T12:12:51Z</time>
      </trkpt>
      <trkpt lat="47.03021" lon="5.97765">
        <ele>330</ele>
        <time>2019-03-28T12:12:55Z</time>
      </trkpt>
      <trkpt lat="47.03022" lon="5.97757">
        <ele>330</ele>
        <time>2019-03-28T12:13:00Z</time>
      </trkpt>
      <trkpt lat="47.03025" lon="5.97718">
        <ele>331</ele>
        <time>2019-03-28T12:13:20Z</time>
      </trkpt>
      <trkpt lat="47.03025" lon="5.97711">
        <ele>330</ele>
        <time>2019-03-28T12:13:24Z</time>
      </trkpt>
      <trkpt lat="47.03019" lon="5.97646">
        <ele>326</ele>
        <time>2019-03-28T12:13:59Z</time>
      </trkpt>
      <trkpt lat="47.03018" lon="5.97633">
        <ele>327</ele>
        <time>2019-03-28T12:14:06Z</time>
      </trkpt>
      <trkpt lat="47.03018" lon="5.97592">
        <ele>325</ele>
        <time>2019-03-28T12:14:29Z</time>
      </trkpt>
      <trkpt lat="47.03014" lon="5.97535">
        <ele>325</ele>
        <time>2019-03-28T12:15:00Z</time>
      </trkpt>
      <trkpt lat="47.03016" lon="5.97522">
        <ele>324</ele>
        <time>2019-03-28T12:15:08Z</time>
      </trkpt>
      <trkpt lat="47.03017" lon="5.97508">
        <ele>325</ele>
        <time>2019-03-28T12:15:17Z</time>
      </trkpt>
      <trkpt lat="47.03013" lon="5.97496">
        <ele>325</ele>
        <time>2019-03-28T12:15:35Z</time>
      </trkpt>
      <trkpt lat="47.03014" lon="5.97479">
        <ele>326</ele>
        <time>2019-03-28T12:19:34Z</time>
      </trkpt>
      <trkpt lat="47.03016" lon="5.97464">
        <ele>325</ele>
        <time>2019-03-28T12:19:42Z</time>
      </trkpt>
      <trkpt lat="47.03024" lon="5.97408">
        <ele>327</ele>
        <time>2019-03-28T12:20:13Z</time>
      </trkpt>
      <trkpt lat="47.03033" lon="5.97341">
        <ele>330</ele>
        <time>2019-03-28T12:20:47Z</time>
      </trkpt>
      <trkpt lat="47.03035" lon="5.97326">
        <ele>331</ele>
        <time>2019-03-28T12:20:55Z</time>
      </trkpt>
      <trkpt lat="47.03035" lon="5.97312">
        <ele>330</ele>
        <time>2019-03-28T12:21:03Z</time>
      </trkpt>
      <trkpt lat="47.03035" lon="5.9727">
        <ele>332</ele>
        <time>2019-03-28T12:21:25Z</time>
      </trkpt>
      <trkpt lat="47.03038" lon="5.97256">
        <ele>332</ele>
        <time>2019-03-28T12:21:32Z</time>
      </trkpt>
      <trkpt lat="47.03041" lon="5.97243">
        <ele>333</ele>
        <time>2019-03-28T12:21:39Z</time>
      </trkpt>
      <trkpt lat="47.03042" lon="5.97236">
        <ele>333</ele>
        <time>2019-03-28T12:21:43Z</time>
      </trkpt>
      <trkpt lat="47.03044" lon="5.97219">
        <ele>334</ele>
        <time>2019-03-28T12:21:51Z</time>
      </trkpt>
      <trkpt lat="47.03044" lon="5.97213">
        <ele>331</ele>
        <time>2019-03-28T12:21:56Z</time>
      </trkpt>
      <trkpt lat="47.03046" lon="5.97195">
        <ele>331</ele>
        <time>2019-03-28T12:22:08Z</time>
      </trkpt>
      <trkpt lat="47.03048" lon="5.97181">
        <ele>331</ele>
        <time>2019-03-28T12:22:16Z</time>
      </trkpt>
      <trkpt lat="47.03051" lon="5.97167">
        <ele>330</ele>
        <time>2019-03-28T12:22:24Z</time>
      </trkpt>
      <trkpt lat="47.03053" lon="5.9716">
        <ele>330</ele>
        <time>2019-03-28T12:22:27Z</time>
      </trkpt>
      <trkpt lat="47.03054" lon="5.97152">
        <ele>331</ele>
        <time>2019-03-28T12:22:31Z</time>
      </trkpt>
      <trkpt lat="47.03056" lon="5.97146">
        <ele>330</ele>
        <time>2019-03-28T12:22:35Z</time>
      </trkpt>
      <trkpt lat="47.03062" lon="5.97115">
        <ele>329</ele>
        <time>2019-03-28T12:22:51Z</time>
      </trkpt>
      <trkpt lat="47.03063" lon="5.97108">
        <ele>329</ele>
        <time>2019-03-28T12:22:55Z</time>
      </trkpt>
      <trkpt lat="47.03064" lon="5.97101">
        <ele>329</ele>
        <time>2019-03-28T12:22:59Z</time>
      </trkpt>
      <trkpt lat="47.03064" lon="5.97094">
        <ele>329</ele>
        <time>2019-03-28T12:23:03Z</time>
      </trkpt>
      <trkpt lat="47.03066" lon="5.97086">
        <ele>329</ele>
        <time>2019-03-28T12:23:07Z</time>
      </trkpt>
      <trkpt lat="47.03067" lon="5.97078">
        <ele>328</ele>
        <time>2019-03-28T12:23:12Z</time>
      </trkpt>
      <trkpt lat="47.03073" lon="5.97011">
        <ele>331</ele>
        <time>2019-03-28T12:23:47Z</time>
      </trkpt>
      <trkpt lat="47.03075" lon="5.96997">
        <ele>331</ele>
        <time>2019-03-28T12:23:54Z</time>
      </trkpt>
      <trkpt lat="47.03074" lon="5.96983">
        <ele>332</ele>
        <time>2019-03-28T12:24:02Z</time>
      </trkpt>
      <trkpt lat="47.03075" lon="5.9697">
        <ele>331</ele>
        <time>2019-03-28T12:24:10Z</time>
      </trkpt>
      <trkpt lat="47.03077" lon="5.96956">
        <ele>330</ele>
        <time>2019-03-28T12:24:18Z</time>
      </trkpt>
      <trkpt lat="47.03078" lon="5.96943">
        <ele>330</ele>
        <time>2019-03-28T12:24:26Z</time>
      </trkpt>
      <trkpt lat="47.03075" lon="5.96931">
        <ele>328</ele>
        <time>2019-03-28T12:24:35Z</time>
      </trkpt>
      <trkpt lat="47.0307" lon="5.96888">
        <ele>328</ele>
        <time>2019-03-28T12:24:59Z</time>
      </trkpt>
      <trkpt lat="47.03069" lon="5.96875">
        <ele>326</ele>
        <time>2019-03-28T12:25:07Z</time>
      </trkpt>
      <trkpt lat="47.03069" lon="5.96861">
        <ele>326</ele>
        <time>2019-03-28T12:25:16Z</time>
      </trkpt>
      <trkpt lat="47.03065" lon="5.96833">
        <ele>324</ele>
        <time>2019-03-28T12:25:32Z</time>
      </trkpt>
      <trkpt lat="47.03065" lon="5.96819">
        <ele>325</ele>
        <time>2019-03-28T12:25:40Z</time>
      </trkpt>
      <trkpt lat="47.03065" lon="5.96805">
        <ele>325</ele>
        <time>2019-03-28T12:25:49Z</time>
      </trkpt>
      <trkpt lat="47.03062" lon="5.96792">
        <ele>324</ele>
        <time>2019-03-28T12:26:03Z</time>
      </trkpt>
      <trkpt lat="47.0306" lon="5.96778">
        <ele>324</ele>
        <time>2019-03-28T12:26:14Z</time>
      </trkpt>
      <trkpt lat="47.03057" lon="5.96764">
        <ele>325</ele>
        <time>2019-03-28T12:26:23Z</time>
      </trkpt>
      <trkpt lat="47.03065" lon="5.96724">
        <ele>329</ele>
        <time>2019-03-28T12:26:57Z</time>
      </trkpt>
      <trkpt lat="47.03079" lon="5.96705">
        <ele>331</ele>
        <time>2019-03-28T12:27:15Z</time>
      </trkpt>
      <trkpt lat="47.03095" lon="5.96698">
        <ele>333</ele>
        <time>2019-03-28T12:27:36Z</time>
      </trkpt>
      <trkpt lat="47.03106" lon="5.96699">
        <ele>334</ele>
        <time>2019-03-28T12:27:49Z</time>
      </trkpt>
      <trkpt lat="47.03129" lon="5.96692">
        <ele>337</ele>
        <time>2019-03-28T12:28:16Z</time>
      </trkpt>
      <trkpt lat="47.03134" lon="5.9669">
        <ele>339</ele>
        <time>2019-03-28T12:28:22Z</time>
      </trkpt>
      <trkpt lat="47.03145" lon="5.96691">
        <ele>342</ele>
        <time>2019-03-28T12:28:33Z</time>
      </trkpt>
      <trkpt lat="47.03151" lon="5.96691">
        <ele>342</ele>
        <time>2019-03-28T12:28:40Z</time>
      </trkpt>
      <trkpt lat="47.03156" lon="5.96693">
        <ele>342</ele>
        <time>2019-03-28T12:28:46Z</time>
      </trkpt>
      <trkpt lat="47.03163" lon="5.96693">
        <ele>343</ele>
        <time>2019-03-28T12:28:54Z</time>
      </trkpt>
      <trkpt lat="47.03165" lon="5.96699">
        <ele>344</ele>
        <time>2019-03-28T12:29:06Z</time>
      </trkpt>
      <trkpt lat="47.03168" lon="5.96705">
        <ele>345</ele>
        <time>2019-03-28T12:29:12Z</time>
      </trkpt>
      <trkpt lat="47.03172" lon="5.96713">
        <ele>346</ele>
        <time>2019-03-28T12:29:24Z</time>
      </trkpt>
      <trkpt lat="47.03176" lon="5.96712">
        <ele>345</ele>
        <time>2019-03-28T12:29:29Z</time>
      </trkpt>
      <trkpt lat="47.03182" lon="5.96711">
        <ele>345</ele>
        <time>2019-03-28T12:29:39Z</time>
      </trkpt>
      <trkpt lat="47.03179" lon="5.96711">
        <ele>348</ele>
        <time>2019-03-28T12:30:29Z</time>
      </trkpt>
      <trkpt lat="47.03174" lon="5.96712">
        <ele>348</ele>
        <time>2019-03-28T12:30:33Z</time>
      </trkpt>
      <trkpt lat="47.03176" lon="5.96702">
        <ele>346</ele>
        <time>2019-03-28T12:30:42Z</time>
      </trkpt>
      <trkpt lat="47.03191" lon="5.96694">
        <ele>347</ele>
        <time>2019-03-28T12:30:54Z</time>
      </trkpt>
      <trkpt lat="47.03194" lon="5.9669">
        <ele>347</ele>
        <time>2019-03-28T12:30:58Z</time>
      </trkpt>
      <trkpt lat="47.03198" lon="5.96684">
        <ele>346</ele>
        <time>2019-03-28T12:31:06Z</time>
      </trkpt>
      <trkpt lat="47.03204" lon="5.96681">
        <ele>347</ele>
        <time>2019-03-28T12:31:11Z</time>
      </trkpt>
      <trkpt lat="47.03209" lon="5.96679">
        <ele>347</ele>
        <time>2019-03-28T12:31:15Z</time>
      </trkpt>
      <trkpt lat="47.03219" lon="5.9667">
        <ele>348</ele>
        <time>2019-03-28T12:31:23Z</time>
      </trkpt>
      <trkpt lat="47.03223" lon="5.96665">
        <ele>348</ele>
        <time>2019-03-28T12:31:27Z</time>
      </trkpt>
      <trkpt lat="47.03234" lon="5.96652">
        <ele>349</ele>
        <time>2019-03-28T12:31:39Z</time>
      </trkpt>
      <trkpt lat="47.03239" lon="5.96648">
        <ele>348</ele>
        <time>2019-03-28T12:31:43Z</time>
      </trkpt>
      <trkpt lat="47.03251" lon="5.96634">
        <ele>348</ele>
        <time>2019-03-28T12:31:55Z</time>
      </trkpt>
      <trkpt lat="47.03257" lon="5.96624">
        <ele>347</ele>
        <time>2019-03-28T12:32:03Z</time>
      </trkpt>
      <trkpt lat="47.03269" lon="5.96609">
        <ele>348</ele>
        <time>2019-03-28T12:32:15Z</time>
      </trkpt>
      <trkpt lat="47.03272" lon="5.96604">
        <ele>348</ele>
        <time>2019-03-28T12:32:19Z</time>
      </trkpt>
      <trkpt lat="47.03276" lon="5.96597">
        <ele>347</ele>
        <time>2019-03-28T12:33:10Z</time>
      </trkpt>
      <trkpt lat="47.03283" lon="5.96584">
        <ele>343</ele>
        <time>2019-03-28T12:33:18Z</time>
      </trkpt>
      <trkpt lat="47.03285" lon="5.96577">
        <ele>343</ele>
        <time>2019-03-28T12:33:22Z</time>
      </trkpt>
      <trkpt lat="47.03289" lon="5.96572">
        <ele>343</ele>
        <time>2019-03-28T12:33:26Z</time>
      </trkpt>
      <trkpt lat="47.03293" lon="5.9657">
        <ele>343</ele>
        <time>2019-03-28T12:33:34Z</time>
      </trkpt>
      <trkpt lat="47.03301" lon="5.96565">
        <ele>343</ele>
        <time>2019-03-28T12:33:45Z</time>
      </trkpt>
      <trkpt lat="47.03307" lon="5.96563">
        <ele>344</ele>
        <time>2019-03-28T12:33:53Z</time>
      </trkpt>
      <trkpt lat="47.03312" lon="5.96561">
        <ele>344</ele>
        <time>2019-03-28T12:33:58Z</time>
      </trkpt>
      <trkpt lat="47.03333" lon="5.96551">
        <ele>346</ele>
        <time>2019-03-28T12:34:21Z</time>
      </trkpt>
      <trkpt lat="47.03338" lon="5.96549">
        <ele>346</ele>
        <time>2019-03-28T12:34:26Z</time>
      </trkpt>
      <trkpt lat="47.03344" lon="5.96549">
        <ele>346</ele>
        <time>2019-03-28T12:34:32Z</time>
      </trkpt>
      <trkpt lat="47.03353" lon="5.96545">
        <ele>345</ele>
        <time>2019-03-28T12:34:42Z</time>
      </trkpt>
      <trkpt lat="47.03363" lon="5.9654">
        <ele>345</ele>
        <time>2019-03-28T12:34:52Z</time>
      </trkpt>
      <trkpt lat="47.03383" lon="5.96536">
        <ele>346</ele>
        <time>2019-03-28T12:35:10Z</time>
      </trkpt>
      <trkpt lat="47.03398" lon="5.96535">
        <ele>347</ele>
        <time>2019-03-28T12:35:24Z</time>
      </trkpt>
      <trkpt lat="47.03423" lon="5.96534">
        <ele>350</ele>
        <time>2019-03-28T12:35:48Z</time>
      </trkpt>
      <trkpt lat="47.03428" lon="5.96533">
        <ele>350</ele>
        <time>2019-03-28T12:35:53Z</time>
      </trkpt>
      <trkpt lat="47.03434" lon="5.96534">
        <ele>350</ele>
        <time>2019-03-28T12:35:58Z</time>
      </trkpt>
      <trkpt lat="47.03438" lon="5.96534">
        <ele>350</ele>
        <time>2019-03-28T12:36:03Z</time>
      </trkpt>
      <trkpt lat="47.03443" lon="5.96534">
        <ele>350</ele>
        <time>2019-03-28T12:36:08Z</time>
      </trkpt>
      <trkpt lat="47.03448" lon="5.96536">
        <ele>350</ele>
        <time>2019-03-28T12:36:13Z</time>
      </trkpt>
      <trkpt lat="47.03458" lon="5.96533">
        <ele>350</ele>
        <time>2019-03-28T12:36:21Z</time>
      </trkpt>
      <trkpt lat="47.03467" lon="5.9653">
        <ele>350</ele>
        <time>2019-03-28T12:36:29Z</time>
      </trkpt>
      <trkpt lat="47.03472" lon="5.9653">
        <ele>351</ele>
        <time>2019-03-28T12:36:33Z</time>
      </trkpt>
      <trkpt lat="47.03482" lon="5.96533">
        <ele>351</ele>
        <time>2019-03-28T12:36:40Z</time>
      </trkpt>
      <trkpt lat="47.03486" lon="5.96535">
        <ele>351</ele>
        <time>2019-03-28T12:36:44Z</time>
      </trkpt>
      <trkpt lat="47.0349" lon="5.96537">
        <ele>351</ele>
        <time>2019-03-28T12:36:48Z</time>
      </trkpt>
      <trkpt lat="47.03494" lon="5.96541">
        <ele>351</ele>
        <time>2019-03-28T12:36:52Z</time>
      </trkpt>
      <trkpt lat="47.03499" lon="5.96542">
        <ele>351</ele>
        <time>2019-03-28T12:36:56Z</time>
      </trkpt>
      <trkpt lat="47.03515" lon="5.96552">
        <ele>355</ele>
        <time>2019-03-28T12:37:13Z</time>
      </trkpt>
      <trkpt lat="47.03525" lon="5.96559">
        <ele>355</ele>
        <time>2019-03-28T12:37:23Z</time>
      </trkpt>
      <trkpt lat="47.03534" lon="5.96564">
        <ele>356</ele>
        <time>2019-03-28T12:37:32Z</time>
      </trkpt>
      <trkpt lat="47.03537" lon="5.9657">
        <ele>357</ele>
        <time>2019-03-28T12:37:36Z</time>
      </trkpt>
      <trkpt lat="47.03541" lon="5.96575">
        <ele>357</ele>
        <time>2019-03-28T12:37:41Z</time>
      </trkpt>
      <trkpt lat="47.03548" lon="5.96586">
        <ele>359</ele>
        <time>2019-03-28T12:37:50Z</time>
      </trkpt>
      <trkpt lat="47.03552" lon="5.96592">
        <ele>359</ele>
        <time>2019-03-28T12:37:55Z</time>
      </trkpt>
      <trkpt lat="47.03559" lon="5.96603">
        <ele>360</ele>
        <time>2019-03-28T12:38:04Z</time>
      </trkpt>
      <trkpt lat="47.03585" lon="5.9663">
        <ele>363</ele>
        <time>2019-03-28T12:38:37Z</time>
      </trkpt>
      <trkpt lat="47.03613" lon="5.9666">
        <ele>368</ele>
        <time>2019-03-28T12:39:10Z</time>
      </trkpt>
      <trkpt lat="47.03617" lon="5.96664">
        <ele>368</ele>
        <time>2019-03-28T12:39:14Z</time>
      </trkpt>
      <trkpt lat="47.03621" lon="5.96668">
        <ele>368</ele>
        <time>2019-03-28T12:39:19Z</time>
      </trkpt>
      <trkpt lat="47.03625" lon="5.96672">
        <ele>368</ele>
        <time>2019-03-28T12:39:23Z</time>
      </trkpt>
      <trkpt lat="47.03629" lon="5.96677">
        <ele>368</ele>
        <time>2019-03-28T12:39:28Z</time>
      </trkpt>
      <trkpt lat="47.03633" lon="5.96681">
        <ele>368</ele>
        <time>2019-03-28T12:39:33Z</time>
      </trkpt>
      <trkpt lat="47.03643" lon="5.9669">
        <ele>370</ele>
        <time>2019-03-28T12:39:43Z</time>
      </trkpt>
      <trkpt lat="47.03661" lon="5.96705">
        <ele>371</ele>
        <time>2019-03-28T12:40:03Z</time>
      </trkpt>
      <trkpt lat="47.03671" lon="5.96711">
        <ele>373</ele>
        <time>2019-03-28T12:40:13Z</time>
      </trkpt>
      <trkpt lat="47.03675" lon="5.96714">
        <ele>373</ele>
        <time>2019-03-28T12:40:17Z</time>
      </trkpt>
      <trkpt lat="47.03679" lon="5.96716">
        <ele>373</ele>
        <time>2019-03-28T12:40:22Z</time>
      </trkpt>
      <trkpt lat="47.03685" lon="5.96721">
        <ele>374</ele>
        <time>2019-03-28T12:40:28Z</time>
      </trkpt>
      <trkpt lat="47.03717" lon="5.96752">
        <ele>376</ele>
        <time>2019-03-28T12:41:02Z</time>
      </trkpt>
      <trkpt lat="47.03724" lon="5.96762">
        <ele>377</ele>
        <time>2019-03-28T12:41:11Z</time>
      </trkpt>
      <trkpt lat="47.03732" lon="5.96771">
        <ele>377</ele>
        <time>2019-03-28T12:41:19Z</time>
      </trkpt>
      <trkpt lat="47.03747" lon="5.9679">
        <ele>381</ele>
        <time>2019-03-28T12:41:35Z</time>
      </trkpt>
      <trkpt lat="47.03751" lon="5.96795">
        <ele>381</ele>
        <time>2019-03-28T12:41:39Z</time>
      </trkpt>
      <trkpt lat="47.03759" lon="5.96802">
        <ele>383</ele>
        <time>2019-03-28T12:41:48Z</time>
      </trkpt>
      <trkpt lat="47.03762" lon="5.96806">
        <ele>383</ele>
        <time>2019-03-28T12:41:52Z</time>
      </trkpt>
      <trkpt lat="47.03767" lon="5.9681">
        <ele>383</ele>
        <time>2019-03-28T12:41:57Z</time>
      </trkpt>
      <trkpt lat="47.0377" lon="5.96817">
        <ele>384</ele>
        <time>2019-03-28T12:42:01Z</time>
      </trkpt>
      <trkpt lat="47.03773" lon="5.96821">
        <ele>384</ele>
        <time>2019-03-28T12:42:05Z</time>
      </trkpt>
      <trkpt lat="47.0378" lon="5.9683">
        <ele>385</ele>
        <time>2019-03-28T12:42:13Z</time>
      </trkpt>
      <trkpt lat="47.03786" lon="5.96833">
        <ele>385</ele>
        <time>2019-03-28T12:42:18Z</time>
      </trkpt>
      <trkpt lat="47.03799" lon="5.96843">
        <ele>387</ele>
        <time>2019-03-28T12:42:32Z</time>
      </trkpt>
      <trkpt lat="47.0381" lon="5.9686">
        <ele>389</ele>
        <time>2019-03-28T12:42:46Z</time>
      </trkpt>
      <trkpt lat="47.03815" lon="5.96857">
        <ele>388</ele>
        <time>2019-03-28T12:42:51Z</time>
      </trkpt>
      <trkpt lat="47.03818" lon="5.96852">
        <ele>390</ele>
        <time>2019-03-28T12:43:05Z</time>
      </trkpt>
      <trkpt lat="47.03808" lon="5.96833">
        <ele>389</ele>
        <time>2019-03-28T12:43:24Z</time>
      </trkpt>
      <trkpt lat="47.03804" lon="5.96825">
        <ele>389</ele>
        <time>2019-03-28T12:43:31Z</time>
      </trkpt>
      <trkpt lat="47.03801" lon="5.96819">
        <ele>389</ele>
        <time>2019-03-28T12:43:35Z</time>
      </trkpt>
      <trkpt lat="47.03798" lon="5.96814">
        <ele>389</ele>
        <time>2019-03-28T12:43:39Z</time>
      </trkpt>
      <trkpt lat="47.03794" lon="5.96809">
        <ele>389</ele>
        <time>2019-03-28T12:43:44Z</time>
      </trkpt>
      <trkpt lat="47.03783" lon="5.96794">
        <ele>388</ele>
        <time>2019-03-28T12:43:57Z</time>
      </trkpt>
      <trkpt lat="47.03771" lon="5.96779">
        <ele>389</ele>
        <time>2019-03-28T12:44:12Z</time>
      </trkpt>
      <trkpt lat="47.03767" lon="5.96774">
        <ele>389</ele>
        <time>2019-03-28T12:44:17Z</time>
      </trkpt>
      <trkpt lat="47.03764" lon="5.96768">
        <ele>389</ele>
        <time>2019-03-28T12:44:22Z</time>
      </trkpt>
      <trkpt lat="47.03755" lon="5.96752">
        <ele>388</ele>
        <time>2019-03-28T12:44:34Z</time>
      </trkpt>
      <trkpt lat="47.03752" lon="5.96747">
        <ele>388</ele>
        <time>2019-03-28T12:44:39Z</time>
      </trkpt>
      <trkpt lat="47.03749" lon="5.9674">
        <ele>388</ele>
        <time>2019-03-28T12:44:44Z</time>
      </trkpt>
      <trkpt lat="47.03746" lon="5.96734">
        <ele>388</ele>
        <time>2019-03-28T12:44:48Z</time>
      </trkpt>
      <trkpt lat="47.03743" lon="5.96721">
        <ele>387</ele>
        <time>2019-03-28T12:44:59Z</time>
      </trkpt>
      <trkpt lat="47.03745" lon="5.96714">
        <ele>388</ele>
        <time>2019-03-28T12:45:03Z</time>
      </trkpt>
      <trkpt lat="47.03735" lon="5.96703">
        <ele>390</ele>
        <time>2019-03-28T12:45:22Z</time>
      </trkpt>
      <trkpt lat="47.03731" lon="5.96697">
        <ele>390</ele>
        <time>2019-03-28T12:45:26Z</time>
      </trkpt>
      <trkpt lat="47.03727" lon="5.96692">
        <ele>390</ele>
        <time>2019-03-28T12:45:31Z</time>
      </trkpt>
      <trkpt lat="47.03719" lon="5.96679">
        <ele>389</ele>
        <time>2019-03-28T12:45:41Z</time>
      </trkpt>
      <trkpt lat="47.03715" lon="5.96673">
        <ele>390</ele>
        <time>2019-03-28T12:45:46Z</time>
      </trkpt>
      <trkpt lat="47.0371" lon="5.96668">
        <ele>389</ele>
        <time>2019-03-28T12:45:51Z</time>
      </trkpt>
      <trkpt lat="47.03702" lon="5.96659">
        <ele>390</ele>
        <time>2019-03-28T12:45:59Z</time>
      </trkpt>
      <trkpt lat="47.03698" lon="5.96654">
        <ele>389</ele>
        <time>2019-03-28T12:46:03Z</time>
      </trkpt>
      <trkpt lat="47.03681" lon="5.96618">
        <ele>391</ele>
        <time>2019-03-28T12:46:27Z</time>
      </trkpt>
      <trkpt lat="47.03671" lon="5.96588">
        <ele>393</ele>
        <time>2019-03-28T12:46:50Z</time>
      </trkpt>
      <trkpt lat="47.03665" lon="5.96579">
        <ele>394</ele>
        <time>2019-03-28T12:46:59Z</time>
      </trkpt>
      <trkpt lat="47.03661" lon="5.96567">
        <ele>394</ele>
        <time>2019-03-28T12:47:07Z</time>
      </trkpt>
      <trkpt lat="47.03655" lon="5.96556">
        <ele>394</ele>
        <time>2019-03-28T12:47:17Z</time>
      </trkpt>
      <trkpt lat="47.03648" lon="5.96538">
        <ele>395</ele>
        <time>2019-03-28T12:47:32Z</time>
      </trkpt>
      <trkpt lat="47.03646" lon="5.96514">
        <ele>397</ele>
        <time>2019-03-28T12:47:49Z</time>
      </trkpt>
      <trkpt lat="47.03643" lon="5.96488">
        <ele>400</ele>
        <time>2019-03-28T12:48:15Z</time>
      </trkpt>
      <trkpt lat="47.03641" lon="5.9647">
        <ele>401</ele>
        <time>2019-03-28T12:48:29Z</time>
      </trkpt>
      <trkpt lat="47.0363" lon="5.96425">
        <ele>404</ele>
        <time>2019-03-28T12:49:05Z</time>
      </trkpt>
      <trkpt lat="47.0362" lon="5.96399">
        <ele>408</ele>
        <time>2019-03-28T12:49:27Z</time>
      </trkpt>
      <trkpt lat="47.03612" lon="5.96365">
        <ele>410</ele>
        <time>2019-03-28T12:49:51Z</time>
      </trkpt>
      <trkpt lat="47.03608" lon="5.96352">
        <ele>411</ele>
        <time>2019-03-28T12:49:59Z</time>
      </trkpt>
      <trkpt lat="47.03606" lon="5.96328">
        <ele>414</ele>
        <time>2019-03-28T12:50:19Z</time>
      </trkpt>
      <trkpt lat="47.03611" lon="5.96315">
        <ele>414</ele>
        <time>2019-03-28T12:50:31Z</time>
      </trkpt>
      <trkpt lat="47.0361" lon="5.96301">
        <ele>415</ele>
        <time>2019-03-28T12:50:41Z</time>
      </trkpt>
      <trkpt lat="47.03606" lon="5.96289">
        <ele>416</ele>
        <time>2019-03-28T12:50:50Z</time>
      </trkpt>
      <trkpt lat="47.03605" lon="5.96276">
        <ele>417</ele>
        <time>2019-03-28T12:51:00Z</time>
      </trkpt>
      <trkpt lat="47.03603" lon="5.9626">
        <ele>419</ele>
        <time>2019-03-28T12:51:12Z</time>
      </trkpt>
      <trkpt lat="47.03607" lon="5.96247">
        <ele>421</ele>
        <time>2019-03-28T12:51:22Z</time>
      </trkpt>
      <trkpt lat="47.03607" lon="5.96234">
        <ele>423</ele>
        <time>2019-03-28T12:51:35Z</time>
      </trkpt>
      <trkpt lat="47.0361" lon="5.9622">
        <ele>425</ele>
        <time>2019-03-28T12:51:47Z</time>
      </trkpt>
      <trkpt lat="47.03641" lon="5.96191">
        <ele>430</ele>
        <time>2019-03-28T12:52:31Z</time>
      </trkpt>
      <trkpt lat="47.03648" lon="5.96177">
        <ele>430</ele>
        <time>2019-03-28T12:52:41Z</time>
      </trkpt>
      <trkpt lat="47.03667" lon="5.96146">
        <ele>429</ele>
        <time>2019-03-28T12:53:02Z</time>
      </trkpt>
      <trkpt lat="47.03685" lon="5.96094">
        <ele>431</ele>
        <time>2019-03-28T12:53:40Z</time>
      </trkpt>
      <trkpt lat="47.03687" lon="5.9608">
        <ele>431</ele>
        <time>2019-03-28T12:53:49Z</time>
      </trkpt>
      <trkpt lat="47.0369" lon="5.96067">
        <ele>430</ele>
        <time>2019-03-28T12:53:59Z</time>
      </trkpt>
      <trkpt lat="47.03691" lon="5.96055">
        <ele>431</ele>
        <time>2019-03-28T12:54:08Z</time>
      </trkpt>
      <trkpt lat="47.0369" lon="5.96048">
        <ele>431</ele>
        <time>2019-03-28T12:54:13Z</time>
      </trkpt>
      <trkpt lat="47.03689" lon="5.96042">
        <ele>431</ele>
        <time>2019-03-28T12:54:17Z</time>
      </trkpt>
      <trkpt lat="47.03691" lon="5.96034">
        <ele>431</ele>
        <time>2019-03-28T12:54:21Z</time>
      </trkpt>
      <trkpt lat="47.03694" lon="5.96014">
        <ele>431</ele>
        <time>2019-03-28T12:54:32Z</time>
      </trkpt>
      <trkpt lat="47.03691" lon="5.95992">
        <ele>429</ele>
        <time>2019-03-28T12:54:46Z</time>
      </trkpt>
      <trkpt lat="47.0369" lon="5.95986">
        <ele>429</ele>
        <time>2019-03-28T12:54:55Z</time>
      </trkpt>
      <trkpt lat="47.0369" lon="5.95978">
        <ele>430</ele>
        <time>2019-03-28T12:55:00Z</time>
      </trkpt>
      <trkpt lat="47.0369" lon="5.9597">
        <ele>430</ele>
        <time>2019-03-28T12:55:05Z</time>
      </trkpt>
      <trkpt lat="47.03692" lon="5.95963">
        <ele>430</ele>
        <time>2019-03-28T12:55:10Z</time>
      </trkpt>
      <trkpt lat="47.03693" lon="5.95955">
        <ele>430</ele>
        <time>2019-03-28T12:55:14Z</time>
      </trkpt>
      <trkpt lat="47.03695" lon="5.95949">
        <ele>430</ele>
        <time>2019-03-28T12:55:19Z</time>
      </trkpt>
      <trkpt lat="47.03695" lon="5.95941">
        <ele>431</ele>
        <time>2019-03-28T12:55:24Z</time>
      </trkpt>
      <trkpt lat="47.03696" lon="5.95926">
        <ele>430</ele>
        <time>2019-03-28T12:55:32Z</time>
      </trkpt>
      <trkpt lat="47.03694" lon="5.95918">
        <ele>430</ele>
        <time>2019-03-28T12:55:37Z</time>
      </trkpt>
      <trkpt lat="47.03691" lon="5.95898">
        <ele>428</ele>
        <time>2019-03-28T12:55:50Z</time>
      </trkpt>
      <trkpt lat="47.03689" lon="5.95883">
        <ele>429</ele>
        <time>2019-03-28T12:55:59Z</time>
      </trkpt>
      <trkpt lat="47.03689" lon="5.95875">
        <ele>428</ele>
        <time>2019-03-28T12:56:03Z</time>
      </trkpt>
      <trkpt lat="47.03687" lon="5.95869">
        <ele>428</ele>
        <time>2019-03-28T12:56:08Z</time>
      </trkpt>
      <trkpt lat="47.03684" lon="5.95856">
        <ele>427</ele>
        <time>2019-03-28T12:56:15Z</time>
      </trkpt>
      <trkpt lat="47.03686" lon="5.95848">
        <ele>426</ele>
        <time>2019-03-28T12:56:19Z</time>
      </trkpt>
      <trkpt lat="47.03686" lon="5.9584">
        <ele>425</ele>
        <time>2019-03-28T12:56:24Z</time>
      </trkpt>
      <trkpt lat="47.03684" lon="5.95832">
        <ele>425</ele>
        <time>2019-03-28T12:56:31Z</time>
      </trkpt>
      <trkpt lat="47.03681" lon="5.95825">
        <ele>424</ele>
        <time>2019-03-28T12:56:38Z</time>
      </trkpt>
      <trkpt lat="47.03678" lon="5.95811">
        <ele>423</ele>
        <time>2019-03-28T12:56:47Z</time>
      </trkpt>
      <trkpt lat="47.03678" lon="5.95782">
        <ele>422</ele>
        <time>2019-03-28T12:57:00Z</time>
      </trkpt>
      <trkpt lat="47.03678" lon="5.95769">
        <ele>422</ele>
        <time>2019-03-28T12:57:08Z</time>
      </trkpt>
      <trkpt lat="47.03679" lon="5.95741">
        <ele>420</ele>
        <time>2019-03-28T12:57:24Z</time>
      </trkpt>
      <trkpt lat="47.03685" lon="5.95729">
        <ele>419</ele>
        <time>2019-03-28T12:57:31Z</time>
      </trkpt>
      <trkpt lat="47.03691" lon="5.95719">
        <ele>418</ele>
        <time>2019-03-28T12:57:38Z</time>
      </trkpt>
      <trkpt lat="47.03697" lon="5.95675">
        <ele>413</ele>
        <time>2019-03-28T12:58:12Z</time>
      </trkpt>
      <trkpt lat="47.03704" lon="5.95632">
        <ele>412</ele>
        <time>2019-03-28T12:58:39Z</time>
      </trkpt>
      <trkpt lat="47.03703" lon="5.95619">
        <ele>412</ele>
        <time>2019-03-28T12:58:45Z</time>
      </trkpt>
      <trkpt lat="47.03705" lon="5.95606">
        <ele>411</ele>
        <time>2019-03-28T12:58:53Z</time>
      </trkpt>
      <trkpt lat="47.03705" lon="5.95578">
        <ele>410</ele>
        <time>2019-03-28T12:59:10Z</time>
      </trkpt>
      <trkpt lat="47.03711" lon="5.95552">
        <ele>407</ele>
        <time>2019-03-28T12:59:26Z</time>
      </trkpt>
      <trkpt lat="47.03714" lon="5.95539">
        <ele>407</ele>
        <time>2019-03-28T12:59:33Z</time>
      </trkpt>
      <trkpt lat="47.0372" lon="5.95527">
        <ele>407</ele>
        <time>2019-03-28T12:59:42Z</time>
      </trkpt>
      <trkpt lat="47.03725" lon="5.95515">
        <ele>405</ele>
        <time>2019-03-28T12:59:49Z</time>
      </trkpt>
      <trkpt lat="47.03728" lon="5.95503">
        <ele>404</ele>
        <time>2019-03-28T12:59:58Z</time>
      </trkpt>
      <trkpt lat="47.03731" lon="5.95488">
        <ele>405</ele>
        <time>2019-03-28T13:00:09Z</time>
      </trkpt>
      <trkpt lat="47.03734" lon="5.95459">
        <ele>403</ele>
        <time>2019-03-28T13:00:25Z</time>
      </trkpt>
      <trkpt lat="47.03738" lon="5.95447">
        <ele>402</ele>
        <time>2019-03-28T13:00:32Z</time>
      </trkpt>
      <trkpt lat="47.03745" lon="5.95422">
        <ele>402</ele>
        <time>2019-03-28T13:00:48Z</time>
      </trkpt>
      <trkpt lat="47.03753" lon="5.95395">
        <ele>400</ele>
        <time>2019-03-28T13:01:04Z</time>
      </trkpt>
      <trkpt lat="47.03761" lon="5.95341">
        <ele>399</ele>
        <time>2019-03-28T13:01:40Z</time>
      </trkpt>
      <trkpt lat="47.03768" lon="5.95291">
        <ele>397</ele>
        <time>2019-03-28T13:02:13Z</time>
      </trkpt>
      <trkpt lat="47.03775" lon="5.95235">
        <ele>395</ele>
        <time>2019-03-28T13:02:45Z</time>
      </trkpt>
      <trkpt lat="47.0378" lon="5.95209">
        <ele>395</ele>
        <time>2019-03-28T13:03:01Z</time>
      </trkpt>
      <trkpt lat="47.03782" lon="5.95196">
        <ele>393</ele>
        <time>2019-03-28T13:03:08Z</time>
      </trkpt>
      <trkpt lat="47.03791" lon="5.95158">
        <ele>393</ele>
        <time>2019-03-28T13:03:34Z</time>
      </trkpt>
      <trkpt lat="47.03796" lon="5.95145">
        <ele>391</ele>
        <time>2019-03-28T13:03:41Z</time>
      </trkpt>
      <trkpt lat="47.038" lon="5.95112">
        <ele>388</ele>
        <time>2019-03-28T13:04:05Z</time>
      </trkpt>
      <trkpt lat="47.038" lon="5.95098">
        <ele>387</ele>
        <time>2019-03-28T13:04:13Z</time>
      </trkpt>
      <trkpt lat="47.03802" lon="5.95085">
        <ele>387</ele>
        <time>2019-03-28T13:04:20Z</time>
      </trkpt>
      <trkpt lat="47.03812" lon="5.9506">
        <ele>386</ele>
        <time>2019-03-28T13:04:34Z</time>
      </trkpt>
      <trkpt lat="47.03813" lon="5.95046">
        <ele>384</ele>
        <time>2019-03-28T13:04:43Z</time>
      </trkpt>
      <trkpt lat="47.03819" lon="5.95017">
        <ele>383</ele>
        <time>2019-03-28T13:05:01Z</time>
      </trkpt>
      <trkpt lat="47.0382" lon="5.95002">
        <ele>384</ele>
        <time>2019-03-28T13:05:09Z</time>
      </trkpt>
      <trkpt lat="47.03819" lon="5.94989">
        <ele>383</ele>
        <time>2019-03-28T13:05:17Z</time>
      </trkpt>
      <trkpt lat="47.0383" lon="5.94964">
        <ele>380</ele>
        <time>2019-03-28T13:05:32Z</time>
      </trkpt>
      <trkpt lat="47.03831" lon="5.94958">
        <ele>381</ele>
        <time>2019-03-28T13:05:37Z</time>
      </trkpt>
      <trkpt lat="47.03835" lon="5.94951">
        <ele>380</ele>
        <time>2019-03-28T13:05:42Z</time>
      </trkpt>
      <trkpt lat="47.03837" lon="5.94944">
        <ele>380</ele>
        <time>2019-03-28T13:05:46Z</time>
      </trkpt>
      <trkpt lat="47.03841" lon="5.94931">
        <ele>378</ele>
        <time>2019-03-28T13:05:55Z</time>
      </trkpt>
      <trkpt lat="47.03847" lon="5.94918">
        <ele>377</ele>
        <time>2019-03-28T13:06:05Z</time>
      </trkpt>
      <trkpt lat="47.03851" lon="5.94912">
        <ele>377</ele>
        <time>2019-03-28T13:06:09Z</time>
      </trkpt>
      <trkpt lat="47.03855" lon="5.94907">
        <ele>376</ele>
        <time>2019-03-28T13:06:14Z</time>
      </trkpt>
      <trkpt lat="47.03859" lon="5.949">
        <ele>375</ele>
        <time>2019-03-28T13:06:24Z</time>
      </trkpt>
      <trkpt lat="47.03865" lon="5.949">
        <ele>373</ele>
        <time>2019-03-28T13:06:36Z</time>
      </trkpt>
      <trkpt lat="47.03869" lon="5.94907">
        <ele>361</ele>
        <time>2019-03-28T13:09:24Z</time>
      </trkpt>
      <trkpt lat="47.03875" lon="5.94911">
        <ele>361</ele>
        <time>2019-03-28T13:09:36Z</time>
      </trkpt>
      <trkpt lat="47.0388" lon="5.9491">
        <ele>360</ele>
        <time>2019-03-28T13:09:41Z</time>
      </trkpt>
      <trkpt lat="47.03886" lon="5.94909">
        <ele>360</ele>
        <time>2019-03-28T13:09:49Z</time>
      </trkpt>
      <trkpt lat="47.03891" lon="5.94907">
        <ele>360</ele>
        <time>2019-03-28T13:09:54Z</time>
      </trkpt>
      <trkpt lat="47.03895" lon="5.94904">
        <ele>360</ele>
        <time>2019-03-28T13:10:02Z</time>
      </trkpt>
      <trkpt lat="47.03904" lon="5.94896">
        <ele>360</ele>
        <time>2019-03-28T13:10:12Z</time>
      </trkpt>
      <trkpt lat="47.03922" lon="5.94884">
        <ele>357</ele>
        <time>2019-03-28T13:10:38Z</time>
      </trkpt>
      <trkpt lat="47.03934" lon="5.94887">
        <ele>355</ele>
        <time>2019-03-28T13:10:54Z</time>
      </trkpt>
      <trkpt lat="47.03966" lon="5.94884">
        <ele>351</ele>
        <time>2019-03-28T13:11:26Z</time>
      </trkpt>
      <trkpt lat="47.03972" lon="5.94881">
        <ele>351</ele>
        <time>2019-03-28T13:11:34Z</time>
      </trkpt>
      <trkpt lat="47.03981" lon="5.94884">
        <ele>350</ele>
        <time>2019-03-28T13:11:45Z</time>
      </trkpt>
      <trkpt lat="47.03987" lon="5.94886">
        <ele>351</ele>
        <time>2019-03-28T13:11:50Z</time>
      </trkpt>
      <trkpt lat="47.03991" lon="5.94888">
        <ele>350</ele>
        <time>2019-03-28T13:11:55Z</time>
      </trkpt>
      <trkpt lat="47.04002" lon="5.94885">
        <ele>348</ele>
        <time>2019-03-28T13:12:08Z</time>
      </trkpt>
      <trkpt lat="47.04006" lon="5.94882">
        <ele>347</ele>
        <time>2019-03-28T13:12:14Z</time>
      </trkpt>
      <trkpt lat="47.04034" lon="5.94857">
        <ele>338</ele>
        <time>2019-03-28T13:12:55Z</time>
      </trkpt>
      <trkpt lat="47.0405" lon="5.94846">
        <ele>334</ele>
        <time>2019-03-28T13:13:17Z</time>
      </trkpt>
      <trkpt lat="47.04055" lon="5.94845">
        <ele>333</ele>
        <time>2019-03-28T13:13:22Z</time>
      </trkpt>
      <trkpt lat="47.0406" lon="5.94841">
        <ele>331</ele>
        <time>2019-03-28T13:13:27Z</time>
      </trkpt>
      <trkpt lat="47.04063" lon="5.94835">
        <ele>331</ele>
        <time>2019-03-28T13:13:31Z</time>
      </trkpt>
      <trkpt lat="47.04065" lon="5.94829">
        <ele>331</ele>
        <time>2019-03-28T13:13:35Z</time>
      </trkpt>
      <trkpt lat="47.04067" lon="5.94821">
        <ele>330</ele>
        <time>2019-03-28T13:13:40Z</time>
      </trkpt>
      <trkpt lat="47.04068" lon="5.94815">
        <ele>330</ele>
        <time>2019-03-28T13:13:45Z</time>
      </trkpt>
      <trkpt lat="47.04071" lon="5.94808">
        <ele>329</ele>
        <time>2019-03-28T13:13:50Z</time>
      </trkpt>
      <trkpt lat="47.04078" lon="5.94769">
        <ele>325</ele>
        <time>2019-03-28T13:14:21Z</time>
      </trkpt>
      <trkpt lat="47.04076" lon="5.9475">
        <ele>322</ele>
        <time>2019-03-28T13:14:38Z</time>
      </trkpt>
      <trkpt lat="47.04073" lon="5.94745">
        <ele>322</ele>
        <time>2019-03-28T13:14:41Z</time>
      </trkpt>
      <trkpt lat="47.04072" lon="5.94739">
        <ele>320</ele>
        <time>2019-03-28T13:15:02Z</time>
      </trkpt>
      <trkpt lat="47.04065" lon="5.94731">
        <ele>318</ele>
        <time>2019-03-28T13:15:14Z</time>
      </trkpt>
      <trkpt lat="47.04062" lon="5.94727">
        <ele>318</ele>
        <time>2019-03-28T13:15:18Z</time>
      </trkpt>
      <trkpt lat="47.04054" lon="5.94716">
        <ele>317</ele>
        <time>2019-03-28T13:15:27Z</time>
      </trkpt>
      <trkpt lat="47.04047" lon="5.94708">
        <ele>315</ele>
        <time>2019-03-28T13:15:37Z</time>
      </trkpt>
      <trkpt lat="47.04043" lon="5.947">
        <ele>313</ele>
        <time>2019-03-28T13:15:46Z</time>
      </trkpt>
      <trkpt lat="47.04032" lon="5.94673">
        <ele>312</ele>
        <time>2019-03-28T13:16:04Z</time>
      </trkpt>
      <trkpt lat="47.04025" lon="5.94664">
        <ele>311</ele>
        <time>2019-03-28T13:16:13Z</time>
      </trkpt>
      <trkpt lat="47.04014" lon="5.94658">
        <ele>309</ele>
        <time>2019-03-28T13:16:26Z</time>
      </trkpt>
      <trkpt lat="47.04009" lon="5.94656">
        <ele>309</ele>
        <time>2019-03-28T13:16:31Z</time>
      </trkpt>
      <trkpt lat="47.03999" lon="5.94649">
        <ele>309</ele>
        <time>2019-03-28T13:16:41Z</time>
      </trkpt>
      <trkpt lat="47.03995" lon="5.94644">
        <ele>308</ele>
        <time>2019-03-28T13:16:45Z</time>
      </trkpt>
      <trkpt lat="47.03988" lon="5.94635">
        <ele>308</ele>
        <time>2019-03-28T13:16:54Z</time>
      </trkpt>
      <trkpt lat="47.03985" lon="5.94628">
        <ele>308</ele>
        <time>2019-03-28T13:16:59Z</time>
      </trkpt>
      <trkpt lat="47.03984" lon="5.94619">
        <ele>307</ele>
        <time>2019-03-28T13:17:07Z</time>
      </trkpt>
      <trkpt lat="47.03987" lon="5.94596">
        <ele>309</ele>
        <time>2019-03-28T13:17:21Z</time>
      </trkpt>
      <trkpt lat="47.03991" lon="5.9459">
        <ele>309</ele>
        <time>2019-03-28T13:17:26Z</time>
      </trkpt>
      <trkpt lat="47.04003" lon="5.94566">
        <ele>312</ele>
        <time>2019-03-28T13:17:45Z</time>
      </trkpt>
      <trkpt lat="47.0401" lon="5.94558">
        <ele>312</ele>
        <time>2019-03-28T13:17:53Z</time>
      </trkpt>
      <trkpt lat="47.04015" lon="5.94555">
        <ele>313</ele>
        <time>2019-03-28T13:17:58Z</time>
      </trkpt>
      <trkpt lat="47.04021" lon="5.94552">
        <ele>313</ele>
        <time>2019-03-28T13:18:03Z</time>
      </trkpt>
      <trkpt lat="47.04026" lon="5.9455">
        <ele>313</ele>
        <time>2019-03-28T13:18:08Z</time>
      </trkpt>
      <trkpt lat="47.04037" lon="5.94546">
        <ele>313</ele>
        <time>2019-03-28T13:18:18Z</time>
      </trkpt>
      <trkpt lat="47.04042" lon="5.94543">
        <ele>314</ele>
        <time>2019-03-28T13:18:23Z</time>
      </trkpt>
      <trkpt lat="47.04067" lon="5.94537">
        <ele>317</ele>
        <time>2019-03-28T13:18:46Z</time>
      </trkpt>
      <trkpt lat="47.04072" lon="5.94535">
        <ele>316</ele>
        <time>2019-03-28T13:18:51Z</time>
      </trkpt>
      <trkpt lat="47.04081" lon="5.94532">
        <ele>318</ele>
        <time>2019-03-28T13:19:00Z</time>
      </trkpt>
      <trkpt lat="47.0409" lon="5.94522">
        <ele>321</ele>
        <time>2019-03-28T13:20:31Z</time>
      </trkpt>
      <trkpt lat="47.04097" lon="5.9452">
        <ele>319</ele>
        <time>2019-03-28T13:20:55Z</time>
      </trkpt>
      <trkpt lat="47.04105" lon="5.94517">
        <ele>320</ele>
        <time>2019-03-28T13:21:05Z</time>
      </trkpt>
      <trkpt lat="47.04109" lon="5.94515">
        <ele>322</ele>
        <time>2019-03-28T13:21:09Z</time>
      </trkpt>
      <trkpt lat="47.04115" lon="5.94513">
        <ele>321</ele>
        <time>2019-03-28T13:21:13Z</time>
      </trkpt>
      <trkpt lat="47.0412" lon="5.94513">
        <ele>323</ele>
        <time>2019-03-28T13:21:17Z</time>
      </trkpt>
      <trkpt lat="47.0413" lon="5.94512">
        <ele>323</ele>
        <time>2019-03-28T13:21:33Z</time>
      </trkpt>
      <trkpt lat="47.0414" lon="5.94512">
        <ele>323</ele>
        <time>2019-03-28T13:21:41Z</time>
      </trkpt>
      <trkpt lat="47.04156" lon="5.94515">
        <ele>324</ele>
        <time>2019-03-28T13:21:56Z</time>
      </trkpt>
      <trkpt lat="47.04162" lon="5.94516">
        <ele>324</ele>
        <time>2019-03-28T13:22:01Z</time>
      </trkpt>
      <trkpt lat="47.04172" lon="5.9452">
        <ele>325</ele>
        <time>2019-03-28T13:22:10Z</time>
      </trkpt>
      <trkpt lat="47.04177" lon="5.94521">
        <ele>325</ele>
        <time>2019-03-28T13:22:15Z</time>
      </trkpt>
      <trkpt lat="47.04197" lon="5.94525">
        <ele>326</ele>
        <time>2019-03-28T13:22:34Z</time>
      </trkpt>
      <trkpt lat="47.04207" lon="5.94529">
        <ele>327</ele>
        <time>2019-03-28T13:22:43Z</time>
      </trkpt>
      <trkpt lat="47.04212" lon="5.9453">
        <ele>327</ele>
        <time>2019-03-28T13:22:48Z</time>
      </trkpt>
      <trkpt lat="47.04233" lon="5.94536">
        <ele>329</ele>
        <time>2019-03-28T13:23:07Z</time>
      </trkpt>
      <trkpt lat="47.04242" lon="5.94536">
        <ele>329</ele>
        <time>2019-03-28T13:23:15Z</time>
      </trkpt>
      <trkpt lat="47.04261" lon="5.94536">
        <ele>330</ele>
        <time>2019-03-28T13:23:32Z</time>
      </trkpt>
      <trkpt lat="47.0428" lon="5.94528">
        <ele>329</ele>
        <time>2019-03-28T13:23:49Z</time>
      </trkpt>
      <trkpt lat="47.04289" lon="5.94526">
        <ele>329</ele>
        <time>2019-03-28T13:23:57Z</time>
      </trkpt>
      <trkpt lat="47.043" lon="5.94521">
        <ele>328</ele>
        <time>2019-03-28T13:24:07Z</time>
      </trkpt>
      <trkpt lat="47.04314" lon="5.94513">
        <ele>328</ele>
        <time>2019-03-28T13:24:21Z</time>
      </trkpt>
      <trkpt lat="47.04323" lon="5.94505">
        <ele>329</ele>
        <time>2019-03-28T13:24:31Z</time>
      </trkpt>
      <trkpt lat="47.04328" lon="5.94502">
        <ele>329</ele>
        <time>2019-03-28T13:24:36Z</time>
      </trkpt>
      <trkpt lat="47.04332" lon="5.94499">
        <ele>329</ele>
        <time>2019-03-28T13:24:41Z</time>
      </trkpt>
      <trkpt lat="47.04337" lon="5.94496">
        <ele>329</ele>
        <time>2019-03-28T13:24:46Z</time>
      </trkpt>
      <trkpt lat="47.04341" lon="5.94494">
        <ele>329</ele>
        <time>2019-03-28T13:24:51Z</time>
      </trkpt>
      <trkpt lat="47.04345" lon="5.94492">
        <ele>329</ele>
        <time>2019-03-28T13:24:55Z</time>
      </trkpt>
      <trkpt lat="47.04355" lon="5.9449">
        <ele>331</ele>
        <time>2019-03-28T13:25:03Z</time>
      </trkpt>
      <trkpt lat="47.0436" lon="5.94489">
        <ele>331</ele>
        <time>2019-03-28T13:25:08Z</time>
      </trkpt>
      <trkpt lat="47.04373" lon="5.9449">
        <ele>333</ele>
        <time>2019-03-28T13:25:21Z</time>
      </trkpt>
      <trkpt lat="47.04378" lon="5.94493">
        <ele>333</ele>
        <time>2019-03-28T13:25:26Z</time>
      </trkpt>
      <trkpt lat="47.04383" lon="5.94497">
        <ele>333</ele>
        <time>2019-03-28T13:25:30Z</time>
      </trkpt>
      <trkpt lat="47.04387" lon="5.945">
        <ele>334</ele>
        <time>2019-03-28T13:25:34Z</time>
      </trkpt>
      <trkpt lat="47.04392" lon="5.94504">
        <ele>334</ele>
        <time>2019-03-28T13:25:38Z</time>
      </trkpt>
      <trkpt lat="47.04395" lon="5.9451">
        <ele>334</ele>
        <time>2019-03-28T13:25:42Z</time>
      </trkpt>
      <trkpt lat="47.04396" lon="5.94517">
        <ele>334</ele>
        <time>2019-03-28T13:25:46Z</time>
      </trkpt>
      <trkpt lat="47.04412" lon="5.94541">
        <ele>335</ele>
        <time>2019-03-28T13:26:09Z</time>
      </trkpt>
      <trkpt lat="47.04418" lon="5.94548">
        <ele>335</ele>
        <time>2019-03-28T13:26:19Z</time>
      </trkpt>
      <trkpt lat="47.04419" lon="5.94559">
        <ele>336</ele>
        <time>2019-03-28T13:26:43Z</time>
      </trkpt>
      <trkpt lat="47.04421" lon="5.94569">
        <ele>338</ele>
        <time>2019-03-28T13:27:01Z</time>
      </trkpt>
      <trkpt lat="47.04429" lon="5.94596">
        <ele>340</ele>
        <time>2019-03-28T13:27:16Z</time>
      </trkpt>
      <trkpt lat="47.0443" lon="5.94604">
        <ele>339</ele>
        <time>2019-03-28T13:27:21Z</time>
      </trkpt>
      <trkpt lat="47.04432" lon="5.94625">
        <ele>339</ele>
        <time>2019-03-28T13:27:34Z</time>
      </trkpt>
      <trkpt lat="47.04432" lon="5.94633">
        <ele>339</ele>
        <time>2019-03-28T13:27:38Z</time>
      </trkpt>
      <trkpt lat="47.04429" lon="5.94672">
        <ele>339</ele>
        <time>2019-03-28T13:28:00Z</time>
      </trkpt>
      <trkpt lat="47.04431" lon="5.9468">
        <ele>340</ele>
        <time>2019-03-28T13:28:05Z</time>
      </trkpt>
      <trkpt lat="47.04433" lon="5.94686">
        <ele>340</ele>
        <time>2019-03-28T13:28:09Z</time>
      </trkpt>
      <trkpt lat="47.0444" lon="5.94696">
        <ele>340</ele>
        <time>2019-03-28T13:28:17Z</time>
      </trkpt>
      <trkpt lat="47.04444" lon="5.947">
        <ele>340</ele>
        <time>2019-03-28T13:28:21Z</time>
      </trkpt>
      <trkpt lat="47.04449" lon="5.94702">
        <ele>341</ele>
        <time>2019-03-28T13:28:25Z</time>
      </trkpt>
      <trkpt lat="47.04453" lon="5.94704">
        <ele>340</ele>
        <time>2019-03-28T13:28:28Z</time>
      </trkpt>
      <trkpt lat="47.04459" lon="5.94707">
        <ele>341</ele>
        <time>2019-03-28T13:28:33Z</time>
      </trkpt>
      <trkpt lat="47.0447" lon="5.9472">
        <ele>342</ele>
        <time>2019-03-28T13:28:50Z</time>
      </trkpt>
      <trkpt lat="47.04474" lon="5.94721">
        <ele>342</ele>
        <time>2019-03-28T13:28:55Z</time>
      </trkpt>
      <trkpt lat="47.0448" lon="5.94725">
        <ele>343</ele>
        <time>2019-03-28T13:29:04Z</time>
      </trkpt>
      <trkpt lat="47.04485" lon="5.94732">
        <ele>343</ele>
        <time>2019-03-28T13:29:11Z</time>
      </trkpt>
      <trkpt lat="47.04488" lon="5.94739">
        <ele>344</ele>
        <time>2019-03-28T13:29:17Z</time>
      </trkpt>
      <trkpt lat="47.04492" lon="5.94746">
        <ele>344</ele>
        <time>2019-03-28T13:29:24Z</time>
      </trkpt>
      <trkpt lat="47.04502" lon="5.94751">
        <ele>344</ele>
        <time>2019-03-28T13:29:33Z</time>
      </trkpt>
      <trkpt lat="47.04506" lon="5.94753">
        <ele>344</ele>
        <time>2019-03-28T13:29:47Z</time>
      </trkpt>
      <trkpt lat="47.0451" lon="5.94747">
        <ele>345</ele>
        <time>2019-03-28T13:30:06Z</time>
      </trkpt>
      <trkpt lat="47.04514" lon="5.94744">
        <ele>346</ele>
        <time>2019-03-28T13:30:35Z</time>
      </trkpt>
      <trkpt lat="47.04516" lon="5.94753">
        <ele>346</ele>
        <time>2019-03-28T13:31:05Z</time>
      </trkpt>
      <trkpt lat="47.04516" lon="5.94751">
        <ele>345</ele>
        <time>2019-03-28T13:34:32Z</time>
      </trkpt>
      <trkpt lat="47.04521" lon="5.94748">
        <ele>347</ele>
        <time>2019-03-28T13:34:37Z</time>
      </trkpt>
      <trkpt lat="47.04525" lon="5.9475">
        <ele>347</ele>
        <time>2019-03-28T13:34:41Z</time>
      </trkpt>
      <trkpt lat="47.04531" lon="5.9475">
        <ele>345</ele>
        <time>2019-03-28T13:34:46Z</time>
      </trkpt>
      <trkpt lat="47.04536" lon="5.94749">
        <ele>345</ele>
        <time>2019-03-28T13:34:50Z</time>
      </trkpt>
      <trkpt lat="47.0454" lon="5.94748">
        <ele>345</ele>
        <time>2019-03-28T13:34:55Z</time>
      </trkpt>
      <trkpt lat="47.04545" lon="5.94745">
        <ele>345</ele>
        <time>2019-03-28T13:34:59Z</time>
      </trkpt>
      <trkpt lat="47.04549" lon="5.94743">
        <ele>345</ele>
        <time>2019-03-28T13:35:03Z</time>
      </trkpt>
      <trkpt lat="47.04553" lon="5.94735">
        <ele>345</ele>
        <time>2019-03-28T13:35:11Z</time>
      </trkpt>
      <trkpt lat="47.04558" lon="5.9473">
        <ele>342</ele>
        <time>2019-03-28T13:35:51Z</time>
      </trkpt>
      <trkpt lat="47.04564" lon="5.9473">
        <ele>342</ele>
        <time>2019-03-28T13:35:58Z</time>
      </trkpt>
      <trkpt lat="47.04573" lon="5.94741">
        <ele>344</ele>
        <time>2019-03-28T13:36:36Z</time>
      </trkpt>
      <trkpt lat="47.04565" lon="5.94741">
        <ele>345</ele>
        <time>2019-03-28T13:37:00Z</time>
      </trkpt>
      <trkpt lat="47.0456" lon="5.94744">
        <ele>345</ele>
        <time>2019-03-28T13:37:05Z</time>
      </trkpt>
      <trkpt lat="47.04545" lon="5.94751">
        <ele>345</ele>
        <time>2019-03-28T13:37:20Z</time>
      </trkpt>
      <trkpt lat="47.04545" lon="5.94754">
        <ele>346</ele>
        <time>2019-03-28T13:38:56Z</time>
      </trkpt>
      <trkpt lat="47.04539" lon="5.94752">
        <ele>346</ele>
        <time>2019-03-28T13:40:20Z</time>
      </trkpt>
      <trkpt lat="47.04529" lon="5.94751">
        <ele>348</ele>
        <time>2019-03-28T13:40:29Z</time>
      </trkpt>
      <trkpt lat="47.04524" lon="5.94749">
        <ele>348</ele>
        <time>2019-03-28T13:40:34Z</time>
      </trkpt>
      <trkpt lat="47.04507" lon="5.94743">
        <ele>342</ele>
        <time>2019-03-28T13:41:00Z</time>
      </trkpt>
      <trkpt lat="47.04503" lon="5.94741">
        <ele>343</ele>
        <time>2019-03-28T13:41:04Z</time>
      </trkpt>
      <trkpt lat="47.04494" lon="5.94734">
        <ele>342</ele>
        <time>2019-03-28T13:41:12Z</time>
      </trkpt>
      <trkpt lat="47.0449" lon="5.94729">
        <ele>342</ele>
        <time>2019-03-28T13:41:16Z</time>
      </trkpt>
      <trkpt lat="47.04486" lon="5.94725">
        <ele>342</ele>
        <time>2019-03-28T13:41:20Z</time>
      </trkpt>
      <trkpt lat="47.04481" lon="5.94722">
        <ele>341</ele>
        <time>2019-03-28T13:41:24Z</time>
      </trkpt>
      <trkpt lat="47.04473" lon="5.94713">
        <ele>342</ele>
        <time>2019-03-28T13:41:33Z</time>
      </trkpt>
      <trkpt lat="47.0447" lon="5.94709">
        <ele>340</ele>
        <time>2019-03-28T13:41:37Z</time>
      </trkpt>
      <trkpt lat="47.04467" lon="5.94704">
        <ele>340</ele>
        <time>2019-03-28T13:41:41Z</time>
      </trkpt>
      <trkpt lat="47.04446" lon="5.94688">
        <ele>338</ele>
        <time>2019-03-28T13:42:00Z</time>
      </trkpt>
      <trkpt lat="47.04442" lon="5.94681">
        <ele>338</ele>
        <time>2019-03-28T13:42:06Z</time>
      </trkpt>
      <trkpt lat="47.0444" lon="5.94674">
        <ele>338</ele>
        <time>2019-03-28T13:42:10Z</time>
      </trkpt>
      <trkpt lat="47.04438" lon="5.94659">
        <ele>339</ele>
        <time>2019-03-28T13:42:20Z</time>
      </trkpt>
      <trkpt lat="47.0444" lon="5.94637">
        <ele>338</ele>
        <time>2019-03-28T13:42:32Z</time>
      </trkpt>
      <trkpt lat="47.04441" lon="5.94629">
        <ele>337</ele>
        <time>2019-03-28T13:42:37Z</time>
      </trkpt>
      <trkpt lat="47.04441" lon="5.94617">
        <ele>336</ele>
        <time>2019-03-28T13:42:46Z</time>
      </trkpt>
      <trkpt lat="47.04441" lon="5.94609">
        <ele>336</ele>
        <time>2019-03-28T13:42:51Z</time>
      </trkpt>
      <trkpt lat="47.0444" lon="5.94594">
        <ele>335</ele>
        <time>2019-03-28T13:43:00Z</time>
      </trkpt>
      <trkpt lat="47.04434" lon="5.94574">
        <ele>333</ele>
        <time>2019-03-28T13:43:15Z</time>
      </trkpt>
      <trkpt lat="47.04418" lon="5.94547">
        <ele>332</ele>
        <time>2019-03-28T13:43:36Z</time>
      </trkpt>
      <trkpt lat="47.04411" lon="5.94528">
        <ele>333</ele>
        <time>2019-03-28T13:43:47Z</time>
      </trkpt>
      <trkpt lat="47.04392" lon="5.94492">
        <ele>332</ele>
        <time>2019-03-28T13:44:11Z</time>
      </trkpt>
      <trkpt lat="47.04387" lon="5.94482">
        <ele>330</ele>
        <time>2019-03-28T13:44:20Z</time>
      </trkpt>
      <trkpt lat="47.04385" lon="5.94473">
        <ele>330</ele>
        <time>2019-03-28T13:44:27Z</time>
      </trkpt>
      <trkpt lat="47.04382" lon="5.94465">
        <ele>329</ele>
        <time>2019-03-28T13:44:32Z</time>
      </trkpt>
      <trkpt lat="47.0438" lon="5.94459">
        <ele>328</ele>
        <time>2019-03-28T13:44:36Z</time>
      </trkpt>
      <trkpt lat="47.04379" lon="5.94452">
        <ele>329</ele>
        <time>2019-03-28T13:44:41Z</time>
      </trkpt>
      <trkpt lat="47.04376" lon="5.94437">
        <ele>328</ele>
        <time>2019-03-28T13:44:50Z</time>
      </trkpt>
      <trkpt lat="47.04374" lon="5.94422">
        <ele>328</ele>
        <time>2019-03-28T13:44:59Z</time>
      </trkpt>
      <trkpt lat="47.04373" lon="5.94407">
        <ele>329</ele>
        <time>2019-03-28T13:45:07Z</time>
      </trkpt>
      <trkpt lat="47.04373" lon="5.944">
        <ele>328</ele>
        <time>2019-03-28T13:45:11Z</time>
      </trkpt>
      <trkpt lat="47.04373" lon="5.94386">
        <ele>328</ele>
        <time>2019-03-28T13:45:19Z</time>
      </trkpt>
      <trkpt lat="47.04372" lon="5.94379">
        <ele>327</ele>
        <time>2019-03-28T13:45:23Z</time>
      </trkpt>
      <trkpt lat="47.04371" lon="5.94373">
        <ele>327</ele>
        <time>2019-03-28T13:45:27Z</time>
      </trkpt>
      <trkpt lat="47.04369" lon="5.94365">
        <ele>327</ele>
        <time>2019-03-28T13:45:32Z</time>
      </trkpt>
      <trkpt lat="47.04366" lon="5.9436">
        <ele>327</ele>
        <time>2019-03-28T13:45:36Z</time>
      </trkpt>
      <trkpt lat="47.04359" lon="5.94351">
        <ele>326</ele>
        <time>2019-03-28T13:45:44Z</time>
      </trkpt>
      <trkpt lat="47.04352" lon="5.94341">
        <ele>327</ele>
        <time>2019-03-28T13:45:52Z</time>
      </trkpt>
      <trkpt lat="47.04349" lon="5.94328">
        <ele>329</ele>
        <time>2019-03-28T13:46:00Z</time>
      </trkpt>
      <trkpt lat="47.04348" lon="5.9432">
        <ele>330</ele>
        <time>2019-03-28T13:46:04Z</time>
      </trkpt>
      <trkpt lat="47.04346" lon="5.94307">
        <ele>330</ele>
        <time>2019-03-28T13:46:12Z</time>
      </trkpt>
      <trkpt lat="47.04344" lon="5.943">
        <ele>329</ele>
        <time>2019-03-28T13:46:16Z</time>
      </trkpt>
      <trkpt lat="47.04341" lon="5.94294">
        <ele>330</ele>
        <time>2019-03-28T13:46:21Z</time>
      </trkpt>
      <trkpt lat="47.04337" lon="5.94289">
        <ele>330</ele>
        <time>2019-03-28T13:46:26Z</time>
      </trkpt>
      <trkpt lat="47.04333" lon="5.94284">
        <ele>330</ele>
        <time>2019-03-28T13:46:31Z</time>
      </trkpt>
      <trkpt lat="47.04329" lon="5.94281">
        <ele>330</ele>
        <time>2019-03-28T13:46:36Z</time>
      </trkpt>
      <trkpt lat="47.04324" lon="5.94278">
        <ele>330</ele>
        <time>2019-03-28T13:46:41Z</time>
      </trkpt>
      <trkpt lat="47.04316" lon="5.94276">
        <ele>332</ele>
        <time>2019-03-28T13:46:50Z</time>
      </trkpt>
      <trkpt lat="47.04306" lon="5.94272">
        <ele>332</ele>
        <time>2019-03-28T13:46:59Z</time>
      </trkpt>
      <trkpt lat="47.04296" lon="5.94266">
        <ele>334</ele>
        <time>2019-03-28T13:47:08Z</time>
      </trkpt>
      <trkpt lat="47.04287" lon="5.94263">
        <ele>335</ele>
        <time>2019-03-28T13:47:16Z</time>
      </trkpt>
      <trkpt lat="47.04258" lon="5.94253">
        <ele>340</ele>
        <time>2019-03-28T13:47:42Z</time>
      </trkpt>
      <trkpt lat="47.04246" lon="5.94249">
        <ele>341</ele>
        <time>2019-03-28T13:47:55Z</time>
      </trkpt>
      <trkpt lat="47.04242" lon="5.94245">
        <ele>341</ele>
        <time>2019-03-28T13:47:59Z</time>
      </trkpt>
      <trkpt lat="47.04238" lon="5.94243">
        <ele>342</ele>
        <time>2019-03-28T13:48:04Z</time>
      </trkpt>
      <trkpt lat="47.04233" lon="5.94242">
        <ele>342</ele>
        <time>2019-03-28T13:48:08Z</time>
      </trkpt>
      <trkpt lat="47.04228" lon="5.9424">
        <ele>342</ele>
        <time>2019-03-28T13:48:12Z</time>
      </trkpt>
      <trkpt lat="47.04222" lon="5.94237">
        <ele>343</ele>
        <time>2019-03-28T13:48:20Z</time>
      </trkpt>
      <trkpt lat="47.04217" lon="5.94233">
        <ele>343</ele>
        <time>2019-03-28T13:48:25Z</time>
      </trkpt>
      <trkpt lat="47.04211" lon="5.94222">
        <ele>344</ele>
        <time>2019-03-28T13:48:37Z</time>
      </trkpt>
      <trkpt lat="47.04206" lon="5.94206">
        <ele>346</ele>
        <time>2019-03-28T13:48:48Z</time>
      </trkpt>
      <trkpt lat="47.04206" lon="5.942">
        <ele>347</ele>
        <time>2019-03-28T13:48:53Z</time>
      </trkpt>
      <trkpt lat="47.0421" lon="5.94187">
        <ele>349</ele>
        <time>2019-03-28T13:49:03Z</time>
      </trkpt>
      <trkpt lat="47.04218" lon="5.94169">
        <ele>352</ele>
        <time>2019-03-28T13:49:18Z</time>
      </trkpt>
      <trkpt lat="47.04217" lon="5.94159">
        <ele>353</ele>
        <time>2019-03-28T13:49:27Z</time>
      </trkpt>
      <trkpt lat="47.04208" lon="5.94137">
        <ele>356</ele>
        <time>2019-03-28T13:49:50Z</time>
      </trkpt>
      <trkpt lat="47.04201" lon="5.94127">
        <ele>357</ele>
        <time>2019-03-28T13:49:58Z</time>
      </trkpt>
      <trkpt lat="47.04193" lon="5.94121">
        <ele>357</ele>
        <time>2019-03-28T13:50:06Z</time>
      </trkpt>
      <trkpt lat="47.04184" lon="5.94119">
        <ele>359</ele>
        <time>2019-03-28T13:50:16Z</time>
      </trkpt>
      <trkpt lat="47.0418" lon="5.9412">
        <ele>360</ele>
        <time>2019-03-28T13:50:24Z</time>
      </trkpt>
      <trkpt lat="47.04172" lon="5.94124">
        <ele>364</ele>
        <time>2019-03-28T13:50:35Z</time>
      </trkpt>
      <trkpt lat="47.04166" lon="5.94124">
        <ele>364</ele>
        <time>2019-03-28T13:50:40Z</time>
      </trkpt>
      <trkpt lat="47.0414" lon="5.94119">
        <ele>367</ele>
        <time>2019-03-28T13:51:07Z</time>
      </trkpt>
      <trkpt lat="47.04134" lon="5.94116">
        <ele>368</ele>
        <time>2019-03-28T13:51:13Z</time>
      </trkpt>
      <trkpt lat="47.04126" lon="5.9411">
        <ele>367</ele>
        <time>2019-03-28T13:51:21Z</time>
      </trkpt>
      <trkpt lat="47.04115" lon="5.94106">
        <ele>368</ele>
        <time>2019-03-28T13:51:31Z</time>
      </trkpt>
      <trkpt lat="47.0408" lon="5.94102">
        <ele>374</ele>
        <time>2019-03-28T13:52:08Z</time>
      </trkpt>
      <trkpt lat="47.04071" lon="5.94104">
        <ele>375</ele>
        <time>2019-03-28T13:52:17Z</time>
      </trkpt>
      <trkpt lat="47.04063" lon="5.94112">
        <ele>377</ele>
        <time>2019-03-28T13:52:27Z</time>
      </trkpt>
      <trkpt lat="47.04052" lon="5.94118">
        <ele>378</ele>
        <time>2019-03-28T13:52:38Z</time>
      </trkpt>
      <trkpt lat="47.0404" lon="5.94119">
        <ele>379</ele>
        <time>2019-03-28T13:52:50Z</time>
      </trkpt>
      <trkpt lat="47.04026" lon="5.94116">
        <ele>381</ele>
        <time>2019-03-28T13:53:04Z</time>
      </trkpt>
      <trkpt lat="47.04006" lon="5.94111">
        <ele>382</ele>
        <time>2019-03-28T13:53:25Z</time>
      </trkpt>
      <trkpt lat="47.03994" lon="5.94105">
        <ele>383</ele>
        <time>2019-03-28T13:53:36Z</time>
      </trkpt>
      <trkpt lat="47.03986" lon="5.941">
        <ele>386</ele>
        <time>2019-03-28T13:53:45Z</time>
      </trkpt>
      <trkpt lat="47.03971" lon="5.94079">
        <ele>390</ele>
        <time>2019-03-28T13:54:06Z</time>
      </trkpt>
      <trkpt lat="47.03964" lon="5.94069">
        <ele>390</ele>
        <time>2019-03-28T13:54:14Z</time>
      </trkpt>
      <trkpt lat="47.03937" lon="5.94025">
        <ele>396</ele>
        <time>2019-03-28T13:54:53Z</time>
      </trkpt>
      <trkpt lat="47.03931" lon="5.94016">
        <ele>397</ele>
        <time>2019-03-28T13:55:02Z</time>
      </trkpt>
      <trkpt lat="47.03923" lon="5.94006">
        <ele>397</ele>
        <time>2019-03-28T13:55:11Z</time>
      </trkpt>
      <trkpt lat="47.03906" lon="5.93965">
        <ele>400</ele>
        <time>2019-03-28T13:55:38Z</time>
      </trkpt>
      <trkpt lat="47.03902" lon="5.93952">
        <ele>400</ele>
        <time>2019-03-28T13:55:58Z</time>
      </trkpt>
      <trkpt lat="47.039" lon="5.93946">
        <ele>399</ele>
        <time>2019-03-28T13:56:02Z</time>
      </trkpt>
      <trkpt lat="47.03898" lon="5.9394">
        <ele>400</ele>
        <time>2019-03-28T13:56:07Z</time>
      </trkpt>
      <trkpt lat="47.03895" lon="5.93925">
        <ele>402</ele>
        <time>2019-03-28T13:56:15Z</time>
      </trkpt>
      <trkpt lat="47.03895" lon="5.93918">
        <ele>402</ele>
        <time>2019-03-28T13:56:19Z</time>
      </trkpt>
      <trkpt lat="47.03895" lon="5.93911">
        <ele>402</ele>
        <time>2019-03-28T13:56:23Z</time>
      </trkpt>
      <trkpt lat="47.03894" lon="5.93904">
        <ele>403</ele>
        <time>2019-03-28T13:56:28Z</time>
      </trkpt>
      <trkpt lat="47.03891" lon="5.93889">
        <ele>404</ele>
        <time>2019-03-28T13:56:37Z</time>
      </trkpt>
      <trkpt lat="47.03888" lon="5.93881">
        <ele>404</ele>
        <time>2019-03-28T13:56:44Z</time>
      </trkpt>
      <trkpt lat="47.03885" lon="5.93874">
        <ele>405</ele>
        <time>2019-03-28T13:56:48Z</time>
      </trkpt>
      <trkpt lat="47.03876" lon="5.93856">
        <ele>405</ele>
        <time>2019-03-28T13:57:00Z</time>
      </trkpt>
      <trkpt lat="47.03846" lon="5.93819">
        <ele>407</ele>
        <time>2019-03-28T13:57:33Z</time>
      </trkpt>
      <trkpt lat="47.03839" lon="5.9381">
        <ele>408</ele>
        <time>2019-03-28T13:57:41Z</time>
      </trkpt>
      <trkpt lat="47.03831" lon="5.93803">
        <ele>407</ele>
        <time>2019-03-28T13:57:47Z</time>
      </trkpt>
      <trkpt lat="47.03825" lon="5.93792">
        <ele>407</ele>
        <time>2019-03-28T13:57:53Z</time>
      </trkpt>
      <trkpt lat="47.03817" lon="5.93786">
        <ele>407</ele>
        <time>2019-03-28T13:58:01Z</time>
      </trkpt>
      <trkpt lat="47.03807" lon="5.93783">
        <ele>407</ele>
        <time>2019-03-28T13:58:10Z</time>
      </trkpt>
      <trkpt lat="47.03796" lon="5.93772">
        <ele>408</ele>
        <time>2019-03-28T13:58:22Z</time>
      </trkpt>
      <trkpt lat="47.03778" lon="5.93763">
        <ele>407</ele>
        <time>2019-03-28T13:58:39Z</time>
      </trkpt>
      <trkpt lat="47.0377" lon="5.93757">
        <ele>407</ele>
        <time>2019-03-28T13:58:49Z</time>
      </trkpt>
      <trkpt lat="47.03747" lon="5.93725">
        <ele>408</ele>
        <time>2019-03-28T13:59:21Z</time>
      </trkpt>
      <trkpt lat="47.03742" lon="5.93712">
        <ele>408</ele>
        <time>2019-03-28T13:59:31Z</time>
      </trkpt>
      <trkpt lat="47.03741" lon="5.93706">
        <ele>408</ele>
        <time>2019-03-28T13:59:36Z</time>
      </trkpt>
      <trkpt lat="47.03741" lon="5.93699">
        <ele>408</ele>
        <time>2019-03-28T13:59:41Z</time>
      </trkpt>
      <trkpt lat="47.03749" lon="5.93694">
        <ele>408</ele>
        <time>2019-03-28T14:00:01Z</time>
      </trkpt>
      <trkpt lat="47.03755" lon="5.93692">
        <ele>408</ele>
        <time>2019-03-28T14:00:12Z</time>
      </trkpt>
      <trkpt lat="47.03761" lon="5.9369">
        <ele>408</ele>
        <time>2019-03-28T14:00:26Z</time>
      </trkpt>
      <trkpt lat="47.03771" lon="5.93692">
        <ele>409</ele>
        <time>2019-03-28T14:00:38Z</time>
      </trkpt>
      <trkpt lat="47.03781" lon="5.93695">
        <ele>411</ele>
        <time>2019-03-28T14:00:48Z</time>
      </trkpt>
      <trkpt lat="47.03786" lon="5.93697">
        <ele>410</ele>
        <time>2019-03-28T14:00:53Z</time>
      </trkpt>
      <trkpt lat="47.03791" lon="5.93699">
        <ele>410</ele>
        <time>2019-03-28T14:00:58Z</time>
      </trkpt>
      <trkpt lat="47.03795" lon="5.93702">
        <ele>411</ele>
        <time>2019-03-28T14:01:06Z</time>
      </trkpt>
      <trkpt lat="47.038" lon="5.93704">
        <ele>410</ele>
        <time>2019-03-28T14:01:11Z</time>
      </trkpt>
      <trkpt lat="47.03804" lon="5.93705">
        <ele>410</ele>
        <time>2019-03-28T14:01:15Z</time>
      </trkpt>
      <trkpt lat="47.0381" lon="5.93704">
        <ele>411</ele>
        <time>2019-03-28T14:01:19Z</time>
      </trkpt>
      <trkpt lat="47.03819" lon="5.93702">
        <ele>411</ele>
        <time>2019-03-28T14:01:27Z</time>
      </trkpt>
      <trkpt lat="47.03825" lon="5.93701">
        <ele>411</ele>
        <time>2019-03-28T14:01:32Z</time>
      </trkpt>
      <trkpt lat="47.03828" lon="5.93697">
        <ele>412</ele>
        <time>2019-03-28T14:01:36Z</time>
      </trkpt>
      <trkpt lat="47.03829" lon="5.93691">
        <ele>412</ele>
        <time>2019-03-28T14:01:41Z</time>
      </trkpt>
      <trkpt lat="47.03825" lon="5.93646">
        <ele>414</ele>
        <time>2019-03-28T14:02:18Z</time>
      </trkpt>
      <trkpt lat="47.03823" lon="5.93622">
        <ele>415</ele>
        <time>2019-03-28T14:02:37Z</time>
      </trkpt>
      <trkpt lat="47.03823" lon="5.93615">
        <ele>416</ele>
        <time>2019-03-28T14:02:42Z</time>
      </trkpt>
      <trkpt lat="47.03817" lon="5.9362">
        <ele>419</ele>
        <time>2019-03-28T14:03:02Z</time>
      </trkpt>
      <trkpt lat="47.03814" lon="5.93634">
        <ele>418</ele>
        <time>2019-03-28T14:03:12Z</time>
      </trkpt>
      <trkpt lat="47.0381" lon="5.93645">
        <ele>419</ele>
        <time>2019-03-28T14:03:23Z</time>
      </trkpt>
      <trkpt lat="47.03798" lon="5.93641">
        <ele>418</ele>
        <time>2019-03-28T14:03:39Z</time>
      </trkpt>
      <trkpt lat="47.03791" lon="5.93642">
        <ele>417</ele>
        <time>2019-03-28T14:03:50Z</time>
      </trkpt>
      <trkpt lat="47.03785" lon="5.93647">
        <ele>418</ele>
        <time>2019-03-28T14:04:02Z</time>
      </trkpt>
      <trkpt lat="47.03778" lon="5.93649">
        <ele>419</ele>
        <time>2019-03-28T14:04:13Z</time>
      </trkpt>
      <trkpt lat="47.03773" lon="5.93643">
        <ele>418</ele>
        <time>2019-03-28T14:04:21Z</time>
      </trkpt>
      <trkpt lat="47.0377" lon="5.93638">
        <ele>419</ele>
        <time>2019-03-28T14:04:26Z</time>
      </trkpt>
      <trkpt lat="47.03769" lon="5.93631">
        <ele>417</ele>
        <time>2019-03-28T14:04:40Z</time>
      </trkpt>
      <trkpt lat="47.03766" lon="5.93623">
        <ele>418</ele>
        <time>2019-03-28T14:04:51Z</time>
      </trkpt>
      <trkpt lat="47.03763" lon="5.93615">
        <ele>419</ele>
        <time>2019-03-28T14:04:59Z</time>
      </trkpt>
      <trkpt lat="47.03751" lon="5.9359">
        <ele>418</ele>
        <time>2019-03-28T14:05:16Z</time>
      </trkpt>
      <trkpt lat="47.03748" lon="5.93583">
        <ele>418</ele>
        <time>2019-03-28T14:05:20Z</time>
      </trkpt>
      <trkpt lat="47.03744" lon="5.93576">
        <ele>418</ele>
        <time>2019-03-28T14:05:25Z</time>
      </trkpt>
      <trkpt lat="47.03737" lon="5.93565">
        <ele>418</ele>
        <time>2019-03-28T14:05:33Z</time>
      </trkpt>
      <trkpt lat="47.0373" lon="5.93554">
        <ele>417</ele>
        <time>2019-03-28T14:05:43Z</time>
      </trkpt>
      <trkpt lat="47.03726" lon="5.93549">
        <ele>417</ele>
        <time>2019-03-28T14:05:47Z</time>
      </trkpt>
      <trkpt lat="47.03723" lon="5.93543">
        <ele>417</ele>
        <time>2019-03-28T14:05:52Z</time>
      </trkpt>
      <trkpt lat="47.03716" lon="5.9353">
        <ele>417</ele>
        <time>2019-03-28T14:06:00Z</time>
      </trkpt>
      <trkpt lat="47.03713" lon="5.93524">
        <ele>417</ele>
        <time>2019-03-28T14:06:05Z</time>
      </trkpt>
      <trkpt lat="47.0371" lon="5.93519">
        <ele>417</ele>
        <time>2019-03-28T14:06:09Z</time>
      </trkpt>
      <trkpt lat="47.03707" lon="5.93513">
        <ele>417</ele>
        <time>2019-03-28T14:06:13Z</time>
      </trkpt>
      <trkpt lat="47.03699" lon="5.93494">
        <ele>417</ele>
        <time>2019-03-28T14:06:25Z</time>
      </trkpt>
      <trkpt lat="47.03696" lon="5.93488">
        <ele>418</ele>
        <time>2019-03-28T14:06:29Z</time>
      </trkpt>
      <trkpt lat="47.03694" lon="5.93482">
        <ele>418</ele>
        <time>2019-03-28T14:06:33Z</time>
      </trkpt>
      <trkpt lat="47.03691" lon="5.93475">
        <ele>419</ele>
        <time>2019-03-28T14:06:38Z</time>
      </trkpt>
      <trkpt lat="47.03687" lon="5.93464">
        <ele>420</ele>
        <time>2019-03-28T14:06:46Z</time>
      </trkpt>
      <trkpt lat="47.03685" lon="5.93458">
        <ele>421</ele>
        <time>2019-03-28T14:06:50Z</time>
      </trkpt>
      <trkpt lat="47.03679" lon="5.93445">
        <ele>421</ele>
        <time>2019-03-28T14:06:59Z</time>
      </trkpt>
      <trkpt lat="47.03672" lon="5.93433">
        <ele>424</ele>
        <time>2019-03-28T14:07:11Z</time>
      </trkpt>
      <trkpt lat="47.03665" lon="5.93422">
        <ele>425</ele>
        <time>2019-03-28T14:07:20Z</time>
      </trkpt>
      <trkpt lat="47.03652" lon="5.93406">
        <ele>425</ele>
        <time>2019-03-28T14:07:35Z</time>
      </trkpt>
      <trkpt lat="47.03638" lon="5.93395">
        <ele>426</ele>
        <time>2019-03-28T14:07:48Z</time>
      </trkpt>
      <trkpt lat="47.03633" lon="5.93392">
        <ele>426</ele>
        <time>2019-03-28T14:07:52Z</time>
      </trkpt>
      <trkpt lat="47.03623" lon="5.93385">
        <ele>427</ele>
        <time>2019-03-28T14:08:00Z</time>
      </trkpt>
      <trkpt lat="47.03609" lon="5.93369">
        <ele>427</ele>
        <time>2019-03-28T14:08:15Z</time>
      </trkpt>
      <trkpt lat="47.03595" lon="5.93356">
        <ele>430</ele>
        <time>2019-03-28T14:08:30Z</time>
      </trkpt>
      <trkpt lat="47.03587" lon="5.93346">
        <ele>429</ele>
        <time>2019-03-28T14:08:36Z</time>
      </trkpt>
      <trkpt lat="47.03579" lon="5.93337">
        <ele>430</ele>
        <time>2019-03-28T14:08:44Z</time>
      </trkpt>
      <trkpt lat="47.03561" lon="5.93322">
        <ele>429</ele>
        <time>2019-03-28T14:09:01Z</time>
      </trkpt>
      <trkpt lat="47.03552" lon="5.93314">
        <ele>430</ele>
        <time>2019-03-28T14:09:10Z</time>
      </trkpt>
      <trkpt lat="47.03548" lon="5.9331">
        <ele>430</ele>
        <time>2019-03-28T14:09:14Z</time>
      </trkpt>
      <trkpt lat="47.03544" lon="5.93306">
        <ele>430</ele>
        <time>2019-03-28T14:09:18Z</time>
      </trkpt>
      <trkpt lat="47.03535" lon="5.93298">
        <ele>432</ele>
        <time>2019-03-28T14:09:29Z</time>
      </trkpt>
      <trkpt lat="47.03531" lon="5.93294">
        <ele>432</ele>
        <time>2019-03-28T14:09:33Z</time>
      </trkpt>
      <trkpt lat="47.03522" lon="5.93285">
        <ele>434</ele>
        <time>2019-03-28T14:09:42Z</time>
      </trkpt>
      <trkpt lat="47.03517" lon="5.9328">
        <ele>433</ele>
        <time>2019-03-28T14:09:46Z</time>
      </trkpt>
      <trkpt lat="47.03513" lon="5.93276">
        <ele>434</ele>
        <time>2019-03-28T14:09:50Z</time>
      </trkpt>
      <trkpt lat="47.03497" lon="5.93257">
        <ele>435</ele>
        <time>2019-03-28T14:10:07Z</time>
      </trkpt>
      <trkpt lat="47.03494" lon="5.93252">
        <ele>435</ele>
        <time>2019-03-28T14:10:11Z</time>
      </trkpt>
      <trkpt lat="47.0349" lon="5.93248">
        <ele>436</ele>
        <time>2019-03-28T14:10:16Z</time>
      </trkpt>
      <trkpt lat="47.03483" lon="5.93235">
        <ele>438</ele>
        <time>2019-03-28T14:10:25Z</time>
      </trkpt>
      <trkpt lat="47.0348" lon="5.9323">
        <ele>438</ele>
        <time>2019-03-28T14:10:29Z</time>
      </trkpt>
      <trkpt lat="47.03471" lon="5.9322">
        <ele>439</ele>
        <time>2019-03-28T14:10:38Z</time>
      </trkpt>
      <trkpt lat="47.03467" lon="5.93216">
        <ele>439</ele>
        <time>2019-03-28T14:10:41Z</time>
      </trkpt>
      <trkpt lat="47.03462" lon="5.93214">
        <ele>440</ele>
        <time>2019-03-28T14:10:45Z</time>
      </trkpt>
      <trkpt lat="47.03453" lon="5.93209">
        <ele>441</ele>
        <time>2019-03-28T14:10:53Z</time>
      </trkpt>
      <trkpt lat="47.03449" lon="5.93212">
        <ele>440</ele>
        <time>2019-03-28T14:11:10Z</time>
      </trkpt>
      <trkpt lat="47.03445" lon="5.93206">
        <ele>439</ele>
        <time>2019-03-28T14:11:15Z</time>
      </trkpt>
      <trkpt lat="47.03435" lon="5.932">
        <ele>440</ele>
        <time>2019-03-28T14:11:30Z</time>
      </trkpt>
      <trkpt lat="47.03442" lon="5.93202">
        <ele>442</ele>
        <time>2019-03-28T14:12:19Z</time>
      </trkpt>
      <trkpt lat="47.03446" lon="5.93211">
        <ele>447</ele>
        <time>2019-03-28T14:14:19Z</time>
      </trkpt>
      <trkpt lat="47.03451" lon="5.93203">
        <ele>448</ele>
        <time>2019-03-28T14:14:37Z</time>
      </trkpt>
      <trkpt lat="47.03453" lon="5.93201">
        <ele>447</ele>
        <time>2019-03-28T14:15:54Z</time>
      </trkpt>
      <trkpt lat="47.03446" lon="5.93205">
        <ele>443</ele>
        <time>2019-03-28T14:16:49Z</time>
      </trkpt>
      <trkpt lat="47.0344" lon="5.93205">
        <ele>443</ele>
        <time>2019-03-28T14:17:26Z</time>
      </trkpt>
      <trkpt lat="47.03438" lon="5.93212">
        <ele>444</ele>
        <time>2019-03-28T14:17:31Z</time>
      </trkpt>
      <trkpt lat="47.03428" lon="5.93218">
        <ele>445</ele>
        <time>2019-03-28T14:17:38Z</time>
      </trkpt>
      <trkpt lat="47.03421" lon="5.93221">
        <ele>443</ele>
        <time>2019-03-28T14:17:46Z</time>
      </trkpt>
      <trkpt lat="47.03415" lon="5.93222">
        <ele>443</ele>
        <time>2019-03-28T14:17:50Z</time>
      </trkpt>
      <trkpt lat="47.03411" lon="5.93222">
        <ele>443</ele>
        <time>2019-03-28T14:17:53Z</time>
      </trkpt>
      <trkpt lat="47.03395" lon="5.93222">
        <ele>445</ele>
        <time>2019-03-28T14:18:06Z</time>
      </trkpt>
      <trkpt lat="47.0339" lon="5.93222">
        <ele>446</ele>
        <time>2019-03-28T14:18:10Z</time>
      </trkpt>
      <trkpt lat="47.03385" lon="5.9322">
        <ele>446</ele>
        <time>2019-03-28T14:18:15Z</time>
      </trkpt>
      <trkpt lat="47.0338" lon="5.93219">
        <ele>448</ele>
        <time>2019-03-28T14:18:20Z</time>
      </trkpt>
      <trkpt lat="47.03372" lon="5.9322">
        <ele>448</ele>
        <time>2019-03-28T14:18:28Z</time>
      </trkpt>
      <trkpt lat="47.03367" lon="5.93219">
        <ele>448</ele>
        <time>2019-03-28T14:18:31Z</time>
      </trkpt>
      <trkpt lat="47.03363" lon="5.93217">
        <ele>448</ele>
        <time>2019-03-28T14:18:34Z</time>
      </trkpt>
      <trkpt lat="47.03358" lon="5.93215">
        <ele>449</ele>
        <time>2019-03-28T14:18:39Z</time>
      </trkpt>
      <trkpt lat="47.03348" lon="5.93216">
        <ele>451</ele>
        <time>2019-03-28T14:18:48Z</time>
      </trkpt>
      <trkpt lat="47.03339" lon="5.9321">
        <ele>451</ele>
        <time>2019-03-28T14:18:57Z</time>
      </trkpt>
      <trkpt lat="47.03335" lon="5.93205">
        <ele>451</ele>
        <time>2019-03-28T14:19:01Z</time>
      </trkpt>
      <trkpt lat="47.03328" lon="5.93195">
        <ele>452</ele>
        <time>2019-03-28T14:19:09Z</time>
      </trkpt>
      <trkpt lat="47.03319" lon="5.9318">
        <ele>452</ele>
        <time>2019-03-28T14:19:20Z</time>
      </trkpt>
      <trkpt lat="47.03282" lon="5.9315">
        <ele>454</ele>
        <time>2019-03-28T14:19:54Z</time>
      </trkpt>
      <trkpt lat="47.03273" lon="5.93147">
        <ele>453</ele>
        <time>2019-03-28T14:20:02Z</time>
      </trkpt>
      <trkpt lat="47.03246" lon="5.93129">
        <ele>454</ele>
        <time>2019-03-28T14:20:24Z</time>
      </trkpt>
      <trkpt lat="47.03235" lon="5.93125">
        <ele>453</ele>
        <time>2019-03-28T14:20:33Z</time>
      </trkpt>
      <trkpt lat="47.03225" lon="5.93121">
        <ele>454</ele>
        <time>2019-03-28T14:20:40Z</time>
      </trkpt>
      <trkpt lat="47.03215" lon="5.93118">
        <ele>453</ele>
        <time>2019-03-28T14:20:47Z</time>
      </trkpt>
      <trkpt lat="47.03206" lon="5.93115">
        <ele>453</ele>
        <time>2019-03-28T14:20:56Z</time>
      </trkpt>
      <trkpt lat="47.03198" lon="5.93112">
        <ele>453</ele>
        <time>2019-03-28T14:21:03Z</time>
      </trkpt>
      <trkpt lat="47.03188" lon="5.93112">
        <ele>452</ele>
        <time>2019-03-28T14:21:11Z</time>
      </trkpt>
      <trkpt lat="47.03179" lon="5.93111">
        <ele>452</ele>
        <time>2019-03-28T14:21:17Z</time>
      </trkpt>
      <trkpt lat="47.03169" lon="5.93114">
        <ele>452</ele>
        <time>2019-03-28T14:21:26Z</time>
      </trkpt>
      <trkpt lat="47.03159" lon="5.93115">
        <ele>451</ele>
        <time>2019-03-28T14:21:34Z</time>
      </trkpt>
      <trkpt lat="47.03131" lon="5.93127">
        <ele>449</ele>
        <time>2019-03-28T14:21:55Z</time>
      </trkpt>
      <trkpt lat="47.0311" lon="5.9313">
        <ele>449</ele>
        <time>2019-03-28T14:22:15Z</time>
      </trkpt>
      <trkpt lat="47.031" lon="5.93125">
        <ele>450</ele>
        <time>2019-03-28T14:22:23Z</time>
      </trkpt>
      <trkpt lat="47.03091" lon="5.93119">
        <ele>450</ele>
        <time>2019-03-28T14:22:30Z</time>
      </trkpt>
      <trkpt lat="47.03073" lon="5.93109">
        <ele>451</ele>
        <time>2019-03-28T14:22:46Z</time>
      </trkpt>
      <trkpt lat="47.03062" lon="5.93105">
        <ele>452</ele>
        <time>2019-03-28T14:22:56Z</time>
      </trkpt>
      <trkpt lat="47.03059" lon="5.93109">
        <ele>451</ele>
        <time>2019-03-28T14:23:20Z</time>
      </trkpt>
      <trkpt lat="47.0306" lon="5.93115">
        <ele>447</ele>
        <time>2019-03-28T14:23:42Z</time>
      </trkpt>
      <trkpt lat="47.03054" lon="5.93119">
        <ele>444</ele>
        <time>2019-03-28T14:23:54Z</time>
      </trkpt>
      <trkpt lat="47.03044" lon="5.93123">
        <ele>445</ele>
        <time>2019-03-28T14:24:07Z</time>
      </trkpt>
      <trkpt lat="47.0304" lon="5.93125">
        <ele>445</ele>
        <time>2019-03-28T14:24:11Z</time>
      </trkpt>
      <trkpt lat="47.03029" lon="5.93133">
        <ele>447</ele>
        <time>2019-03-28T14:24:21Z</time>
      </trkpt>
      <trkpt lat="47.03021" lon="5.9314">
        <ele>447</ele>
        <time>2019-03-28T14:24:27Z</time>
      </trkpt>
      <trkpt lat="47.0302" lon="5.93154">
        <ele>447</ele>
        <time>2019-03-28T14:24:37Z</time>
      </trkpt>
      <trkpt lat="47.03021" lon="5.93168">
        <ele>448</ele>
        <time>2019-03-28T14:24:45Z</time>
      </trkpt>
      <trkpt lat="47.03027" lon="5.93177">
        <ele>450</ele>
        <time>2019-03-28T14:24:51Z</time>
      </trkpt>
      <trkpt lat="47.03028" lon="5.93197">
        <ele>450</ele>
        <time>2019-03-28T14:25:04Z</time>
      </trkpt>
      <trkpt lat="47.03033" lon="5.93209">
        <ele>451</ele>
        <time>2019-03-28T14:25:14Z</time>
      </trkpt>
      <trkpt lat="47.03038" lon="5.93242">
        <ele>450</ele>
        <time>2019-03-28T14:25:39Z</time>
      </trkpt>
      <trkpt lat="47.03035" lon="5.93256">
        <ele>450</ele>
        <time>2019-03-28T14:25:46Z</time>
      </trkpt>
      <trkpt lat="47.03035" lon="5.9327">
        <ele>451</ele>
        <time>2019-03-28T14:25:55Z</time>
      </trkpt>
      <trkpt lat="47.03034" lon="5.93285">
        <ele>451</ele>
        <time>2019-03-28T14:26:03Z</time>
      </trkpt>
      <trkpt lat="47.03034" lon="5.93298">
        <ele>451</ele>
        <time>2019-03-28T14:26:10Z</time>
      </trkpt>
      <trkpt lat="47.03036" lon="5.93313">
        <ele>451</ele>
        <time>2019-03-28T14:26:19Z</time>
      </trkpt>
      <trkpt lat="47.03038" lon="5.93327">
        <ele>452</ele>
        <time>2019-03-28T14:26:28Z</time>
      </trkpt>
      <trkpt lat="47.03035" lon="5.93345">
        <ele>452</ele>
        <time>2019-03-28T14:26:45Z</time>
      </trkpt>
      <trkpt lat="47.03038" lon="5.93352">
        <ele>447</ele>
        <time>2019-03-28T14:27:38Z</time>
      </trkpt>
      <trkpt lat="47.03045" lon="5.93349">
        <ele>443</ele>
        <time>2019-03-28T14:28:07Z</time>
      </trkpt>
      <trkpt lat="47.0305" lon="5.93353">
        <ele>446</ele>
        <time>2019-03-28T14:28:50Z</time>
      </trkpt>
      <trkpt lat="47.03052" lon="5.93363">
        <ele>442</ele>
        <time>2019-03-28T14:29:19Z</time>
      </trkpt>
      <trkpt lat="47.03052" lon="5.9337">
        <ele>444</ele>
        <time>2019-03-28T14:29:23Z</time>
      </trkpt>
      <trkpt lat="47.03051" lon="5.93379">
        <ele>444</ele>
        <time>2019-03-28T14:29:28Z</time>
      </trkpt>
      <trkpt lat="47.03054" lon="5.93391">
        <ele>444</ele>
        <time>2019-03-28T14:29:36Z</time>
      </trkpt>
      <trkpt lat="47.03056" lon="5.93397">
        <ele>445</ele>
        <time>2019-03-28T14:29:40Z</time>
      </trkpt>
      <trkpt lat="47.03059" lon="5.93403">
        <ele>445</ele>
        <time>2019-03-28T14:29:45Z</time>
      </trkpt>
      <trkpt lat="47.03064" lon="5.93407">
        <ele>444</ele>
        <time>2019-03-28T14:29:50Z</time>
      </trkpt>
      <trkpt lat="47.03069" lon="5.93412">
        <ele>444</ele>
        <time>2019-03-28T14:29:55Z</time>
      </trkpt>
      <trkpt lat="47.03073" lon="5.93414">
        <ele>443</ele>
        <time>2019-03-28T14:29:59Z</time>
      </trkpt>
      <trkpt lat="47.03077" lon="5.93418">
        <ele>442</ele>
        <time>2019-03-28T14:30:03Z</time>
      </trkpt>
      <trkpt lat="47.03081" lon="5.93423">
        <ele>442</ele>
        <time>2019-03-28T14:30:07Z</time>
      </trkpt>
      <trkpt lat="47.03084" lon="5.93428">
        <ele>442</ele>
        <time>2019-03-28T14:30:10Z</time>
      </trkpt>
      <trkpt lat="47.03088" lon="5.93432">
        <ele>442</ele>
        <time>2019-03-28T14:30:13Z</time>
      </trkpt>
      <trkpt lat="47.03092" lon="5.93436">
        <ele>442</ele>
        <time>2019-03-28T14:30:17Z</time>
      </trkpt>
      <trkpt lat="47.03097" lon="5.93442">
        <ele>442</ele>
        <time>2019-03-28T14:30:23Z</time>
      </trkpt>
      <trkpt lat="47.031" lon="5.93448">
        <ele>442</ele>
        <time>2019-03-28T14:30:27Z</time>
      </trkpt>
      <trkpt lat="47.03104" lon="5.93452">
        <ele>442</ele>
        <time>2019-03-28T14:30:31Z</time>
      </trkpt>
      <trkpt lat="47.03108" lon="5.93455">
        <ele>442</ele>
        <time>2019-03-28T14:30:35Z</time>
      </trkpt>
      <trkpt lat="47.03117" lon="5.93456">
        <ele>442</ele>
        <time>2019-03-28T14:30:45Z</time>
      </trkpt>
      <trkpt lat="47.03122" lon="5.93458">
        <ele>442</ele>
        <time>2019-03-28T14:30:49Z</time>
      </trkpt>
      <trkpt lat="47.03127" lon="5.93462">
        <ele>442</ele>
        <time>2019-03-28T14:30:53Z</time>
      </trkpt>
      <trkpt lat="47.03125" lon="5.93471">
        <ele>440</ele>
        <time>2019-03-28T14:31:22Z</time>
      </trkpt>
      <trkpt lat="47.03121" lon="5.93475">
        <ele>439</ele>
        <time>2019-03-28T14:31:26Z</time>
      </trkpt>
      <trkpt lat="47.03118" lon="5.93479">
        <ele>439</ele>
        <time>2019-03-28T14:31:30Z</time>
      </trkpt>
      <trkpt lat="47.03108" lon="5.93494">
        <ele>437</ele>
        <time>2019-03-28T14:31:49Z</time>
      </trkpt>
      <trkpt lat="47.03101" lon="5.93506">
        <ele>435</ele>
        <time>2019-03-28T14:32:00Z</time>
      </trkpt>
      <trkpt lat="47.03089" lon="5.93521">
        <ele>435</ele>
        <time>2019-03-28T14:32:15Z</time>
      </trkpt>
      <trkpt lat="47.03084" lon="5.93523">
        <ele>433</ele>
        <time>2019-03-28T14:32:20Z</time>
      </trkpt>
      <trkpt lat="47.03079" lon="5.93527">
        <ele>433</ele>
        <time>2019-03-28T14:32:25Z</time>
      </trkpt>
      <trkpt lat="47.03054" lon="5.93545">
        <ele>431</ele>
        <time>2019-03-28T14:32:56Z</time>
      </trkpt>
      <trkpt lat="47.03047" lon="5.93554">
        <ele>431</ele>
        <time>2019-03-28T14:33:06Z</time>
      </trkpt>
      <trkpt lat="47.03041" lon="5.93557">
        <ele>430</ele>
        <time>2019-03-28T14:33:14Z</time>
      </trkpt>
      <trkpt lat="47.03031" lon="5.93571">
        <ele>429</ele>
        <time>2019-03-28T14:33:32Z</time>
      </trkpt>
      <trkpt lat="47.03021" lon="5.93583">
        <ele>427</ele>
        <time>2019-03-28T14:33:50Z</time>
      </trkpt>
      <trkpt lat="47.03008" lon="5.93586">
        <ele>425</ele>
        <time>2019-03-28T14:34:20Z</time>
      </trkpt>
      <trkpt lat="47.03007" lon="5.936">
        <ele>423</ele>
        <time>2019-03-28T14:34:28Z</time>
      </trkpt>
      <trkpt lat="47.03005" lon="5.93606">
        <ele>423</ele>
        <time>2019-03-28T14:34:33Z</time>
      </trkpt>
      <trkpt lat="47.03004" lon="5.93613">
        <ele>423</ele>
        <time>2019-03-28T14:34:37Z</time>
      </trkpt>
      <trkpt lat="47.03" lon="5.93629">
        <ele>422</ele>
        <time>2019-03-28T14:34:48Z</time>
      </trkpt>
      <trkpt lat="47.02994" lon="5.93642">
        <ele>422</ele>
        <time>2019-03-28T14:34:57Z</time>
      </trkpt>
      <trkpt lat="47.02987" lon="5.93641">
        <ele>420</ele>
        <time>2019-03-28T14:35:06Z</time>
      </trkpt>
      <trkpt lat="47.02982" lon="5.93644">
        <ele>420</ele>
        <time>2019-03-28T14:35:11Z</time>
      </trkpt>
      <trkpt lat="47.02978" lon="5.93648">
        <ele>420</ele>
        <time>2019-03-28T14:35:15Z</time>
      </trkpt>
      <trkpt lat="47.02968" lon="5.93648">
        <ele>418</ele>
        <time>2019-03-28T14:35:35Z</time>
      </trkpt>
      <trkpt lat="47.0296" lon="5.93653">
        <ele>417</ele>
        <time>2019-03-28T14:35:53Z</time>
      </trkpt>
      <trkpt lat="47.02951" lon="5.93652">
        <ele>414</ele>
        <time>2019-03-28T14:36:17Z</time>
      </trkpt>
      <trkpt lat="47.0294" lon="5.9366">
        <ele>413</ele>
        <time>2019-03-28T14:36:35Z</time>
      </trkpt>
      <trkpt lat="47.02932" lon="5.93666">
        <ele>412</ele>
        <time>2019-03-28T14:36:53Z</time>
      </trkpt>
      <trkpt lat="47.0292" lon="5.93675">
        <ele>412</ele>
        <time>2019-03-28T14:37:08Z</time>
      </trkpt>
      <trkpt lat="47.02907" lon="5.93675">
        <ele>410</ele>
        <time>2019-03-28T14:37:21Z</time>
      </trkpt>
      <trkpt lat="47.02893" lon="5.93665">
        <ele>407</ele>
        <time>2019-03-28T14:37:38Z</time>
      </trkpt>
      <trkpt lat="47.0288" lon="5.93662">
        <ele>406</ele>
        <time>2019-03-28T14:37:54Z</time>
      </trkpt>
      <trkpt lat="47.02869" lon="5.9366">
        <ele>405</ele>
        <time>2019-03-28T14:38:13Z</time>
      </trkpt>
      <trkpt lat="47.02858" lon="5.9366">
        <ele>404</ele>
        <time>2019-03-28T14:38:28Z</time>
      </trkpt>
      <trkpt lat="47.02851" lon="5.93649">
        <ele>403</ele>
        <time>2019-03-28T14:38:46Z</time>
      </trkpt>
      <trkpt lat="47.02841" lon="5.93646">
        <ele>402</ele>
        <time>2019-03-28T14:38:55Z</time>
      </trkpt>
      <trkpt lat="47.02829" lon="5.93652">
        <ele>398</ele>
        <time>2019-03-28T14:39:15Z</time>
      </trkpt>
      <trkpt lat="47.02815" lon="5.93679">
        <ele>390</ele>
        <time>2019-03-28T14:39:51Z</time>
      </trkpt>
      <trkpt lat="47.02809" lon="5.93692">
        <ele>388</ele>
        <time>2019-03-28T14:40:10Z</time>
      </trkpt>
      <trkpt lat="47.02801" lon="5.93688">
        <ele>386</ele>
        <time>2019-03-28T14:40:28Z</time>
      </trkpt>
      <trkpt lat="47.02799" lon="5.93694">
        <ele>384</ele>
        <time>2019-03-28T14:40:40Z</time>
      </trkpt>
      <trkpt lat="47.02807" lon="5.937">
        <ele>384</ele>
        <time>2019-03-28T14:40:51Z</time>
      </trkpt>
      <trkpt lat="47.02811" lon="5.93711">
        <ele>383</ele>
        <time>2019-03-28T14:41:00Z</time>
      </trkpt>
      <trkpt lat="47.02819" lon="5.93727">
        <ele>381</ele>
        <time>2019-03-28T14:41:15Z</time>
      </trkpt>
      <trkpt lat="47.02832" lon="5.93747">
        <ele>380</ele>
        <time>2019-03-28T14:41:33Z</time>
      </trkpt>
      <trkpt lat="47.02839" lon="5.93751">
        <ele>377</ele>
        <time>2019-03-28T14:41:45Z</time>
      </trkpt>
      <trkpt lat="47.02842" lon="5.9376">
        <ele>377</ele>
        <time>2019-03-28T14:41:52Z</time>
      </trkpt>
      <trkpt lat="47.02846" lon="5.93766">
        <ele>376</ele>
        <time>2019-03-28T14:41:57Z</time>
      </trkpt>
      <trkpt lat="47.0285" lon="5.9377">
        <ele>376</ele>
        <time>2019-03-28T14:42:01Z</time>
      </trkpt>
      <trkpt lat="47.02857" lon="5.9378">
        <ele>375</ele>
        <time>2019-03-28T14:42:10Z</time>
      </trkpt>
      <trkpt lat="47.02865" lon="5.9379">
        <ele>375</ele>
        <time>2019-03-28T14:42:19Z</time>
      </trkpt>
      <trkpt lat="47.02869" lon="5.93796">
        <ele>374</ele>
        <time>2019-03-28T14:42:24Z</time>
      </trkpt>
      <trkpt lat="47.02877" lon="5.93805">
        <ele>375</ele>
        <time>2019-03-28T14:42:33Z</time>
      </trkpt>
      <trkpt lat="47.02881" lon="5.9381">
        <ele>375</ele>
        <time>2019-03-28T14:42:38Z</time>
      </trkpt>
      <trkpt lat="47.02892" lon="5.93826">
        <ele>372</ele>
        <time>2019-03-28T14:42:53Z</time>
      </trkpt>
      <trkpt lat="47.0291" lon="5.93854">
        <ele>373</ele>
        <time>2019-03-28T14:43:16Z</time>
      </trkpt>
      <trkpt lat="47.02913" lon="5.9386">
        <ele>373</ele>
        <time>2019-03-28T14:43:20Z</time>
      </trkpt>
      <trkpt lat="47.02915" lon="5.93874">
        <ele>371</ele>
        <time>2019-03-28T14:43:28Z</time>
      </trkpt>
      <trkpt lat="47.02912" lon="5.93882">
        <ele>371</ele>
        <time>2019-03-28T14:43:33Z</time>
      </trkpt>
      <trkpt lat="47.02884" lon="5.93912">
        <ele>367</ele>
        <time>2019-03-28T14:44:05Z</time>
      </trkpt>
      <trkpt lat="47.02872" lon="5.93926">
        <ele>365</ele>
        <time>2019-03-28T14:44:18Z</time>
      </trkpt>
      <trkpt lat="47.02869" lon="5.93931">
        <ele>365</ele>
        <time>2019-03-28T14:44:22Z</time>
      </trkpt>
      <trkpt lat="47.02861" lon="5.93941">
        <ele>364</ele>
        <time>2019-03-28T14:44:30Z</time>
      </trkpt>
      <trkpt lat="47.02857" lon="5.93945">
        <ele>364</ele>
        <time>2019-03-28T14:44:34Z</time>
      </trkpt>
      <trkpt lat="47.02853" lon="5.93949">
        <ele>364</ele>
        <time>2019-03-28T14:44:38Z</time>
      </trkpt>
      <trkpt lat="47.0285" lon="5.93955">
        <ele>363</ele>
        <time>2019-03-28T14:44:43Z</time>
      </trkpt>
      <trkpt lat="47.02843" lon="5.93965">
        <ele>363</ele>
        <time>2019-03-28T14:44:51Z</time>
      </trkpt>
      <trkpt lat="47.02818" lon="5.93996">
        <ele>361</ele>
        <time>2019-03-28T14:45:23Z</time>
      </trkpt>
      <trkpt lat="47.0281" lon="5.94005">
        <ele>360</ele>
        <time>2019-03-28T14:45:31Z</time>
      </trkpt>
      <trkpt lat="47.02804" lon="5.94015">
        <ele>360</ele>
        <time>2019-03-28T14:45:41Z</time>
      </trkpt>
      <trkpt lat="47.028" lon="5.9402">
        <ele>359</ele>
        <time>2019-03-28T14:45:45Z</time>
      </trkpt>
      <trkpt lat="47.02796" lon="5.94025">
        <ele>359</ele>
        <time>2019-03-28T14:45:50Z</time>
      </trkpt>
      <trkpt lat="47.02767" lon="5.94063">
        <ele>356</ele>
        <time>2019-03-28T14:46:23Z</time>
      </trkpt>
      <trkpt lat="47.02737" lon="5.94102">
        <ele>355</ele>
        <time>2019-03-28T14:46:58Z</time>
      </trkpt>
      <trkpt lat="47.02725" lon="5.94116">
        <ele>354</ele>
        <time>2019-03-28T14:47:13Z</time>
      </trkpt>
      <trkpt lat="47.02721" lon="5.94119">
        <ele>354</ele>
        <time>2019-03-28T14:47:17Z</time>
      </trkpt>
      <trkpt lat="47.02716" lon="5.94123">
        <ele>354</ele>
        <time>2019-03-28T14:47:22Z</time>
      </trkpt>
      <trkpt lat="47.02707" lon="5.94131">
        <ele>353</ele>
        <time>2019-03-28T14:47:32Z</time>
      </trkpt>
      <trkpt lat="47.02702" lon="5.94135">
        <ele>354</ele>
        <time>2019-03-28T14:47:37Z</time>
      </trkpt>
      <trkpt lat="47.02692" lon="5.94139">
        <ele>353</ele>
        <time>2019-03-28T14:47:46Z</time>
      </trkpt>
      <trkpt lat="47.02684" lon="5.94148">
        <ele>352</ele>
        <time>2019-03-28T14:47:55Z</time>
      </trkpt>
      <trkpt lat="47.02675" lon="5.94154">
        <ele>352</ele>
        <time>2019-03-28T14:48:04Z</time>
      </trkpt>
      <trkpt lat="47.0267" lon="5.94157">
        <ele>352</ele>
        <time>2019-03-28T14:48:07Z</time>
      </trkpt>
      <trkpt lat="47.02649" lon="5.94169">
        <ele>351</ele>
        <time>2019-03-28T14:48:28Z</time>
      </trkpt>
      <trkpt lat="47.02644" lon="5.94172">
        <ele>350</ele>
        <time>2019-03-28T14:48:33Z</time>
      </trkpt>
      <trkpt lat="47.02636" lon="5.9418">
        <ele>350</ele>
        <time>2019-03-28T14:48:42Z</time>
      </trkpt>
      <trkpt lat="47.0263" lon="5.94188">
        <ele>349</ele>
        <time>2019-03-28T14:48:48Z</time>
      </trkpt>
      <trkpt lat="47.02619" lon="5.94204">
        <ele>349</ele>
        <time>2019-03-28T14:49:02Z</time>
      </trkpt>
      <trkpt lat="47.02615" lon="5.94217">
        <ele>349</ele>
        <time>2019-03-28T14:49:12Z</time>
      </trkpt>
      <trkpt lat="47.02617" lon="5.94223">
        <ele>349</ele>
        <time>2019-03-28T14:49:17Z</time>
      </trkpt>
      <trkpt lat="47.02626" lon="5.94232">
        <ele>350</ele>
        <time>2019-03-28T14:49:26Z</time>
      </trkpt>
      <trkpt lat="47.02635" lon="5.9424">
        <ele>351</ele>
        <time>2019-03-28T14:49:36Z</time>
      </trkpt>
      <trkpt lat="47.02643" lon="5.94247">
        <ele>351</ele>
        <time>2019-03-28T14:49:45Z</time>
      </trkpt>
      <trkpt lat="47.02648" lon="5.94249">
        <ele>351</ele>
        <time>2019-03-28T14:49:49Z</time>
      </trkpt>
      <trkpt lat="47.02658" lon="5.94255">
        <ele>351</ele>
        <time>2019-03-28T14:50:02Z</time>
      </trkpt>
      <trkpt lat="47.02663" lon="5.94266">
        <ele>351</ele>
        <time>2019-03-28T14:50:14Z</time>
      </trkpt>
      <trkpt lat="47.02668" lon="5.9427">
        <ele>350</ele>
        <time>2019-03-28T14:50:19Z</time>
      </trkpt>
      <trkpt lat="47.02673" lon="5.94278">
        <ele>351</ele>
        <time>2019-03-28T14:50:27Z</time>
      </trkpt>
      <trkpt lat="47.0268" lon="5.94286">
        <ele>351</ele>
        <time>2019-03-28T14:50:41Z</time>
      </trkpt>
      <trkpt lat="47.02683" lon="5.94292">
        <ele>351</ele>
        <time>2019-03-28T14:50:46Z</time>
      </trkpt>
      <trkpt lat="47.02689" lon="5.94297">
        <ele>351</ele>
        <time>2019-03-28T14:51:20Z</time>
      </trkpt>
      <trkpt lat="47.02692" lon="5.94305">
        <ele>351</ele>
        <time>2019-03-28T14:51:56Z</time>
      </trkpt>
    </trkseg>
  </trk>
</gpx>